<?xml version="1.0" encoding="UTF-8" standalone="no" ?>
<gpx xmlns="http://www.topografix.com/GPX/1/1" xmlns:xsi="http://www.w3.org/2001/XMLSchema-instance" xsi:schemaLocation="http://www.topografix.com/GPX/1/1 http://www.topografix.com/GPX/1/1/gpx.xsd" version="1.1" creator="VisuGPX - https://www.visugpx.com">
  <metadata>
    <name>Vélo bleu - Circuit 11</name>
    <desc><![CDATA[Petit patrimoine sur ce circuit :
- Lavoirs de Saint-Urbain, Fronville, Ferrière-et-Lafolie, Joinville, Suzannecourt, Poissons, Vaux-sur-St-Urbain
- Châteaux de Donjeux et de Poissons]]></desc>
  </metadata>
  <trk>
    <name><![CDATA[Sortie vélo le matin 19]]></name>
    <trkseg>
      <trkpt lat="48.36514" lon="5.15238">
        <ele>200.59</ele>
        <time>2025-01-04T11:16:03.000Z</time>
      </trkpt>
      <trkpt lat="48.36516" lon="5.15235">
        <ele>200.9</ele>
        <time>2025-01-04T11:16:03.000Z</time>
      </trkpt>
      <trkpt lat="48.36534" lon="5.15224">
        <ele>201.27</ele>
        <time>2025-01-04T11:16:03.003Z</time>
      </trkpt>
      <trkpt lat="48.36546" lon="5.15227">
        <ele>201.67</ele>
        <time>2025-01-04T11:16:03.008Z</time>
      </trkpt>
      <trkpt lat="48.36544" lon="5.15246">
        <ele>202.18</ele>
        <time>2025-01-04T11:16:03.016Z</time>
      </trkpt>
      <trkpt lat="48.36549" lon="5.15274">
        <ele>202.77</ele>
        <time>2025-01-04T11:16:03.027Z</time>
      </trkpt>
      <trkpt lat="48.36555" lon="5.15295">
        <ele>203.39</ele>
        <time>2025-01-04T11:16:03.040Z</time>
      </trkpt>
      <trkpt lat="48.36566" lon="5.15327">
        <ele>204.19</ele>
        <time>2025-01-04T11:16:03.057Z</time>
      </trkpt>
      <trkpt lat="48.36576" lon="5.15358">
        <ele>205.18</ele>
        <time>2025-01-04T11:16:03.078Z</time>
      </trkpt>
      <trkpt lat="48.36587" lon="5.15389">
        <ele>206.25</ele>
        <time>2025-01-04T11:16:03.102Z</time>
      </trkpt>
      <trkpt lat="48.36598" lon="5.1542">
        <ele>207.35</ele>
        <time>2025-01-04T11:16:03.130Z</time>
      </trkpt>
      <trkpt lat="48.36611" lon="5.15458">
        <ele>208.42</ele>
        <time>2025-01-04T11:16:03.163Z</time>
      </trkpt>
      <trkpt lat="48.36624" lon="5.15497">
        <ele>209.5</ele>
        <time>2025-01-04T11:16:03.200Z</time>
      </trkpt>
      <trkpt lat="48.3663" lon="5.15533">
        <ele>210.71</ele>
        <time>2025-01-04T11:16:03.241Z</time>
      </trkpt>
      <trkpt lat="48.36626" lon="5.1557">
        <ele>212.05</ele>
        <time>2025-01-04T11:16:03.286Z</time>
      </trkpt>
      <trkpt lat="48.36617" lon="5.15604">
        <ele>213.46</ele>
        <time>2025-01-04T11:16:03.335Z</time>
      </trkpt>
      <trkpt lat="48.36604" lon="5.15625">
        <ele>214.95</ele>
        <time>2025-01-04T11:16:03.387Z</time>
      </trkpt>
      <trkpt lat="48.36591" lon="5.15645">
        <ele>216.38</ele>
        <time>2025-01-04T11:16:03.442Z</time>
      </trkpt>
      <trkpt lat="48.36591" lon="5.15645">
        <ele>217.67</ele>
        <time>2025-01-04T11:16:03.497Z</time>
      </trkpt>
      <trkpt lat="48.36589" lon="5.15647">
        <ele>218.88</ele>
        <time>2025-01-04T11:16:03.553Z</time>
      </trkpt>
      <trkpt lat="48.36573" lon="5.15667">
        <ele>220.1</ele>
        <time>2025-01-04T11:16:03.612Z</time>
      </trkpt>
      <trkpt lat="48.36557" lon="5.15686">
        <ele>221.17</ele>
        <time>2025-01-04T11:16:03.674Z</time>
      </trkpt>
      <trkpt lat="48.36537" lon="5.1571">
        <ele>222.14</ele>
        <time>2025-01-04T11:16:03.740Z</time>
      </trkpt>
      <trkpt lat="48.36516" lon="5.15735">
        <ele>223.07</ele>
        <time>2025-01-04T11:16:03.811Z</time>
      </trkpt>
      <trkpt lat="48.36494" lon="5.15762">
        <ele>223.98</ele>
        <time>2025-01-04T11:16:03.886Z</time>
      </trkpt>
      <trkpt lat="48.36472" lon="5.15789">
        <ele>224.85</ele>
        <time>2025-01-04T11:16:03.966Z</time>
      </trkpt>
      <trkpt lat="48.36449" lon="5.15815">
        <ele>225.76</ele>
        <time>2025-01-04T11:16:04.050Z</time>
      </trkpt>
      <trkpt lat="48.36427" lon="5.15842">
        <ele>226.56</ele>
        <time>2025-01-04T11:16:04.139Z</time>
      </trkpt>
      <trkpt lat="48.36404" lon="5.15869">
        <ele>227.3</ele>
        <time>2025-01-04T11:16:04.232Z</time>
      </trkpt>
      <trkpt lat="48.36382" lon="5.15895">
        <ele>227.94</ele>
        <time>2025-01-04T11:16:04.330Z</time>
      </trkpt>
      <trkpt lat="48.3636" lon="5.15922">
        <ele>228.6</ele>
        <time>2025-01-04T11:16:04.433Z</time>
      </trkpt>
      <trkpt lat="48.36347" lon="5.15937">
        <ele>229.16</ele>
        <time>2025-01-04T11:16:04.538Z</time>
      </trkpt>
      <trkpt lat="48.36334" lon="5.15952">
        <ele>229.64</ele>
        <time>2025-01-04T11:16:04.646Z</time>
      </trkpt>
      <trkpt lat="48.36313" lon="5.15978">
        <ele>230.07</ele>
        <time>2025-01-04T11:16:04.758Z</time>
      </trkpt>
      <trkpt lat="48.36291" lon="5.16003">
        <ele>230.33</ele>
        <time>2025-01-04T11:16:04.875Z</time>
      </trkpt>
      <trkpt lat="48.36268" lon="5.1603">
        <ele>230.41</ele>
        <time>2025-01-04T11:16:04.996Z</time>
      </trkpt>
      <trkpt lat="48.36245" lon="5.16056">
        <ele>230.23</ele>
        <time>2025-01-04T11:16:05.122Z</time>
      </trkpt>
      <trkpt lat="48.36222" lon="5.16083">
        <ele>229.87</ele>
        <time>2025-01-04T11:16:05.253Z</time>
      </trkpt>
      <trkpt lat="48.362" lon="5.16101">
        <ele>229.32</ele>
        <time>2025-01-04T11:16:05.388Z</time>
      </trkpt>
      <trkpt lat="48.36177" lon="5.16119">
        <ele>228.61</ele>
        <time>2025-01-04T11:16:05.527Z</time>
      </trkpt>
      <trkpt lat="48.36154" lon="5.16137">
        <ele>227.82</ele>
        <time>2025-01-04T11:16:05.670Z</time>
      </trkpt>
      <trkpt lat="48.36131" lon="5.16155">
        <ele>226.98</ele>
        <time>2025-01-04T11:16:05.817Z</time>
      </trkpt>
      <trkpt lat="48.36109" lon="5.16173">
        <ele>225.85</ele>
        <time>2025-01-04T11:16:05.968Z</time>
      </trkpt>
      <trkpt lat="48.36081" lon="5.16193">
        <ele>224.58</ele>
        <time>2025-01-04T11:16:06.124Z</time>
      </trkpt>
      <trkpt lat="48.36054" lon="5.16214">
        <ele>223.26</ele>
        <time>2025-01-04T11:16:06.285Z</time>
      </trkpt>
      <trkpt lat="48.36026" lon="5.16235">
        <ele>221.76</ele>
        <time>2025-01-04T11:16:06.451Z</time>
      </trkpt>
      <trkpt lat="48.35999" lon="5.16255">
        <ele>220.13</ele>
        <time>2025-01-04T11:16:06.622Z</time>
      </trkpt>
      <trkpt lat="48.35971" lon="5.16276">
        <ele>218.59</ele>
        <time>2025-01-04T11:16:06.798Z</time>
      </trkpt>
      <trkpt lat="48.3595" lon="5.16297">
        <ele>217.11</ele>
        <time>2025-01-04T11:16:06.978Z</time>
      </trkpt>
      <trkpt lat="48.35934" lon="5.16321">
        <ele>215.68</ele>
        <time>2025-01-04T11:16:07.161Z</time>
      </trkpt>
      <trkpt lat="48.35918" lon="5.16345">
        <ele>214.22</ele>
        <time>2025-01-04T11:16:07.348Z</time>
      </trkpt>
      <trkpt lat="48.35899" lon="5.16374">
        <ele>212.84</ele>
        <time>2025-01-04T11:16:07.539Z</time>
      </trkpt>
      <trkpt lat="48.3588" lon="5.16403">
        <ele>211.51</ele>
        <time>2025-01-04T11:16:07.735Z</time>
      </trkpt>
      <trkpt lat="48.35861" lon="5.16432">
        <ele>210.41</ele>
        <time>2025-01-04T11:16:07.935Z</time>
      </trkpt>
      <trkpt lat="48.35843" lon="5.1646">
        <ele>209.33</ele>
        <time>2025-01-04T11:16:08.139Z</time>
      </trkpt>
      <trkpt lat="48.35832" lon="5.1648">
        <ele>208.36</ele>
        <time>2025-01-04T11:16:08.346Z</time>
      </trkpt>
      <trkpt lat="48.35821" lon="5.16499">
        <ele>207.52</ele>
        <time>2025-01-04T11:16:08.556Z</time>
      </trkpt>
      <trkpt lat="48.35804" lon="5.16531">
        <ele>206.8</ele>
        <time>2025-01-04T11:16:08.770Z</time>
      </trkpt>
      <trkpt lat="48.3581" lon="5.16575">
        <ele>206.08</ele>
        <time>2025-01-04T11:16:08.989Z</time>
      </trkpt>
      <trkpt lat="48.35816" lon="5.16618">
        <ele>205.56</ele>
        <time>2025-01-04T11:16:09.213Z</time>
      </trkpt>
      <trkpt lat="48.35822" lon="5.16661">
        <ele>205.15</ele>
        <time>2025-01-04T11:16:09.441Z</time>
      </trkpt>
      <trkpt lat="48.35828" lon="5.16705">
        <ele>204.8</ele>
        <time>2025-01-04T11:16:09.674Z</time>
      </trkpt>
      <trkpt lat="48.35834" lon="5.16748">
        <ele>204.63</ele>
        <time>2025-01-04T11:16:09.912Z</time>
      </trkpt>
      <trkpt lat="48.3584" lon="5.16791">
        <ele>204.58</ele>
        <time>2025-01-04T11:16:10.154Z</time>
      </trkpt>
      <trkpt lat="48.35838" lon="5.16806">
        <ele>204.74</ele>
        <time>2025-01-04T11:16:10.398Z</time>
      </trkpt>
      <trkpt lat="48.35819" lon="5.16829">
        <ele>205.06</ele>
        <time>2025-01-04T11:16:10.646Z</time>
      </trkpt>
      <trkpt lat="48.35817" lon="5.16834">
        <ele>205.48</ele>
        <time>2025-01-04T11:16:10.895Z</time>
      </trkpt>
      <trkpt lat="48.35796" lon="5.16853">
        <ele>206.12</ele>
        <time>2025-01-04T11:16:11.147Z</time>
      </trkpt>
      <trkpt lat="48.35776" lon="5.16872">
        <ele>206.88</ele>
        <time>2025-01-04T11:16:11.403Z</time>
      </trkpt>
      <trkpt lat="48.35763" lon="5.16885">
        <ele>207.67</ele>
        <time>2025-01-04T11:16:11.662Z</time>
      </trkpt>
      <trkpt lat="48.35752" lon="5.16911">
        <ele>208.57</ele>
        <time>2025-01-04T11:16:11.924Z</time>
      </trkpt>
      <trkpt lat="48.3575" lon="5.1693">
        <ele>209.56</ele>
        <time>2025-01-04T11:16:12.188Z</time>
      </trkpt>
      <trkpt lat="48.35754" lon="5.16976">
        <ele>210.61</ele>
        <time>2025-01-04T11:16:12.457Z</time>
      </trkpt>
      <trkpt lat="48.35757" lon="5.17022">
        <ele>211.7</ele>
        <time>2025-01-04T11:16:12.731Z</time>
      </trkpt>
      <trkpt lat="48.3576" lon="5.17067">
        <ele>212.84</ele>
        <time>2025-01-04T11:16:13.010Z</time>
      </trkpt>
      <trkpt lat="48.35763" lon="5.17113">
        <ele>214.02</ele>
        <time>2025-01-04T11:16:13.294Z</time>
      </trkpt>
      <trkpt lat="48.35766" lon="5.17159">
        <ele>215.34</ele>
        <time>2025-01-04T11:16:13.583Z</time>
      </trkpt>
      <trkpt lat="48.3577" lon="5.17205">
        <ele>216.74</ele>
        <time>2025-01-04T11:16:13.877Z</time>
      </trkpt>
      <trkpt lat="48.35773" lon="5.1725">
        <ele>218.2</ele>
        <time>2025-01-04T11:16:14.175Z</time>
      </trkpt>
      <trkpt lat="48.35776" lon="5.17295">
        <ele>219.93</ele>
        <time>2025-01-04T11:16:14.478Z</time>
      </trkpt>
      <trkpt lat="48.35774" lon="5.17312">
        <ele>221.56</ele>
        <time>2025-01-04T11:16:14.783Z</time>
      </trkpt>
      <trkpt lat="48.35768" lon="5.17327">
        <ele>223.11</ele>
        <time>2025-01-04T11:16:15.090Z</time>
      </trkpt>
      <trkpt lat="48.35755" lon="5.17338">
        <ele>224.49</ele>
        <time>2025-01-04T11:16:15.399Z</time>
      </trkpt>
      <trkpt lat="48.35727" lon="5.1735">
        <ele>225.63</ele>
        <time>2025-01-04T11:16:15.713Z</time>
      </trkpt>
      <trkpt lat="48.357" lon="5.17362">
        <ele>226.6</ele>
        <time>2025-01-04T11:16:16.031Z</time>
      </trkpt>
      <trkpt lat="48.35673" lon="5.17375">
        <ele>227.51</ele>
        <time>2025-01-04T11:16:16.354Z</time>
      </trkpt>
      <trkpt lat="48.35655" lon="5.1739">
        <ele>228.45</ele>
        <time>2025-01-04T11:16:16.680Z</time>
      </trkpt>
      <trkpt lat="48.35637" lon="5.17405">
        <ele>229.35</ele>
        <time>2025-01-04T11:16:17.010Z</time>
      </trkpt>
      <trkpt lat="48.3563" lon="5.17441">
        <ele>230.28</ele>
        <time>2025-01-04T11:16:17.344Z</time>
      </trkpt>
      <trkpt lat="48.3563" lon="5.17467">
        <ele>230.98</ele>
        <time>2025-01-04T11:16:17.680Z</time>
      </trkpt>
      <trkpt lat="48.3563" lon="5.17493">
        <ele>231.51</ele>
        <time>2025-01-04T11:16:18.019Z</time>
      </trkpt>
      <trkpt lat="48.35632" lon="5.17529">
        <ele>231.93</ele>
        <time>2025-01-04T11:16:18.362Z</time>
      </trkpt>
      <trkpt lat="48.35639" lon="5.17535">
        <ele>231.99</ele>
        <time>2025-01-04T11:16:18.706Z</time>
      </trkpt>
      <trkpt lat="48.35632" lon="5.17529">
        <ele>231.93</ele>
        <time>2025-01-04T11:16:19.052Z</time>
      </trkpt>
      <trkpt lat="48.3563" lon="5.17493">
        <ele>231.51</ele>
        <time>2025-01-04T11:16:19.401Z</time>
      </trkpt>
      <trkpt lat="48.3563" lon="5.17467">
        <ele>230.71</ele>
        <time>2025-01-04T11:16:19.753Z</time>
      </trkpt>
      <trkpt lat="48.3563" lon="5.17441">
        <ele>230.28</ele>
        <time>2025-01-04T11:16:20.108Z</time>
      </trkpt>
      <trkpt lat="48.35637" lon="5.17405">
        <ele>229.35</ele>
        <time>2025-01-04T11:16:20.467Z</time>
      </trkpt>
      <trkpt lat="48.35655" lon="5.1739">
        <ele>227.63</ele>
        <time>2025-01-04T11:16:20.829Z</time>
      </trkpt>
      <trkpt lat="48.35673" lon="5.17375">
        <ele>226.48</ele>
        <time>2025-01-04T11:16:21.195Z</time>
      </trkpt>
      <trkpt lat="48.357" lon="5.17362">
        <ele>225.39</ele>
        <time>2025-01-04T11:16:21.565Z</time>
      </trkpt>
      <trkpt lat="48.35727" lon="5.1735">
        <ele>224.29</ele>
        <time>2025-01-04T11:16:21.940Z</time>
      </trkpt>
      <trkpt lat="48.35755" lon="5.17338">
        <ele>224.49</ele>
        <time>2025-01-04T11:16:22.319Z</time>
      </trkpt>
      <trkpt lat="48.35768" lon="5.17327">
        <ele>223.11</ele>
        <time>2025-01-04T11:16:22.701Z</time>
      </trkpt>
      <trkpt lat="48.35774" lon="5.17312">
        <ele>221.56</ele>
        <time>2025-01-04T11:16:23.085Z</time>
      </trkpt>
      <trkpt lat="48.35776" lon="5.17295">
        <ele>219.93</ele>
        <time>2025-01-04T11:16:23.470Z</time>
      </trkpt>
      <trkpt lat="48.35773" lon="5.17249">
        <ele>216.75</ele>
        <time>2025-01-04T11:16:23.860Z</time>
      </trkpt>
      <trkpt lat="48.3577" lon="5.17204">
        <ele>215.24</ele>
        <time>2025-01-04T11:16:24.255Z</time>
      </trkpt>
      <trkpt lat="48.35766" lon="5.17158">
        <ele>213.79</ele>
        <time>2025-01-04T11:16:24.655Z</time>
      </trkpt>
      <trkpt lat="48.35763" lon="5.17112">
        <ele>212.44</ele>
        <time>2025-01-04T11:16:25.060Z</time>
      </trkpt>
      <trkpt lat="48.3576" lon="5.17067">
        <ele>211.26</ele>
        <time>2025-01-04T11:16:25.470Z</time>
      </trkpt>
      <trkpt lat="48.35757" lon="5.17021">
        <ele>210.17</ele>
        <time>2025-01-04T11:16:25.885Z</time>
      </trkpt>
      <trkpt lat="48.35754" lon="5.16975">
        <ele>209.18</ele>
        <time>2025-01-04T11:16:26.305Z</time>
      </trkpt>
      <trkpt lat="48.3575" lon="5.1693">
        <ele>209.56</ele>
        <time>2025-01-04T11:16:26.730Z</time>
      </trkpt>
      <trkpt lat="48.35752" lon="5.16911">
        <ele>208.57</ele>
        <time>2025-01-04T11:16:27.157Z</time>
      </trkpt>
      <trkpt lat="48.35763" lon="5.16885">
        <ele>207.67</ele>
        <time>2025-01-04T11:16:27.587Z</time>
      </trkpt>
      <trkpt lat="48.35776" lon="5.16872">
        <ele>206.88</ele>
        <time>2025-01-04T11:16:28.019Z</time>
      </trkpt>
      <trkpt lat="48.35796" lon="5.16853">
        <ele>205.56</ele>
        <time>2025-01-04T11:16:28.455Z</time>
      </trkpt>
      <trkpt lat="48.35817" lon="5.16834">
        <ele>205.48</ele>
        <time>2025-01-04T11:16:28.895Z</time>
      </trkpt>
      <trkpt lat="48.35819" lon="5.16829">
        <ele>205.06</ele>
        <time>2025-01-04T11:16:29.336Z</time>
      </trkpt>
      <trkpt lat="48.35838" lon="5.16806">
        <ele>204.74</ele>
        <time>2025-01-04T11:16:29.781Z</time>
      </trkpt>
      <trkpt lat="48.3584" lon="5.16791">
        <ele>204.58</ele>
        <time>2025-01-04T11:16:30.227Z</time>
      </trkpt>
      <trkpt lat="48.35834" lon="5.16747">
        <ele>204.91</ele>
        <time>2025-01-04T11:16:30.678Z</time>
      </trkpt>
      <trkpt lat="48.35828" lon="5.16704">
        <ele>205.21</ele>
        <time>2025-01-04T11:16:31.134Z</time>
      </trkpt>
      <trkpt lat="48.35822" lon="5.16661">
        <ele>205.68</ele>
        <time>2025-01-04T11:16:31.594Z</time>
      </trkpt>
      <trkpt lat="48.35816" lon="5.16617">
        <ele>206.21</ele>
        <time>2025-01-04T11:16:32.059Z</time>
      </trkpt>
      <trkpt lat="48.3581" lon="5.16574">
        <ele>206.82</ele>
        <time>2025-01-04T11:16:32.529Z</time>
      </trkpt>
      <trkpt lat="48.35804" lon="5.16531">
        <ele>206.8</ele>
        <time>2025-01-04T11:16:33.004Z</time>
      </trkpt>
      <trkpt lat="48.35821" lon="5.16499">
        <ele>207.52</ele>
        <time>2025-01-04T11:16:33.483Z</time>
      </trkpt>
      <trkpt lat="48.35832" lon="5.1648">
        <ele>209.26</ele>
        <time>2025-01-04T11:16:33.965Z</time>
      </trkpt>
      <trkpt lat="48.35843" lon="5.1646">
        <ele>209.33</ele>
        <time>2025-01-04T11:16:34.449Z</time>
      </trkpt>
      <trkpt lat="48.35861" lon="5.16431">
        <ele>211.23</ele>
        <time>2025-01-04T11:16:34.938Z</time>
      </trkpt>
      <trkpt lat="48.3588" lon="5.16402">
        <ele>212.22</ele>
        <time>2025-01-04T11:16:35.431Z</time>
      </trkpt>
      <trkpt lat="48.35899" lon="5.16373">
        <ele>213.38</ele>
        <time>2025-01-04T11:16:35.928Z</time>
      </trkpt>
      <trkpt lat="48.35918" lon="5.16345">
        <ele>214.22</ele>
        <time>2025-01-04T11:16:36.430Z</time>
      </trkpt>
      <trkpt lat="48.35934" lon="5.16321">
        <ele>215.8</ele>
        <time>2025-01-04T11:16:36.935Z</time>
      </trkpt>
      <trkpt lat="48.3595" lon="5.16297">
        <ele>217.11</ele>
        <time>2025-01-04T11:16:37.444Z</time>
      </trkpt>
      <trkpt lat="48.35971" lon="5.16276">
        <ele>218.59</ele>
        <time>2025-01-04T11:16:37.957Z</time>
      </trkpt>
      <trkpt lat="48.35999" lon="5.16255">
        <ele>219.44</ele>
        <time>2025-01-04T11:16:38.475Z</time>
      </trkpt>
      <trkpt lat="48.36026" lon="5.16235">
        <ele>220.8</ele>
        <time>2025-01-04T11:16:38.998Z</time>
      </trkpt>
      <trkpt lat="48.36054" lon="5.16214">
        <ele>222.09</ele>
        <time>2025-01-04T11:16:39.526Z</time>
      </trkpt>
      <trkpt lat="48.36081" lon="5.16193">
        <ele>223.27</ele>
        <time>2025-01-04T11:16:40.059Z</time>
      </trkpt>
      <trkpt lat="48.36109" lon="5.16173">
        <ele>225.85</ele>
        <time>2025-01-04T11:16:40.597Z</time>
      </trkpt>
      <trkpt lat="48.36131" lon="5.16155">
        <ele>225.55</ele>
        <time>2025-01-04T11:16:41.139Z</time>
      </trkpt>
      <trkpt lat="48.36154" lon="5.16137">
        <ele>226.46</ele>
        <time>2025-01-04T11:16:41.685Z</time>
      </trkpt>
      <trkpt lat="48.36177" lon="5.16119">
        <ele>227.35</ele>
        <time>2025-01-04T11:16:42.235Z</time>
      </trkpt>
      <trkpt lat="48.362" lon="5.16101">
        <ele>228.21</ele>
        <time>2025-01-04T11:16:42.789Z</time>
      </trkpt>
      <trkpt lat="48.36222" lon="5.16083">
        <ele>229.87</ele>
        <time>2025-01-04T11:16:43.347Z</time>
      </trkpt>
      <trkpt lat="48.36245" lon="5.16056">
        <ele>229.72</ele>
        <time>2025-01-04T11:16:43.910Z</time>
      </trkpt>
      <trkpt lat="48.36268" lon="5.1603">
        <ele>230.36</ele>
        <time>2025-01-04T11:16:44.477Z</time>
      </trkpt>
      <trkpt lat="48.36291" lon="5.16003">
        <ele>230.33</ele>
        <time>2025-01-04T11:16:45.049Z</time>
      </trkpt>
      <trkpt lat="48.36313" lon="5.15978">
        <ele>231.23</ele>
        <time>2025-01-04T11:16:45.625Z</time>
      </trkpt>
      <trkpt lat="48.36334" lon="5.15952">
        <ele>229.64</ele>
        <time>2025-01-04T11:16:46.206Z</time>
      </trkpt>
      <trkpt lat="48.36351" lon="5.15974">
        <ele>231.76</ele>
        <time>2025-01-04T11:16:46.790Z</time>
      </trkpt>
      <trkpt lat="48.36368" lon="5.15997">
        <ele>231.99</ele>
        <time>2025-01-04T11:16:47.378Z</time>
      </trkpt>
      <trkpt lat="48.36381" lon="5.16014">
        <ele>232.23</ele>
        <time>2025-01-04T11:16:47.969Z</time>
      </trkpt>
      <trkpt lat="48.36394" lon="5.16029">
        <ele>232.44</ele>
        <time>2025-01-04T11:16:48.562Z</time>
      </trkpt>
      <trkpt lat="48.36416" lon="5.16059">
        <ele>232.69</ele>
        <time>2025-01-04T11:16:49.160Z</time>
      </trkpt>
      <trkpt lat="48.36437" lon="5.16088">
        <ele>232.85</ele>
        <time>2025-01-04T11:16:49.763Z</time>
      </trkpt>
      <trkpt lat="48.36459" lon="5.16118">
        <ele>232.96</ele>
        <time>2025-01-04T11:16:50.370Z</time>
      </trkpt>
      <trkpt lat="48.3648" lon="5.16147">
        <ele>233.01</ele>
        <time>2025-01-04T11:16:50.982Z</time>
      </trkpt>
      <trkpt lat="48.36505" lon="5.16172">
        <ele>233.03</ele>
        <time>2025-01-04T11:16:51.599Z</time>
      </trkpt>
      <trkpt lat="48.36529" lon="5.16196">
        <ele>233.06</ele>
        <time>2025-01-04T11:16:52.221Z</time>
      </trkpt>
      <trkpt lat="48.36548" lon="5.16214">
        <ele>233.05</ele>
        <time>2025-01-04T11:16:52.846Z</time>
      </trkpt>
      <trkpt lat="48.36566" lon="5.16231">
        <ele>233.05</ele>
        <time>2025-01-04T11:16:53.475Z</time>
      </trkpt>
      <trkpt lat="48.36585" lon="5.16248">
        <ele>233.02</ele>
        <time>2025-01-04T11:16:54.107Z</time>
      </trkpt>
      <trkpt lat="48.366" lon="5.16266">
        <ele>232.93</ele>
        <time>2025-01-04T11:16:54.742Z</time>
      </trkpt>
      <trkpt lat="48.36615" lon="5.16284">
        <ele>232.79</ele>
        <time>2025-01-04T11:16:55.380Z</time>
      </trkpt>
      <trkpt lat="48.36627" lon="5.16307">
        <ele>232.64</ele>
        <time>2025-01-04T11:16:56.021Z</time>
      </trkpt>
      <trkpt lat="48.36639" lon="5.1633">
        <ele>232.49</ele>
        <time>2025-01-04T11:16:56.665Z</time>
      </trkpt>
      <trkpt lat="48.36654" lon="5.16368">
        <ele>232.41</ele>
        <time>2025-01-04T11:16:57.314Z</time>
      </trkpt>
      <trkpt lat="48.36665" lon="5.16399">
        <ele>232.31</ele>
        <time>2025-01-04T11:16:57.967Z</time>
      </trkpt>
      <trkpt lat="48.36677" lon="5.1643">
        <ele>232.15</ele>
        <time>2025-01-04T11:16:58.624Z</time>
      </trkpt>
      <trkpt lat="48.36688" lon="5.1646">
        <ele>231.91</ele>
        <time>2025-01-04T11:16:59.284Z</time>
      </trkpt>
      <trkpt lat="48.36698" lon="5.16492">
        <ele>231.64</ele>
        <time>2025-01-04T11:16:59.948Z</time>
      </trkpt>
      <trkpt lat="48.36707" lon="5.16523">
        <ele>231.31</ele>
        <time>2025-01-04T11:17:00.616Z</time>
      </trkpt>
      <trkpt lat="48.36712" lon="5.16547">
        <ele>230.97</ele>
        <time>2025-01-04T11:17:01.286Z</time>
      </trkpt>
      <trkpt lat="48.36716" lon="5.16572">
        <ele>230.6</ele>
        <time>2025-01-04T11:17:01.959Z</time>
      </trkpt>
      <trkpt lat="48.3672" lon="5.16607">
        <ele>230.14</ele>
        <time>2025-01-04T11:17:02.636Z</time>
      </trkpt>
      <trkpt lat="48.36725" lon="5.16642">
        <ele>229.64</ele>
        <time>2025-01-04T11:17:03.317Z</time>
      </trkpt>
      <trkpt lat="48.36729" lon="5.16677">
        <ele>229.08</ele>
        <time>2025-01-04T11:17:04.002Z</time>
      </trkpt>
      <trkpt lat="48.36733" lon="5.16711">
        <ele>228.44</ele>
        <time>2025-01-04T11:17:04.690Z</time>
      </trkpt>
      <trkpt lat="48.3674" lon="5.16758">
        <ele>227.74</ele>
        <time>2025-01-04T11:17:05.383Z</time>
      </trkpt>
      <trkpt lat="48.36746" lon="5.16804">
        <ele>226.98</ele>
        <time>2025-01-04T11:17:06.081Z</time>
      </trkpt>
      <trkpt lat="48.36755" lon="5.16843">
        <ele>226.16</ele>
        <time>2025-01-04T11:17:06.784Z</time>
      </trkpt>
      <trkpt lat="48.36763" lon="5.16883">
        <ele>225.34</ele>
        <time>2025-01-04T11:17:07.491Z</time>
      </trkpt>
      <trkpt lat="48.36772" lon="5.16922">
        <ele>224.42</ele>
        <time>2025-01-04T11:17:08.203Z</time>
      </trkpt>
      <trkpt lat="48.36773" lon="5.1695">
        <ele>223.48</ele>
        <time>2025-01-04T11:17:08.918Z</time>
      </trkpt>
      <trkpt lat="48.36774" lon="5.16978">
        <ele>222.52</ele>
        <time>2025-01-04T11:17:09.636Z</time>
      </trkpt>
      <trkpt lat="48.36768" lon="5.17008">
        <ele>221.55</ele>
        <time>2025-01-04T11:17:10.357Z</time>
      </trkpt>
      <trkpt lat="48.36763" lon="5.17038">
        <ele>220.62</ele>
        <time>2025-01-04T11:17:11.081Z</time>
      </trkpt>
      <trkpt lat="48.36752" lon="5.17078">
        <ele>219.65</ele>
        <time>2025-01-04T11:17:11.810Z</time>
      </trkpt>
      <trkpt lat="48.36741" lon="5.17118">
        <ele>218.66</ele>
        <time>2025-01-04T11:17:12.544Z</time>
      </trkpt>
      <trkpt lat="48.36729" lon="5.17159">
        <ele>217.51</ele>
        <time>2025-01-04T11:17:13.282Z</time>
      </trkpt>
      <trkpt lat="48.36718" lon="5.17199">
        <ele>216.45</ele>
        <time>2025-01-04T11:17:14.025Z</time>
      </trkpt>
      <trkpt lat="48.36712" lon="5.17229">
        <ele>215.51</ele>
        <time>2025-01-04T11:17:14.771Z</time>
      </trkpt>
      <trkpt lat="48.36705" lon="5.17259">
        <ele>214.52</ele>
        <time>2025-01-04T11:17:15.521Z</time>
      </trkpt>
      <trkpt lat="48.36704" lon="5.17296">
        <ele>213.47</ele>
        <time>2025-01-04T11:17:16.275Z</time>
      </trkpt>
      <trkpt lat="48.36702" lon="5.17333">
        <ele>212.45</ele>
        <time>2025-01-04T11:17:17.033Z</time>
      </trkpt>
      <trkpt lat="48.367" lon="5.1737">
        <ele>211.48</ele>
        <time>2025-01-04T11:17:17.795Z</time>
      </trkpt>
      <trkpt lat="48.36699" lon="5.17407">
        <ele>210.53</ele>
        <time>2025-01-04T11:17:18.560Z</time>
      </trkpt>
      <trkpt lat="48.36694" lon="5.17445">
        <ele>209.56</ele>
        <time>2025-01-04T11:17:19.330Z</time>
      </trkpt>
      <trkpt lat="48.36689" lon="5.17482">
        <ele>208.66</ele>
        <time>2025-01-04T11:17:20.104Z</time>
      </trkpt>
      <trkpt lat="48.36685" lon="5.1752">
        <ele>207.89</ele>
        <time>2025-01-04T11:17:20.882Z</time>
      </trkpt>
      <trkpt lat="48.3668" lon="5.17558">
        <ele>207.12</ele>
        <time>2025-01-04T11:17:21.664Z</time>
      </trkpt>
      <trkpt lat="48.36675" lon="5.17596">
        <ele>206.41</ele>
        <time>2025-01-04T11:17:22.450Z</time>
      </trkpt>
      <trkpt lat="48.36671" lon="5.17638">
        <ele>205.75</ele>
        <time>2025-01-04T11:17:23.241Z</time>
      </trkpt>
      <trkpt lat="48.36679" lon="5.17673">
        <ele>205.15</ele>
        <time>2025-01-04T11:17:24.035Z</time>
      </trkpt>
      <trkpt lat="48.367" lon="5.17702">
        <ele>204.64</ele>
        <time>2025-01-04T11:17:24.834Z</time>
      </trkpt>
      <trkpt lat="48.3672" lon="5.17731">
        <ele>204.25</ele>
        <time>2025-01-04T11:17:25.637Z</time>
      </trkpt>
      <trkpt lat="48.3674" lon="5.17761">
        <ele>204.02</ele>
        <time>2025-01-04T11:17:26.445Z</time>
      </trkpt>
      <trkpt lat="48.3676" lon="5.1779">
        <ele>204</ele>
        <time>2025-01-04T11:17:27.257Z</time>
      </trkpt>
      <trkpt lat="48.3678" lon="5.1782">
        <ele>203.99</ele>
        <time>2025-01-04T11:17:28.074Z</time>
      </trkpt>
      <trkpt lat="48.368" lon="5.17849">
        <ele>203.98</ele>
        <time>2025-01-04T11:17:28.895Z</time>
      </trkpt>
      <trkpt lat="48.36813" lon="5.17868">
        <ele>204.2</ele>
        <time>2025-01-04T11:17:29.719Z</time>
      </trkpt>
      <trkpt lat="48.36826" lon="5.17891">
        <ele>204.56</ele>
        <time>2025-01-04T11:17:30.547Z</time>
      </trkpt>
      <trkpt lat="48.3684" lon="5.17913">
        <ele>205.05</ele>
        <time>2025-01-04T11:17:31.378Z</time>
      </trkpt>
      <trkpt lat="48.36856" lon="5.17945">
        <ele>205.61</ele>
        <time>2025-01-04T11:17:32.213Z</time>
      </trkpt>
      <trkpt lat="48.36871" lon="5.17977">
        <ele>206.26</ele>
        <time>2025-01-04T11:17:33.052Z</time>
      </trkpt>
      <trkpt lat="48.36887" lon="5.18009">
        <ele>206.94</ele>
        <time>2025-01-04T11:17:33.895Z</time>
      </trkpt>
      <trkpt lat="48.36902" lon="5.1804">
        <ele>207.72</ele>
        <time>2025-01-04T11:17:34.743Z</time>
      </trkpt>
      <trkpt lat="48.36918" lon="5.18072">
        <ele>208.61</ele>
        <time>2025-01-04T11:17:35.595Z</time>
      </trkpt>
      <trkpt lat="48.36941" lon="5.18047">
        <ele>209.5</ele>
        <time>2025-01-04T11:17:36.451Z</time>
      </trkpt>
      <trkpt lat="48.36965" lon="5.18021">
        <ele>210.42</ele>
        <time>2025-01-04T11:17:37.312Z</time>
      </trkpt>
      <trkpt lat="48.36988" lon="5.17996">
        <ele>211.23</ele>
        <time>2025-01-04T11:17:38.178Z</time>
      </trkpt>
      <trkpt lat="48.37012" lon="5.17971">
        <ele>212.14</ele>
        <time>2025-01-04T11:17:39.048Z</time>
      </trkpt>
      <trkpt lat="48.37036" lon="5.17945">
        <ele>213.06</ele>
        <time>2025-01-04T11:17:39.923Z</time>
      </trkpt>
      <trkpt lat="48.37055" lon="5.17921">
        <ele>213.88</ele>
        <time>2025-01-04T11:17:40.802Z</time>
      </trkpt>
      <trkpt lat="48.37074" lon="5.17896">
        <ele>214.74</ele>
        <time>2025-01-04T11:17:41.685Z</time>
      </trkpt>
      <trkpt lat="48.37094" lon="5.17871">
        <ele>215.57</ele>
        <time>2025-01-04T11:17:42.572Z</time>
      </trkpt>
      <trkpt lat="48.37113" lon="5.17847">
        <ele>216.37</ele>
        <time>2025-01-04T11:17:43.463Z</time>
      </trkpt>
      <trkpt lat="48.37129" lon="5.17818">
        <ele>217.14</ele>
        <time>2025-01-04T11:17:44.358Z</time>
      </trkpt>
      <trkpt lat="48.37145" lon="5.17789">
        <ele>217.91</ele>
        <time>2025-01-04T11:17:45.257Z</time>
      </trkpt>
      <trkpt lat="48.37161" lon="5.17755">
        <ele>218.64</ele>
        <time>2025-01-04T11:17:46.161Z</time>
      </trkpt>
      <trkpt lat="48.37176" lon="5.17721">
        <ele>219.39</ele>
        <time>2025-01-04T11:17:47.069Z</time>
      </trkpt>
      <trkpt lat="48.37192" lon="5.17687">
        <ele>220.1</ele>
        <time>2025-01-04T11:17:47.982Z</time>
      </trkpt>
      <trkpt lat="48.37207" lon="5.17653">
        <ele>220.77</ele>
        <time>2025-01-04T11:17:48.899Z</time>
      </trkpt>
      <trkpt lat="48.37222" lon="5.17619">
        <ele>221.44</ele>
        <time>2025-01-04T11:17:49.820Z</time>
      </trkpt>
      <trkpt lat="48.37236" lon="5.17595">
        <ele>222.05</ele>
        <time>2025-01-04T11:17:50.745Z</time>
      </trkpt>
      <trkpt lat="48.3725" lon="5.17572">
        <ele>222.59</ele>
        <time>2025-01-04T11:17:51.673Z</time>
      </trkpt>
      <trkpt lat="48.37274" lon="5.17553">
        <ele>223.23</ele>
        <time>2025-01-04T11:17:52.605Z</time>
      </trkpt>
      <trkpt lat="48.37297" lon="5.1754">
        <ele>223.78</ele>
        <time>2025-01-04T11:17:53.541Z</time>
      </trkpt>
      <trkpt lat="48.37321" lon="5.17527">
        <ele>224.37</ele>
        <time>2025-01-04T11:17:54.481Z</time>
      </trkpt>
      <trkpt lat="48.37346" lon="5.17517">
        <ele>224.97</ele>
        <time>2025-01-04T11:17:55.426Z</time>
      </trkpt>
      <trkpt lat="48.37372" lon="5.17506">
        <ele>225.5</ele>
        <time>2025-01-04T11:17:56.375Z</time>
      </trkpt>
      <trkpt lat="48.37397" lon="5.17496">
        <ele>225.91</ele>
        <time>2025-01-04T11:17:57.328Z</time>
      </trkpt>
      <trkpt lat="48.37422" lon="5.17486">
        <ele>226.19</ele>
        <time>2025-01-04T11:17:58.285Z</time>
      </trkpt>
      <trkpt lat="48.37448" lon="5.17475">
        <ele>226.42</ele>
        <time>2025-01-04T11:17:59.246Z</time>
      </trkpt>
      <trkpt lat="48.37472" lon="5.17462">
        <ele>226.66</ele>
        <time>2025-01-04T11:18:00.211Z</time>
      </trkpt>
      <trkpt lat="48.37496" lon="5.17449">
        <ele>226.93</ele>
        <time>2025-01-04T11:18:01.181Z</time>
      </trkpt>
      <trkpt lat="48.3752" lon="5.17435">
        <ele>227.2</ele>
        <time>2025-01-04T11:18:02.155Z</time>
      </trkpt>
      <trkpt lat="48.37544" lon="5.17422">
        <ele>227.39</ele>
        <time>2025-01-04T11:18:03.133Z</time>
      </trkpt>
      <trkpt lat="48.37568" lon="5.17409">
        <ele>227.52</ele>
        <time>2025-01-04T11:18:04.115Z</time>
      </trkpt>
      <trkpt lat="48.37594" lon="5.17401">
        <ele>227.66</ele>
        <time>2025-01-04T11:18:05.101Z</time>
      </trkpt>
      <trkpt lat="48.3762" lon="5.17394">
        <ele>227.71</ele>
        <time>2025-01-04T11:18:06.091Z</time>
      </trkpt>
      <trkpt lat="48.37647" lon="5.17386">
        <ele>227.63</ele>
        <time>2025-01-04T11:18:07.086Z</time>
      </trkpt>
      <trkpt lat="48.37673" lon="5.17379">
        <ele>227.53</ele>
        <time>2025-01-04T11:18:08.085Z</time>
      </trkpt>
      <trkpt lat="48.37673" lon="5.17379">
        <ele>227.42</ele>
        <time>2025-01-04T11:18:09.084Z</time>
      </trkpt>
      <trkpt lat="48.37701" lon="5.17372">
        <ele>227.24</ele>
        <time>2025-01-04T11:18:10.087Z</time>
      </trkpt>
      <trkpt lat="48.37729" lon="5.17366">
        <ele>227.03</ele>
        <time>2025-01-04T11:18:11.095Z</time>
      </trkpt>
      <trkpt lat="48.37747" lon="5.17365">
        <ele>226.8</ele>
        <time>2025-01-04T11:18:12.106Z</time>
      </trkpt>
      <trkpt lat="48.37765" lon="5.17364">
        <ele>226.53</ele>
        <time>2025-01-04T11:18:13.120Z</time>
      </trkpt>
      <trkpt lat="48.37791" lon="5.17367">
        <ele>226.25</ele>
        <time>2025-01-04T11:18:14.138Z</time>
      </trkpt>
      <trkpt lat="48.37818" lon="5.1737">
        <ele>225.97</ele>
        <time>2025-01-04T11:18:15.160Z</time>
      </trkpt>
      <trkpt lat="48.37844" lon="5.17373">
        <ele>225.72</ele>
        <time>2025-01-04T11:18:16.186Z</time>
      </trkpt>
      <trkpt lat="48.3787" lon="5.17376">
        <ele>225.46</ele>
        <time>2025-01-04T11:18:17.217Z</time>
      </trkpt>
      <trkpt lat="48.37896" lon="5.17379">
        <ele>225.16</ele>
        <time>2025-01-04T11:18:18.252Z</time>
      </trkpt>
      <trkpt lat="48.37923" lon="5.17384">
        <ele>224.84</ele>
        <time>2025-01-04T11:18:19.291Z</time>
      </trkpt>
      <trkpt lat="48.3795" lon="5.1739">
        <ele>224.57</ele>
        <time>2025-01-04T11:18:20.335Z</time>
      </trkpt>
      <trkpt lat="48.37977" lon="5.17395">
        <ele>224.28</ele>
        <time>2025-01-04T11:18:21.383Z</time>
      </trkpt>
      <trkpt lat="48.38003" lon="5.174">
        <ele>223.99</ele>
        <time>2025-01-04T11:18:22.435Z</time>
      </trkpt>
      <trkpt lat="48.3803" lon="5.17406">
        <ele>223.72</ele>
        <time>2025-01-04T11:18:23.492Z</time>
      </trkpt>
      <trkpt lat="48.38057" lon="5.17411">
        <ele>223.43</ele>
        <time>2025-01-04T11:18:24.553Z</time>
      </trkpt>
      <trkpt lat="48.38083" lon="5.1742">
        <ele>223.16</ele>
        <time>2025-01-04T11:18:25.618Z</time>
      </trkpt>
      <trkpt lat="48.38109" lon="5.17428">
        <ele>222.87</ele>
        <time>2025-01-04T11:18:26.687Z</time>
      </trkpt>
      <trkpt lat="48.38136" lon="5.17442">
        <ele>222.61</ele>
        <time>2025-01-04T11:18:27.761Z</time>
      </trkpt>
      <trkpt lat="48.38164" lon="5.17455">
        <ele>222.37</ele>
        <time>2025-01-04T11:18:28.840Z</time>
      </trkpt>
      <trkpt lat="48.38192" lon="5.17469">
        <ele>222.31</ele>
        <time>2025-01-04T11:18:29.923Z</time>
      </trkpt>
      <trkpt lat="48.38214" lon="5.17472">
        <ele>222.25</ele>
        <time>2025-01-04T11:18:31.010Z</time>
      </trkpt>
      <trkpt lat="48.38237" lon="5.17475">
        <ele>222.21</ele>
        <time>2025-01-04T11:18:32.101Z</time>
      </trkpt>
      <trkpt lat="48.38259" lon="5.17478">
        <ele>222.2</ele>
        <time>2025-01-04T11:18:33.195Z</time>
      </trkpt>
      <trkpt lat="48.38284" lon="5.17481">
        <ele>222.21</ele>
        <time>2025-01-04T11:18:34.293Z</time>
      </trkpt>
      <trkpt lat="48.3831" lon="5.17484">
        <ele>222.22</ele>
        <time>2025-01-04T11:18:35.395Z</time>
      </trkpt>
      <trkpt lat="48.3834" lon="5.17492">
        <ele>222.27</ele>
        <time>2025-01-04T11:18:36.502Z</time>
      </trkpt>
      <trkpt lat="48.38369" lon="5.175">
        <ele>222.34</ele>
        <time>2025-01-04T11:18:37.614Z</time>
      </trkpt>
      <trkpt lat="48.38398" lon="5.17508">
        <ele>222.37</ele>
        <time>2025-01-04T11:18:38.731Z</time>
      </trkpt>
      <trkpt lat="48.38428" lon="5.17515">
        <ele>222.41</ele>
        <time>2025-01-04T11:18:39.852Z</time>
      </trkpt>
      <trkpt lat="48.38457" lon="5.17523">
        <ele>222.49</ele>
        <time>2025-01-04T11:18:40.978Z</time>
      </trkpt>
      <trkpt lat="48.38486" lon="5.17531">
        <ele>222.53</ele>
        <time>2025-01-04T11:18:42.109Z</time>
      </trkpt>
      <trkpt lat="48.38513" lon="5.17536">
        <ele>222.53</ele>
        <time>2025-01-04T11:18:43.244Z</time>
      </trkpt>
      <trkpt lat="48.3854" lon="5.17541">
        <ele>222.6</ele>
        <time>2025-01-04T11:18:44.384Z</time>
      </trkpt>
      <trkpt lat="48.38567" lon="5.17545">
        <ele>222.7</ele>
        <time>2025-01-04T11:18:45.528Z</time>
      </trkpt>
      <trkpt lat="48.38594" lon="5.1755">
        <ele>222.8</ele>
        <time>2025-01-04T11:18:46.676Z</time>
      </trkpt>
      <trkpt lat="48.38621" lon="5.17555">
        <ele>222.89</ele>
        <time>2025-01-04T11:18:47.829Z</time>
      </trkpt>
      <trkpt lat="48.38621" lon="5.17555">
        <ele>223.01</ele>
        <time>2025-01-04T11:18:48.982Z</time>
      </trkpt>
      <trkpt lat="48.38651" lon="5.17564">
        <ele>223.13</ele>
        <time>2025-01-04T11:18:50.140Z</time>
      </trkpt>
      <trkpt lat="48.3868" lon="5.17573">
        <ele>223.28</ele>
        <time>2025-01-04T11:18:51.302Z</time>
      </trkpt>
      <trkpt lat="48.38709" lon="5.17583">
        <ele>223.41</ele>
        <time>2025-01-04T11:18:52.469Z</time>
      </trkpt>
      <trkpt lat="48.38737" lon="5.17593">
        <ele>223.52</ele>
        <time>2025-01-04T11:18:53.641Z</time>
      </trkpt>
      <trkpt lat="48.38765" lon="5.17604">
        <ele>223.75</ele>
        <time>2025-01-04T11:18:54.817Z</time>
      </trkpt>
      <trkpt lat="48.38792" lon="5.17621">
        <ele>223.98</ele>
        <time>2025-01-04T11:18:55.998Z</time>
      </trkpt>
      <trkpt lat="48.38818" lon="5.17638">
        <ele>224.2</ele>
        <time>2025-01-04T11:18:57.184Z</time>
      </trkpt>
      <trkpt lat="48.38845" lon="5.17656">
        <ele>224.43</ele>
        <time>2025-01-04T11:18:58.374Z</time>
      </trkpt>
      <trkpt lat="48.3886" lon="5.17664">
        <ele>224.7</ele>
        <time>2025-01-04T11:18:59.567Z</time>
      </trkpt>
      <trkpt lat="48.38875" lon="5.17673">
        <ele>224.98</ele>
        <time>2025-01-04T11:19:00.762Z</time>
      </trkpt>
      <trkpt lat="48.38899" lon="5.17678">
        <ele>225.29</ele>
        <time>2025-01-04T11:19:01.961Z</time>
      </trkpt>
      <trkpt lat="48.38923" lon="5.17683">
        <ele>225.65</ele>
        <time>2025-01-04T11:19:03.164Z</time>
      </trkpt>
      <trkpt lat="48.38948" lon="5.17688">
        <ele>226.05</ele>
        <time>2025-01-04T11:19:04.371Z</time>
      </trkpt>
      <trkpt lat="48.38975" lon="5.17691">
        <ele>226.42</ele>
        <time>2025-01-04T11:19:05.583Z</time>
      </trkpt>
      <trkpt lat="48.39002" lon="5.17694">
        <ele>226.78</ele>
        <time>2025-01-04T11:19:06.799Z</time>
      </trkpt>
      <trkpt lat="48.39029" lon="5.17697">
        <ele>227.19</ele>
        <time>2025-01-04T11:19:08.019Z</time>
      </trkpt>
      <trkpt lat="48.39056" lon="5.17701">
        <ele>227.63</ele>
        <time>2025-01-04T11:19:09.244Z</time>
      </trkpt>
      <trkpt lat="48.39083" lon="5.17704">
        <ele>228.11</ele>
        <time>2025-01-04T11:19:10.473Z</time>
      </trkpt>
      <trkpt lat="48.39111" lon="5.17707">
        <ele>228.57</ele>
        <time>2025-01-04T11:19:11.706Z</time>
      </trkpt>
      <trkpt lat="48.39135" lon="5.17712">
        <ele>228.99</ele>
        <time>2025-01-04T11:19:12.943Z</time>
      </trkpt>
      <trkpt lat="48.39159" lon="5.17717">
        <ele>229.45</ele>
        <time>2025-01-04T11:19:14.184Z</time>
      </trkpt>
      <trkpt lat="48.39184" lon="5.17722">
        <ele>229.85</ele>
        <time>2025-01-04T11:19:15.429Z</time>
      </trkpt>
      <trkpt lat="48.39214" lon="5.17734">
        <ele>230.24</ele>
        <time>2025-01-04T11:19:16.679Z</time>
      </trkpt>
      <trkpt lat="48.39244" lon="5.17746">
        <ele>230.66</ele>
        <time>2025-01-04T11:19:17.934Z</time>
      </trkpt>
      <trkpt lat="48.39275" lon="5.17759">
        <ele>230.99</ele>
        <time>2025-01-04T11:19:19.194Z</time>
      </trkpt>
      <trkpt lat="48.39305" lon="5.17771">
        <ele>231.27</ele>
        <time>2025-01-04T11:19:20.459Z</time>
      </trkpt>
      <trkpt lat="48.39336" lon="5.17783">
        <ele>231.46</ele>
        <time>2025-01-04T11:19:21.729Z</time>
      </trkpt>
      <trkpt lat="48.39366" lon="5.17795">
        <ele>231.6</ele>
        <time>2025-01-04T11:19:23.004Z</time>
      </trkpt>
      <trkpt lat="48.39396" lon="5.17805">
        <ele>231.69</ele>
        <time>2025-01-04T11:19:24.284Z</time>
      </trkpt>
      <trkpt lat="48.39426" lon="5.17815">
        <ele>231.7</ele>
        <time>2025-01-04T11:19:25.569Z</time>
      </trkpt>
      <trkpt lat="48.39456" lon="5.17825">
        <ele>231.65</ele>
        <time>2025-01-04T11:19:26.859Z</time>
      </trkpt>
      <trkpt lat="48.39481" lon="5.17837">
        <ele>231.57</ele>
        <time>2025-01-04T11:19:28.153Z</time>
      </trkpt>
      <trkpt lat="48.39506" lon="5.17848">
        <ele>231.44</ele>
        <time>2025-01-04T11:19:29.452Z</time>
      </trkpt>
      <trkpt lat="48.39531" lon="5.1786">
        <ele>231.27</ele>
        <time>2025-01-04T11:19:30.755Z</time>
      </trkpt>
      <trkpt lat="48.39556" lon="5.17871">
        <ele>231.07</ele>
        <time>2025-01-04T11:19:32.062Z</time>
      </trkpt>
      <trkpt lat="48.39581" lon="5.17883">
        <ele>230.78</ele>
        <time>2025-01-04T11:19:33.373Z</time>
      </trkpt>
      <trkpt lat="48.39608" lon="5.17899">
        <ele>230.43</ele>
        <time>2025-01-04T11:19:34.689Z</time>
      </trkpt>
      <trkpt lat="48.39636" lon="5.17915">
        <ele>230.1</ele>
        <time>2025-01-04T11:19:36.010Z</time>
      </trkpt>
      <trkpt lat="48.39664" lon="5.1793">
        <ele>229.73</ele>
        <time>2025-01-04T11:19:37.335Z</time>
      </trkpt>
      <trkpt lat="48.39684" lon="5.17937">
        <ele>229.25</ele>
        <time>2025-01-04T11:19:38.664Z</time>
      </trkpt>
      <trkpt lat="48.39714" lon="5.1793">
        <ele>228.66</ele>
        <time>2025-01-04T11:19:39.997Z</time>
      </trkpt>
      <trkpt lat="48.39739" lon="5.17918">
        <ele>228.06</ele>
        <time>2025-01-04T11:19:41.335Z</time>
      </trkpt>
      <trkpt lat="48.39764" lon="5.17906">
        <ele>227.41</ele>
        <time>2025-01-04T11:19:42.677Z</time>
      </trkpt>
      <trkpt lat="48.39789" lon="5.17893">
        <ele>226.7</ele>
        <time>2025-01-04T11:19:44.023Z</time>
      </trkpt>
      <trkpt lat="48.39814" lon="5.17881">
        <ele>225.96</ele>
        <time>2025-01-04T11:19:45.373Z</time>
      </trkpt>
      <trkpt lat="48.39832" lon="5.17879">
        <ele>225.22</ele>
        <time>2025-01-04T11:19:46.726Z</time>
      </trkpt>
      <trkpt lat="48.39849" lon="5.17889">
        <ele>224.41</ele>
        <time>2025-01-04T11:19:48.082Z</time>
      </trkpt>
      <trkpt lat="48.39857" lon="5.17913">
        <ele>223.63</ele>
        <time>2025-01-04T11:19:49.441Z</time>
      </trkpt>
      <trkpt lat="48.39862" lon="5.17932">
        <ele>222.86</ele>
        <time>2025-01-04T11:19:50.802Z</time>
      </trkpt>
      <trkpt lat="48.39868" lon="5.17888">
        <ele>222.08</ele>
        <time>2025-01-04T11:19:52.168Z</time>
      </trkpt>
      <trkpt lat="48.39875" lon="5.17844">
        <ele>221.23</ele>
        <time>2025-01-04T11:19:53.539Z</time>
      </trkpt>
      <trkpt lat="48.39885" lon="5.17825">
        <ele>220.41</ele>
        <time>2025-01-04T11:19:54.912Z</time>
      </trkpt>
      <trkpt lat="48.39909" lon="5.17797">
        <ele>219.48</ele>
        <time>2025-01-04T11:19:56.290Z</time>
      </trkpt>
      <trkpt lat="48.39926" lon="5.17778">
        <ele>218.65</ele>
        <time>2025-01-04T11:19:57.672Z</time>
      </trkpt>
      <trkpt lat="48.39954" lon="5.17756">
        <ele>217.85</ele>
        <time>2025-01-04T11:19:59.059Z</time>
      </trkpt>
      <trkpt lat="48.39977" lon="5.17748">
        <ele>217.18</ele>
        <time>2025-01-04T11:20:00.449Z</time>
      </trkpt>
      <trkpt lat="48.4" lon="5.17739">
        <ele>216.56</ele>
        <time>2025-01-04T11:20:01.843Z</time>
      </trkpt>
      <trkpt lat="48.40023" lon="5.17731">
        <ele>215.98</ele>
        <time>2025-01-04T11:20:03.241Z</time>
      </trkpt>
      <trkpt lat="48.40017" lon="5.17696">
        <ele>215.23</ele>
        <time>2025-01-04T11:20:04.643Z</time>
      </trkpt>
      <trkpt lat="48.40011" lon="5.1766">
        <ele>214.53</ele>
        <time>2025-01-04T11:20:06.049Z</time>
      </trkpt>
      <trkpt lat="48.40005" lon="5.17626">
        <ele>213.84</ele>
        <time>2025-01-04T11:20:07.459Z</time>
      </trkpt>
      <trkpt lat="48.40005" lon="5.17615">
        <ele>213.16</ele>
        <time>2025-01-04T11:20:08.870Z</time>
      </trkpt>
      <trkpt lat="48.40005" lon="5.17577">
        <ele>212.49</ele>
        <time>2025-01-04T11:20:10.285Z</time>
      </trkpt>
      <trkpt lat="48.40004" lon="5.17539">
        <ele>211.83</ele>
        <time>2025-01-04T11:20:11.704Z</time>
      </trkpt>
      <trkpt lat="48.40003" lon="5.17501">
        <ele>211.11</ele>
        <time>2025-01-04T11:20:13.127Z</time>
      </trkpt>
      <trkpt lat="48.40007" lon="5.17463">
        <ele>210.37</ele>
        <time>2025-01-04T11:20:14.554Z</time>
      </trkpt>
      <trkpt lat="48.4001" lon="5.17425">
        <ele>209.64</ele>
        <time>2025-01-04T11:20:15.985Z</time>
      </trkpt>
      <trkpt lat="48.40014" lon="5.17388">
        <ele>208.87</ele>
        <time>2025-01-04T11:20:17.420Z</time>
      </trkpt>
      <trkpt lat="48.40017" lon="5.1735">
        <ele>208.08</ele>
        <time>2025-01-04T11:20:18.859Z</time>
      </trkpt>
      <trkpt lat="48.4002" lon="5.17312">
        <ele>207.26</ele>
        <time>2025-01-04T11:20:20.302Z</time>
      </trkpt>
      <trkpt lat="48.40025" lon="5.17274">
        <ele>206.49</ele>
        <time>2025-01-04T11:20:21.749Z</time>
      </trkpt>
      <trkpt lat="48.40029" lon="5.17232">
        <ele>205.74</ele>
        <time>2025-01-04T11:20:23.201Z</time>
      </trkpt>
      <trkpt lat="48.40033" lon="5.17191">
        <ele>205</ele>
        <time>2025-01-04T11:20:24.657Z</time>
      </trkpt>
      <trkpt lat="48.40037" lon="5.1715">
        <ele>204.25</ele>
        <time>2025-01-04T11:20:26.118Z</time>
      </trkpt>
      <trkpt lat="48.4004" lon="5.17109">
        <ele>203.46</ele>
        <time>2025-01-04T11:20:27.583Z</time>
      </trkpt>
      <trkpt lat="48.40044" lon="5.17067">
        <ele>202.64</ele>
        <time>2025-01-04T11:20:29.053Z</time>
      </trkpt>
      <trkpt lat="48.40048" lon="5.17027">
        <ele>201.87</ele>
        <time>2025-01-04T11:20:30.527Z</time>
      </trkpt>
      <trkpt lat="48.40052" lon="5.16994">
        <ele>201.09</ele>
        <time>2025-01-04T11:20:32.004Z</time>
      </trkpt>
      <trkpt lat="48.40055" lon="5.16961">
        <ele>200.35</ele>
        <time>2025-01-04T11:20:33.485Z</time>
      </trkpt>
      <trkpt lat="48.40058" lon="5.16928">
        <ele>199.59</ele>
        <time>2025-01-04T11:20:34.970Z</time>
      </trkpt>
      <trkpt lat="48.40057" lon="5.16928">
        <ele>198.9</ele>
        <time>2025-01-04T11:20:36.455Z</time>
      </trkpt>
      <trkpt lat="48.40061" lon="5.16886">
        <ele>198.2</ele>
        <time>2025-01-04T11:20:37.944Z</time>
      </trkpt>
      <trkpt lat="48.40065" lon="5.16842">
        <ele>197.43</ele>
        <time>2025-01-04T11:20:39.438Z</time>
      </trkpt>
      <trkpt lat="48.40069" lon="5.16798">
        <ele>196.73</ele>
        <time>2025-01-04T11:20:40.937Z</time>
      </trkpt>
      <trkpt lat="48.40074" lon="5.16755">
        <ele>196.04</ele>
        <time>2025-01-04T11:20:42.440Z</time>
      </trkpt>
      <trkpt lat="48.40079" lon="5.16711">
        <ele>195.5</ele>
        <time>2025-01-04T11:20:43.948Z</time>
      </trkpt>
      <trkpt lat="48.4008" lon="5.16699">
        <ele>194.93</ele>
        <time>2025-01-04T11:20:45.457Z</time>
      </trkpt>
      <trkpt lat="48.40083" lon="5.1667">
        <ele>194.41</ele>
        <time>2025-01-04T11:20:46.970Z</time>
      </trkpt>
      <trkpt lat="48.40086" lon="5.16641">
        <ele>193.91</ele>
        <time>2025-01-04T11:20:48.486Z</time>
      </trkpt>
      <trkpt lat="48.40088" lon="5.1662">
        <ele>193.45</ele>
        <time>2025-01-04T11:20:50.004Z</time>
      </trkpt>
      <trkpt lat="48.40091" lon="5.16591">
        <ele>193.01</ele>
        <time>2025-01-04T11:20:51.525Z</time>
      </trkpt>
      <trkpt lat="48.40095" lon="5.16562">
        <ele>192.6</ele>
        <time>2025-01-04T11:20:53.049Z</time>
      </trkpt>
      <trkpt lat="48.40098" lon="5.1653">
        <ele>192.25</ele>
        <time>2025-01-04T11:20:54.577Z</time>
      </trkpt>
      <trkpt lat="48.40101" lon="5.16498">
        <ele>191.96</ele>
        <time>2025-01-04T11:20:56.108Z</time>
      </trkpt>
      <trkpt lat="48.40102" lon="5.16469">
        <ele>191.71</ele>
        <time>2025-01-04T11:20:57.642Z</time>
      </trkpt>
      <trkpt lat="48.40104" lon="5.16441">
        <ele>191.47</ele>
        <time>2025-01-04T11:20:59.179Z</time>
      </trkpt>
      <trkpt lat="48.40102" lon="5.164">
        <ele>191.22</ele>
        <time>2025-01-04T11:21:00.721Z</time>
      </trkpt>
      <trkpt lat="48.401" lon="5.16359">
        <ele>191.04</ele>
        <time>2025-01-04T11:21:02.267Z</time>
      </trkpt>
      <trkpt lat="48.401" lon="5.16347">
        <ele>190.92</ele>
        <time>2025-01-04T11:21:03.814Z</time>
      </trkpt>
      <trkpt lat="48.40098" lon="5.16304">
        <ele>190.8</ele>
        <time>2025-01-04T11:21:05.366Z</time>
      </trkpt>
      <trkpt lat="48.40097" lon="5.16261">
        <ele>190.74</ele>
        <time>2025-01-04T11:21:06.922Z</time>
      </trkpt>
      <trkpt lat="48.40096" lon="5.16218">
        <ele>190.79</ele>
        <time>2025-01-04T11:21:08.483Z</time>
      </trkpt>
      <trkpt lat="48.40094" lon="5.16175">
        <ele>190.89</ele>
        <time>2025-01-04T11:21:10.049Z</time>
      </trkpt>
      <trkpt lat="48.40094" lon="5.16163">
        <ele>190.98</ele>
        <time>2025-01-04T11:21:11.616Z</time>
      </trkpt>
      <trkpt lat="48.40092" lon="5.1612">
        <ele>191.07</ele>
        <time>2025-01-04T11:21:13.188Z</time>
      </trkpt>
      <trkpt lat="48.40091" lon="5.16077">
        <ele>191.21</ele>
        <time>2025-01-04T11:21:14.764Z</time>
      </trkpt>
      <trkpt lat="48.4009" lon="5.16052">
        <ele>191.39</ele>
        <time>2025-01-04T11:21:16.343Z</time>
      </trkpt>
      <trkpt lat="48.40089" lon="5.16011">
        <ele>191.63</ele>
        <time>2025-01-04T11:21:17.926Z</time>
      </trkpt>
      <trkpt lat="48.40088" lon="5.15969">
        <ele>191.87</ele>
        <time>2025-01-04T11:21:19.514Z</time>
      </trkpt>
      <trkpt lat="48.40086" lon="5.15929">
        <ele>192.16</ele>
        <time>2025-01-04T11:21:21.106Z</time>
      </trkpt>
      <trkpt lat="48.40085" lon="5.15888">
        <ele>192.47</ele>
        <time>2025-01-04T11:21:22.702Z</time>
      </trkpt>
      <trkpt lat="48.40084" lon="5.15853">
        <ele>192.71</ele>
        <time>2025-01-04T11:21:24.302Z</time>
      </trkpt>
      <trkpt lat="48.40083" lon="5.15807">
        <ele>192.97</ele>
        <time>2025-01-04T11:21:25.907Z</time>
      </trkpt>
      <trkpt lat="48.40081" lon="5.15761">
        <ele>193.27</ele>
        <time>2025-01-04T11:21:27.517Z</time>
      </trkpt>
      <trkpt lat="48.40081" lon="5.1575">
        <ele>193.59</ele>
        <time>2025-01-04T11:21:29.128Z</time>
      </trkpt>
      <trkpt lat="48.40079" lon="5.15708">
        <ele>193.92</ele>
        <time>2025-01-04T11:21:30.744Z</time>
      </trkpt>
      <trkpt lat="48.40078" lon="5.15666">
        <ele>194.3</ele>
        <time>2025-01-04T11:21:32.364Z</time>
      </trkpt>
      <trkpt lat="48.40077" lon="5.15633">
        <ele>194.67</ele>
        <time>2025-01-04T11:21:33.988Z</time>
      </trkpt>
      <trkpt lat="48.40075" lon="5.15599">
        <ele>195.01</ele>
        <time>2025-01-04T11:21:35.615Z</time>
      </trkpt>
      <trkpt lat="48.40074" lon="5.15562">
        <ele>195.32</ele>
        <time>2025-01-04T11:21:37.246Z</time>
      </trkpt>
      <trkpt lat="48.40073" lon="5.15524">
        <ele>195.65</ele>
        <time>2025-01-04T11:21:38.881Z</time>
      </trkpt>
      <trkpt lat="48.40072" lon="5.15484">
        <ele>196.04</ele>
        <time>2025-01-04T11:21:40.520Z</time>
      </trkpt>
      <trkpt lat="48.40072" lon="5.15474">
        <ele>196.34</ele>
        <time>2025-01-04T11:21:42.161Z</time>
      </trkpt>
      <trkpt lat="48.40071" lon="5.15438">
        <ele>196.57</ele>
        <time>2025-01-04T11:21:43.805Z</time>
      </trkpt>
      <trkpt lat="48.4007" lon="5.15409">
        <ele>196.8</ele>
        <time>2025-01-04T11:21:45.452Z</time>
      </trkpt>
      <trkpt lat="48.40069" lon="5.15379">
        <ele>196.98</ele>
        <time>2025-01-04T11:21:47.103Z</time>
      </trkpt>
      <trkpt lat="48.40068" lon="5.15335">
        <ele>197.28</ele>
        <time>2025-01-04T11:21:48.758Z</time>
      </trkpt>
      <trkpt lat="48.4008" lon="5.15301">
        <ele>197.71</ele>
        <time>2025-01-04T11:21:50.417Z</time>
      </trkpt>
      <trkpt lat="48.40086" lon="5.15302">
        <ele>197.88</ele>
        <time>2025-01-04T11:21:52.077Z</time>
      </trkpt>
      <trkpt lat="48.40094" lon="5.15303">
        <ele>198.03</ele>
        <time>2025-01-04T11:21:53.739Z</time>
      </trkpt>
      <trkpt lat="48.40116" lon="5.15306">
        <ele>198.14</ele>
        <time>2025-01-04T11:21:55.404Z</time>
      </trkpt>
      <trkpt lat="48.40138" lon="5.15312">
        <ele>198.16</ele>
        <time>2025-01-04T11:21:57.073Z</time>
      </trkpt>
      <trkpt lat="48.40159" lon="5.15318">
        <ele>198.12</ele>
        <time>2025-01-04T11:21:58.745Z</time>
      </trkpt>
      <trkpt lat="48.4017" lon="5.15328">
        <ele>198.05</ele>
        <time>2025-01-04T11:22:00.419Z</time>
      </trkpt>
      <trkpt lat="48.40182" lon="5.15339">
        <ele>198</ele>
        <time>2025-01-04T11:22:02.096Z</time>
      </trkpt>
      <trkpt lat="48.40197" lon="5.15356">
        <ele>197.91</ele>
        <time>2025-01-04T11:22:03.775Z</time>
      </trkpt>
      <trkpt lat="48.40211" lon="5.15373">
        <ele>197.83</ele>
        <time>2025-01-04T11:22:05.457Z</time>
      </trkpt>
      <trkpt lat="48.40216" lon="5.1538">
        <ele>197.76</ele>
        <time>2025-01-04T11:22:07.141Z</time>
      </trkpt>
      <trkpt lat="48.40233" lon="5.154">
        <ele>197.68</ele>
        <time>2025-01-04T11:22:08.828Z</time>
      </trkpt>
      <trkpt lat="48.40247" lon="5.15416">
        <ele>197.61</ele>
        <time>2025-01-04T11:22:10.518Z</time>
      </trkpt>
      <trkpt lat="48.4026" lon="5.15433">
        <ele>197.54</ele>
        <time>2025-01-04T11:22:12.211Z</time>
      </trkpt>
      <trkpt lat="48.40274" lon="5.15448">
        <ele>197.46</ele>
        <time>2025-01-04T11:22:13.906Z</time>
      </trkpt>
      <trkpt lat="48.40287" lon="5.15462">
        <ele>197.4</ele>
        <time>2025-01-04T11:22:15.604Z</time>
      </trkpt>
      <trkpt lat="48.40316" lon="5.15476">
        <ele>197.29</ele>
        <time>2025-01-04T11:22:17.307Z</time>
      </trkpt>
      <trkpt lat="48.4034" lon="5.15481">
        <ele>197.15</ele>
        <time>2025-01-04T11:22:19.014Z</time>
      </trkpt>
      <trkpt lat="48.40364" lon="5.15485">
        <ele>197.01</ele>
        <time>2025-01-04T11:22:20.725Z</time>
      </trkpt>
      <trkpt lat="48.40387" lon="5.15488">
        <ele>196.83</ele>
        <time>2025-01-04T11:22:22.439Z</time>
      </trkpt>
      <trkpt lat="48.40398" lon="5.15487">
        <ele>196.7</ele>
        <time>2025-01-04T11:22:24.155Z</time>
      </trkpt>
      <trkpt lat="48.40419" lon="5.15485">
        <ele>196.57</ele>
        <time>2025-01-04T11:22:25.874Z</time>
      </trkpt>
      <trkpt lat="48.4044" lon="5.15477">
        <ele>196.44</ele>
        <time>2025-01-04T11:22:27.597Z</time>
      </trkpt>
      <trkpt lat="48.40462" lon="5.1547">
        <ele>196.32</ele>
        <time>2025-01-04T11:22:29.323Z</time>
      </trkpt>
      <trkpt lat="48.40477" lon="5.1546">
        <ele>196.2</ele>
        <time>2025-01-04T11:22:31.052Z</time>
      </trkpt>
      <trkpt lat="48.40492" lon="5.15451">
        <ele>196.08</ele>
        <time>2025-01-04T11:22:32.784Z</time>
      </trkpt>
      <trkpt lat="48.40501" lon="5.15445">
        <ele>195.98</ele>
        <time>2025-01-04T11:22:34.517Z</time>
      </trkpt>
      <trkpt lat="48.40517" lon="5.15433">
        <ele>195.87</ele>
        <time>2025-01-04T11:22:36.253Z</time>
      </trkpt>
      <trkpt lat="48.40525" lon="5.15428">
        <ele>195.77</ele>
        <time>2025-01-04T11:22:37.990Z</time>
      </trkpt>
      <trkpt lat="48.40524" lon="5.15424">
        <ele>195.68</ele>
        <time>2025-01-04T11:22:39.728Z</time>
      </trkpt>
      <trkpt lat="48.40518" lon="5.15393">
        <ele>195.55</ele>
        <time>2025-01-04T11:22:41.469Z</time>
      </trkpt>
      <trkpt lat="48.40512" lon="5.15351">
        <ele>195.51</ele>
        <time>2025-01-04T11:22:43.215Z</time>
      </trkpt>
      <trkpt lat="48.40506" lon="5.15328">
        <ele>195.5</ele>
        <time>2025-01-04T11:22:44.963Z</time>
      </trkpt>
      <trkpt lat="48.405" lon="5.15315">
        <ele>195.46</ele>
        <time>2025-01-04T11:22:46.713Z</time>
      </trkpt>
      <trkpt lat="48.4049" lon="5.15293">
        <ele>195.42</ele>
        <time>2025-01-04T11:22:48.466Z</time>
      </trkpt>
      <trkpt lat="48.4048" lon="5.15269">
        <ele>195.42</ele>
        <time>2025-01-04T11:22:50.222Z</time>
      </trkpt>
      <trkpt lat="48.40467" lon="5.1524">
        <ele>195.44</ele>
        <time>2025-01-04T11:22:51.982Z</time>
      </trkpt>
      <trkpt lat="48.40462" lon="5.15228">
        <ele>195.44</ele>
        <time>2025-01-04T11:22:53.743Z</time>
      </trkpt>
      <trkpt lat="48.40459" lon="5.15221">
        <ele>195.44</ele>
        <time>2025-01-04T11:22:55.505Z</time>
      </trkpt>
      <trkpt lat="48.40455" lon="5.15213">
        <ele>195.46</ele>
        <time>2025-01-04T11:22:57.268Z</time>
      </trkpt>
      <trkpt lat="48.40454" lon="5.15209">
        <ele>195.48</ele>
        <time>2025-01-04T11:22:59.032Z</time>
      </trkpt>
      <trkpt lat="48.40444" lon="5.15203">
        <ele>195.52</ele>
        <time>2025-01-04T11:23:00.797Z</time>
      </trkpt>
      <trkpt lat="48.4043" lon="5.15195">
        <ele>195.56</ele>
        <time>2025-01-04T11:23:02.565Z</time>
      </trkpt>
      <trkpt lat="48.40417" lon="5.15187">
        <ele>195.62</ele>
        <time>2025-01-04T11:23:04.335Z</time>
      </trkpt>
      <trkpt lat="48.40404" lon="5.15175">
        <ele>195.69</ele>
        <time>2025-01-04T11:23:06.107Z</time>
      </trkpt>
      <trkpt lat="48.40399" lon="5.15149">
        <ele>195.76</ele>
        <time>2025-01-04T11:23:07.882Z</time>
      </trkpt>
      <trkpt lat="48.40394" lon="5.15123">
        <ele>195.82</ele>
        <time>2025-01-04T11:23:09.660Z</time>
      </trkpt>
      <trkpt lat="48.4039" lon="5.15098">
        <ele>195.94</ele>
        <time>2025-01-04T11:23:11.441Z</time>
      </trkpt>
      <trkpt lat="48.40386" lon="5.15075">
        <ele>196.11</ele>
        <time>2025-01-04T11:23:13.224Z</time>
      </trkpt>
      <trkpt lat="48.40381" lon="5.15051">
        <ele>196.27</ele>
        <time>2025-01-04T11:23:15.010Z</time>
      </trkpt>
      <trkpt lat="48.40376" lon="5.1501">
        <ele>196.49</ele>
        <time>2025-01-04T11:23:16.801Z</time>
      </trkpt>
      <trkpt lat="48.40376" lon="5.1498">
        <ele>196.67</ele>
        <time>2025-01-04T11:23:18.595Z</time>
      </trkpt>
      <trkpt lat="48.40375" lon="5.14967">
        <ele>196.86</ele>
        <time>2025-01-04T11:23:20.390Z</time>
      </trkpt>
      <trkpt lat="48.40374" lon="5.14933">
        <ele>197.11</ele>
        <time>2025-01-04T11:23:22.189Z</time>
      </trkpt>
      <trkpt lat="48.40372" lon="5.14898">
        <ele>197.34</ele>
        <time>2025-01-04T11:23:23.991Z</time>
      </trkpt>
      <trkpt lat="48.40368" lon="5.14868">
        <ele>197.63</ele>
        <time>2025-01-04T11:23:25.797Z</time>
      </trkpt>
      <trkpt lat="48.40367" lon="5.14862">
        <ele>197.91</ele>
        <time>2025-01-04T11:23:27.603Z</time>
      </trkpt>
      <trkpt lat="48.40367" lon="5.14857">
        <ele>198.2</ele>
        <time>2025-01-04T11:23:29.410Z</time>
      </trkpt>
      <trkpt lat="48.40362" lon="5.14851">
        <ele>198.51</ele>
        <time>2025-01-04T11:23:31.218Z</time>
      </trkpt>
      <trkpt lat="48.40353" lon="5.1486">
        <ele>198.82</ele>
        <time>2025-01-04T11:23:33.028Z</time>
      </trkpt>
      <trkpt lat="48.40353" lon="5.14857">
        <ele>199.18</ele>
        <time>2025-01-04T11:23:34.838Z</time>
      </trkpt>
      <trkpt lat="48.40354" lon="5.14853">
        <ele>199.57</ele>
        <time>2025-01-04T11:23:36.649Z</time>
      </trkpt>
      <trkpt lat="48.40355" lon="5.14849">
        <ele>199.98</ele>
        <time>2025-01-04T11:23:38.460Z</time>
      </trkpt>
      <trkpt lat="48.40366" lon="5.14851">
        <ele>200.4</ele>
        <time>2025-01-04T11:23:40.273Z</time>
      </trkpt>
      <trkpt lat="48.40366" lon="5.14843">
        <ele>200.86</ele>
        <time>2025-01-04T11:23:42.087Z</time>
      </trkpt>
      <trkpt lat="48.40366" lon="5.14834">
        <ele>201.34</ele>
        <time>2025-01-04T11:23:43.901Z</time>
      </trkpt>
      <trkpt lat="48.40368" lon="5.148">
        <ele>201.84</ele>
        <time>2025-01-04T11:23:45.719Z</time>
      </trkpt>
      <trkpt lat="48.4037" lon="5.14775">
        <ele>202.37</ele>
        <time>2025-01-04T11:23:47.540Z</time>
      </trkpt>
      <trkpt lat="48.40372" lon="5.1475">
        <ele>202.93</ele>
        <time>2025-01-04T11:23:49.364Z</time>
      </trkpt>
      <trkpt lat="48.40376" lon="5.14716">
        <ele>203.55</ele>
        <time>2025-01-04T11:23:51.191Z</time>
      </trkpt>
      <trkpt lat="48.4038" lon="5.14683">
        <ele>204.18</ele>
        <time>2025-01-04T11:23:53.022Z</time>
      </trkpt>
      <trkpt lat="48.40382" lon="5.14643">
        <ele>204.91</ele>
        <time>2025-01-04T11:23:54.857Z</time>
      </trkpt>
      <trkpt lat="48.40381" lon="5.14629">
        <ele>205.55</ele>
        <time>2025-01-04T11:23:56.694Z</time>
      </trkpt>
      <trkpt lat="48.40379" lon="5.1459">
        <ele>206.33</ele>
        <time>2025-01-04T11:23:58.535Z</time>
      </trkpt>
      <trkpt lat="48.40377" lon="5.14553">
        <ele>206.98</ele>
        <time>2025-01-04T11:24:00.380Z</time>
      </trkpt>
      <trkpt lat="48.40376" lon="5.14528">
        <ele>207.59</ele>
        <time>2025-01-04T11:24:02.227Z</time>
      </trkpt>
      <trkpt lat="48.40374" lon="5.14504">
        <ele>208.2</ele>
        <time>2025-01-04T11:24:04.077Z</time>
      </trkpt>
      <trkpt lat="48.40374" lon="5.14458">
        <ele>208.83</ele>
        <time>2025-01-04T11:24:05.932Z</time>
      </trkpt>
      <trkpt lat="48.40373" lon="5.14417">
        <ele>209.47</ele>
        <time>2025-01-04T11:24:07.791Z</time>
      </trkpt>
      <trkpt lat="48.40373" lon="5.14386">
        <ele>210.11</ele>
        <time>2025-01-04T11:24:09.654Z</time>
      </trkpt>
      <trkpt lat="48.40373" lon="5.14354">
        <ele>210.7</ele>
        <time>2025-01-04T11:24:11.520Z</time>
      </trkpt>
      <trkpt lat="48.40373" lon="5.14347">
        <ele>211.24</ele>
        <time>2025-01-04T11:24:13.387Z</time>
      </trkpt>
      <trkpt lat="48.40374" lon="5.14313">
        <ele>211.77</ele>
        <time>2025-01-04T11:24:15.257Z</time>
      </trkpt>
      <trkpt lat="48.40375" lon="5.14279">
        <ele>212.3</ele>
        <time>2025-01-04T11:24:17.131Z</time>
      </trkpt>
      <trkpt lat="48.40376" lon="5.14244">
        <ele>212.77</ele>
        <time>2025-01-04T11:24:19.009Z</time>
      </trkpt>
      <trkpt lat="48.40378" lon="5.14198">
        <ele>213.28</ele>
        <time>2025-01-04T11:24:20.892Z</time>
      </trkpt>
      <trkpt lat="48.40377" lon="5.14172">
        <ele>213.74</ele>
        <time>2025-01-04T11:24:22.777Z</time>
      </trkpt>
      <trkpt lat="48.40376" lon="5.14147">
        <ele>214.12</ele>
        <time>2025-01-04T11:24:24.665Z</time>
      </trkpt>
      <trkpt lat="48.40371" lon="5.14124">
        <ele>214.43</ele>
        <time>2025-01-04T11:24:26.556Z</time>
      </trkpt>
      <trkpt lat="48.40367" lon="5.14101">
        <ele>214.75</ele>
        <time>2025-01-04T11:24:28.449Z</time>
      </trkpt>
      <trkpt lat="48.40356" lon="5.14057">
        <ele>214.91</ele>
        <time>2025-01-04T11:24:30.347Z</time>
      </trkpt>
      <trkpt lat="48.40351" lon="5.14029">
        <ele>215.18</ele>
        <time>2025-01-04T11:24:32.248Z</time>
      </trkpt>
      <trkpt lat="48.40346" lon="5.14001">
        <ele>215.47</ele>
        <time>2025-01-04T11:24:34.152Z</time>
      </trkpt>
      <trkpt lat="48.40343" lon="5.13971">
        <ele>215.73</ele>
        <time>2025-01-04T11:24:36.060Z</time>
      </trkpt>
      <trkpt lat="48.4034" lon="5.13941">
        <ele>215.94</ele>
        <time>2025-01-04T11:24:37.971Z</time>
      </trkpt>
      <trkpt lat="48.4034" lon="5.13907">
        <ele>216.07</ele>
        <time>2025-01-04T11:24:39.885Z</time>
      </trkpt>
      <trkpt lat="48.40339" lon="5.13873">
        <ele>216.28</ele>
        <time>2025-01-04T11:24:41.803Z</time>
      </trkpt>
      <trkpt lat="48.40339" lon="5.1383">
        <ele>216.47</ele>
        <time>2025-01-04T11:24:43.726Z</time>
      </trkpt>
      <trkpt lat="48.40339" lon="5.13788">
        <ele>216.58</ele>
        <time>2025-01-04T11:24:45.653Z</time>
      </trkpt>
      <trkpt lat="48.40339" lon="5.13755">
        <ele>216.62</ele>
        <time>2025-01-04T11:24:47.584Z</time>
      </trkpt>
      <trkpt lat="48.40338" lon="5.13723">
        <ele>216.67</ele>
        <time>2025-01-04T11:24:49.518Z</time>
      </trkpt>
      <trkpt lat="48.40338" lon="5.13692">
        <ele>216.67</ele>
        <time>2025-01-04T11:24:51.455Z</time>
      </trkpt>
      <trkpt lat="48.40338" lon="5.13661">
        <ele>216.72</ele>
        <time>2025-01-04T11:24:53.396Z</time>
      </trkpt>
      <trkpt lat="48.40339" lon="5.13624">
        <ele>216.82</ele>
        <time>2025-01-04T11:24:55.341Z</time>
      </trkpt>
      <trkpt lat="48.4034" lon="5.13588">
        <ele>216.92</ele>
        <time>2025-01-04T11:24:57.289Z</time>
      </trkpt>
      <trkpt lat="48.40341" lon="5.13557">
        <ele>217.03</ele>
        <time>2025-01-04T11:24:59.241Z</time>
      </trkpt>
      <trkpt lat="48.40341" lon="5.13526">
        <ele>217.09</ele>
        <time>2025-01-04T11:25:01.196Z</time>
      </trkpt>
      <trkpt lat="48.40344" lon="5.13492">
        <ele>217.11</ele>
        <time>2025-01-04T11:25:03.155Z</time>
      </trkpt>
      <trkpt lat="48.40346" lon="5.13459">
        <ele>217.06</ele>
        <time>2025-01-04T11:25:05.117Z</time>
      </trkpt>
      <trkpt lat="48.40349" lon="5.13429">
        <ele>217.11</ele>
        <time>2025-01-04T11:25:07.082Z</time>
      </trkpt>
      <trkpt lat="48.40352" lon="5.13399">
        <ele>217.15</ele>
        <time>2025-01-04T11:25:09.051Z</time>
      </trkpt>
      <trkpt lat="48.4036" lon="5.13364">
        <ele>217.28</ele>
        <time>2025-01-04T11:25:11.024Z</time>
      </trkpt>
      <trkpt lat="48.40367" lon="5.13329">
        <ele>217.41</ele>
        <time>2025-01-04T11:25:13.001Z</time>
      </trkpt>
      <trkpt lat="48.40372" lon="5.13304">
        <ele>217.5</ele>
        <time>2025-01-04T11:25:14.980Z</time>
      </trkpt>
      <trkpt lat="48.40375" lon="5.13287">
        <ele>217.58</ele>
        <time>2025-01-04T11:25:16.961Z</time>
      </trkpt>
      <trkpt lat="48.40376" lon="5.13255">
        <ele>217.69</ele>
        <time>2025-01-04T11:25:18.946Z</time>
      </trkpt>
      <trkpt lat="48.40377" lon="5.13223">
        <ele>217.81</ele>
        <time>2025-01-04T11:25:20.934Z</time>
      </trkpt>
      <trkpt lat="48.40378" lon="5.13182">
        <ele>217.87</ele>
        <time>2025-01-04T11:25:22.926Z</time>
      </trkpt>
      <trkpt lat="48.4038" lon="5.13141">
        <ele>217.9</ele>
        <time>2025-01-04T11:25:24.923Z</time>
      </trkpt>
      <trkpt lat="48.40382" lon="5.13112">
        <ele>218.03</ele>
        <time>2025-01-04T11:25:26.923Z</time>
      </trkpt>
      <trkpt lat="48.40384" lon="5.13083">
        <ele>218.2</ele>
        <time>2025-01-04T11:25:28.926Z</time>
      </trkpt>
      <trkpt lat="48.40389" lon="5.13045">
        <ele>218.39</ele>
        <time>2025-01-04T11:25:30.933Z</time>
      </trkpt>
      <trkpt lat="48.40394" lon="5.13007">
        <ele>218.6</ele>
        <time>2025-01-04T11:25:32.944Z</time>
      </trkpt>
      <trkpt lat="48.40398" lon="5.12972">
        <ele>218.81</ele>
        <time>2025-01-04T11:25:34.959Z</time>
      </trkpt>
      <trkpt lat="48.40402" lon="5.12937">
        <ele>219.03</ele>
        <time>2025-01-04T11:25:36.978Z</time>
      </trkpt>
      <trkpt lat="48.40403" lon="5.1291">
        <ele>219.24</ele>
        <time>2025-01-04T11:25:39.000Z</time>
      </trkpt>
      <trkpt lat="48.40403" lon="5.12884">
        <ele>219.51</ele>
        <time>2025-01-04T11:25:41.025Z</time>
      </trkpt>
      <trkpt lat="48.40403" lon="5.12841">
        <ele>219.86</ele>
        <time>2025-01-04T11:25:43.054Z</time>
      </trkpt>
      <trkpt lat="48.40403" lon="5.12799">
        <ele>220.27</ele>
        <time>2025-01-04T11:25:45.088Z</time>
      </trkpt>
      <trkpt lat="48.40404" lon="5.12757">
        <ele>220.68</ele>
        <time>2025-01-04T11:25:47.126Z</time>
      </trkpt>
      <trkpt lat="48.40404" lon="5.12714">
        <ele>221.06</ele>
        <time>2025-01-04T11:25:49.169Z</time>
      </trkpt>
      <trkpt lat="48.40404" lon="5.12695">
        <ele>221.44</ele>
        <time>2025-01-04T11:25:51.214Z</time>
      </trkpt>
      <trkpt lat="48.40404" lon="5.12653">
        <ele>221.85</ele>
        <time>2025-01-04T11:25:53.263Z</time>
      </trkpt>
      <trkpt lat="48.40404" lon="5.12611">
        <ele>222.28</ele>
        <time>2025-01-04T11:25:55.317Z</time>
      </trkpt>
      <trkpt lat="48.40405" lon="5.12593">
        <ele>222.79</ele>
        <time>2025-01-04T11:25:57.373Z</time>
      </trkpt>
      <trkpt lat="48.40409" lon="5.12557">
        <ele>223.37</ele>
        <time>2025-01-04T11:25:59.432Z</time>
      </trkpt>
      <trkpt lat="48.40413" lon="5.12522">
        <ele>223.96</ele>
        <time>2025-01-04T11:26:01.495Z</time>
      </trkpt>
      <trkpt lat="48.40417" lon="5.12483">
        <ele>224.58</ele>
        <time>2025-01-04T11:26:03.562Z</time>
      </trkpt>
      <trkpt lat="48.40421" lon="5.12444">
        <ele>225.26</ele>
        <time>2025-01-04T11:26:05.634Z</time>
      </trkpt>
      <trkpt lat="48.40424" lon="5.12419">
        <ele>225.94</ele>
        <time>2025-01-04T11:26:07.708Z</time>
      </trkpt>
      <trkpt lat="48.40426" lon="5.12395">
        <ele>226.57</ele>
        <time>2025-01-04T11:26:09.785Z</time>
      </trkpt>
      <trkpt lat="48.40428" lon="5.12379">
        <ele>227.2</ele>
        <time>2025-01-04T11:26:11.864Z</time>
      </trkpt>
      <trkpt lat="48.40432" lon="5.12343">
        <ele>227.86</ele>
        <time>2025-01-04T11:26:13.947Z</time>
      </trkpt>
      <trkpt lat="48.40436" lon="5.12308">
        <ele>228.49</ele>
        <time>2025-01-04T11:26:16.033Z</time>
      </trkpt>
      <trkpt lat="48.4044" lon="5.12271">
        <ele>229.14</ele>
        <time>2025-01-04T11:26:18.123Z</time>
      </trkpt>
      <trkpt lat="48.40441" lon="5.12256">
        <ele>229.76</ele>
        <time>2025-01-04T11:26:20.215Z</time>
      </trkpt>
      <trkpt lat="48.40441" lon="5.12229">
        <ele>230.34</ele>
        <time>2025-01-04T11:26:22.310Z</time>
      </trkpt>
      <trkpt lat="48.40441" lon="5.12202">
        <ele>230.97</ele>
        <time>2025-01-04T11:26:24.408Z</time>
      </trkpt>
      <trkpt lat="48.40437" lon="5.12174">
        <ele>231.59</ele>
        <time>2025-01-04T11:26:26.509Z</time>
      </trkpt>
      <trkpt lat="48.40432" lon="5.12146">
        <ele>232.24</ele>
        <time>2025-01-04T11:26:28.613Z</time>
      </trkpt>
      <trkpt lat="48.40428" lon="5.12121">
        <ele>232.86</ele>
        <time>2025-01-04T11:26:30.720Z</time>
      </trkpt>
      <trkpt lat="48.40424" lon="5.12096">
        <ele>233.44</ele>
        <time>2025-01-04T11:26:32.829Z</time>
      </trkpt>
      <trkpt lat="48.40412" lon="5.12054">
        <ele>234.05</ele>
        <time>2025-01-04T11:26:34.943Z</time>
      </trkpt>
      <trkpt lat="48.40408" lon="5.12039">
        <ele>234.57</ele>
        <time>2025-01-04T11:26:37.059Z</time>
      </trkpt>
      <trkpt lat="48.404" lon="5.12008">
        <ele>235.09</ele>
        <time>2025-01-04T11:26:39.178Z</time>
      </trkpt>
      <trkpt lat="48.40391" lon="5.11976">
        <ele>235.54</ele>
        <time>2025-01-04T11:26:41.301Z</time>
      </trkpt>
      <trkpt lat="48.40383" lon="5.11947">
        <ele>235.96</ele>
        <time>2025-01-04T11:26:43.427Z</time>
      </trkpt>
      <trkpt lat="48.40375" lon="5.11918">
        <ele>236.35</ele>
        <time>2025-01-04T11:26:45.557Z</time>
      </trkpt>
      <trkpt lat="48.40367" lon="5.11889">
        <ele>236.71</ele>
        <time>2025-01-04T11:26:47.690Z</time>
      </trkpt>
      <trkpt lat="48.40359" lon="5.1186">
        <ele>237.06</ele>
        <time>2025-01-04T11:26:49.827Z</time>
      </trkpt>
      <trkpt lat="48.40348" lon="5.11824">
        <ele>237.34</ele>
        <time>2025-01-04T11:26:51.968Z</time>
      </trkpt>
      <trkpt lat="48.40336" lon="5.11789">
        <ele>237.54</ele>
        <time>2025-01-04T11:26:54.113Z</time>
      </trkpt>
      <trkpt lat="48.40327" lon="5.11758">
        <ele>237.75</ele>
        <time>2025-01-04T11:26:56.262Z</time>
      </trkpt>
      <trkpt lat="48.40318" lon="5.11726">
        <ele>238</ele>
        <time>2025-01-04T11:26:58.414Z</time>
      </trkpt>
      <trkpt lat="48.40315" lon="5.11698">
        <ele>238.15</ele>
        <time>2025-01-04T11:27:00.569Z</time>
      </trkpt>
      <trkpt lat="48.40311" lon="5.11669">
        <ele>238.32</ele>
        <time>2025-01-04T11:27:02.727Z</time>
      </trkpt>
      <trkpt lat="48.40308" lon="5.11643">
        <ele>238.39</ele>
        <time>2025-01-04T11:27:04.888Z</time>
      </trkpt>
      <trkpt lat="48.40304" lon="5.11618">
        <ele>238.41</ele>
        <time>2025-01-04T11:27:07.052Z</time>
      </trkpt>
      <trkpt lat="48.40303" lon="5.11587">
        <ele>238.48</ele>
        <time>2025-01-04T11:27:09.219Z</time>
      </trkpt>
      <trkpt lat="48.40302" lon="5.11556">
        <ele>238.51</ele>
        <time>2025-01-04T11:27:11.390Z</time>
      </trkpt>
      <trkpt lat="48.40304" lon="5.11528">
        <ele>238.56</ele>
        <time>2025-01-04T11:27:13.564Z</time>
      </trkpt>
      <trkpt lat="48.40306" lon="5.115">
        <ele>238.66</ele>
        <time>2025-01-04T11:27:15.741Z</time>
      </trkpt>
      <trkpt lat="48.40308" lon="5.11473">
        <ele>238.78</ele>
        <time>2025-01-04T11:27:17.920Z</time>
      </trkpt>
      <trkpt lat="48.40305" lon="5.11449">
        <ele>238.76</ele>
        <time>2025-01-04T11:27:20.102Z</time>
      </trkpt>
      <trkpt lat="48.40302" lon="5.11421">
        <ele>238.7</ele>
        <time>2025-01-04T11:27:22.287Z</time>
      </trkpt>
      <trkpt lat="48.40299" lon="5.11393">
        <ele>238.69</ele>
        <time>2025-01-04T11:27:24.475Z</time>
      </trkpt>
      <trkpt lat="48.40295" lon="5.11382">
        <ele>238.72</ele>
        <time>2025-01-04T11:27:26.665Z</time>
      </trkpt>
      <trkpt lat="48.40293" lon="5.11377">
        <ele>238.79</ele>
        <time>2025-01-04T11:27:28.855Z</time>
      </trkpt>
      <trkpt lat="48.40288" lon="5.11377">
        <ele>238.87</ele>
        <time>2025-01-04T11:27:31.046Z</time>
      </trkpt>
      <trkpt lat="48.40277" lon="5.11376">
        <ele>238.95</ele>
        <time>2025-01-04T11:27:33.239Z</time>
      </trkpt>
      <trkpt lat="48.40261" lon="5.11376">
        <ele>239.13</ele>
        <time>2025-01-04T11:27:35.434Z</time>
      </trkpt>
      <trkpt lat="48.40244" lon="5.11375">
        <ele>239.39</ele>
        <time>2025-01-04T11:27:37.632Z</time>
      </trkpt>
      <trkpt lat="48.40229" lon="5.1137">
        <ele>239.7</ele>
        <time>2025-01-04T11:27:39.832Z</time>
      </trkpt>
      <trkpt lat="48.4022" lon="5.11365">
        <ele>239.98</ele>
        <time>2025-01-04T11:27:42.034Z</time>
      </trkpt>
      <trkpt lat="48.40216" lon="5.11362">
        <ele>240.26</ele>
        <time>2025-01-04T11:27:44.237Z</time>
      </trkpt>
      <trkpt lat="48.40203" lon="5.11344">
        <ele>240.65</ele>
        <time>2025-01-04T11:27:46.442Z</time>
      </trkpt>
      <trkpt lat="48.402" lon="5.1134">
        <ele>240.94</ele>
        <time>2025-01-04T11:27:48.648Z</time>
      </trkpt>
      <trkpt lat="48.40197" lon="5.11334">
        <ele>241.22</ele>
        <time>2025-01-04T11:27:50.855Z</time>
      </trkpt>
      <trkpt lat="48.40192" lon="5.11314">
        <ele>241.52</ele>
        <time>2025-01-04T11:27:53.064Z</time>
      </trkpt>
      <trkpt lat="48.4019" lon="5.11301">
        <ele>241.79</ele>
        <time>2025-01-04T11:27:55.275Z</time>
      </trkpt>
      <trkpt lat="48.40189" lon="5.1127">
        <ele>241.98</ele>
        <time>2025-01-04T11:27:57.489Z</time>
      </trkpt>
      <trkpt lat="48.40188" lon="5.11246">
        <ele>242.26</ele>
        <time>2025-01-04T11:27:59.706Z</time>
      </trkpt>
      <trkpt lat="48.40188" lon="5.11222">
        <ele>242.54</ele>
        <time>2025-01-04T11:28:01.925Z</time>
      </trkpt>
      <trkpt lat="48.40187" lon="5.11214">
        <ele>242.81</ele>
        <time>2025-01-04T11:28:04.145Z</time>
      </trkpt>
      <trkpt lat="48.40187" lon="5.11183">
        <ele>243.03</ele>
        <time>2025-01-04T11:28:06.368Z</time>
      </trkpt>
      <trkpt lat="48.40186" lon="5.11158">
        <ele>243.29</ele>
        <time>2025-01-04T11:28:08.594Z</time>
      </trkpt>
      <trkpt lat="48.40185" lon="5.11133">
        <ele>243.59</ele>
        <time>2025-01-04T11:28:10.823Z</time>
      </trkpt>
      <trkpt lat="48.40183" lon="5.11119">
        <ele>243.87</ele>
        <time>2025-01-04T11:28:13.053Z</time>
      </trkpt>
      <trkpt lat="48.40182" lon="5.11104">
        <ele>244.14</ele>
        <time>2025-01-04T11:28:15.285Z</time>
      </trkpt>
      <trkpt lat="48.40181" lon="5.11097">
        <ele>244.35</ele>
        <time>2025-01-04T11:28:17.517Z</time>
      </trkpt>
      <trkpt lat="48.40178" lon="5.11063">
        <ele>244.64</ele>
        <time>2025-01-04T11:28:19.753Z</time>
      </trkpt>
      <trkpt lat="48.40174" lon="5.11023">
        <ele>244.84</ele>
        <time>2025-01-04T11:28:21.993Z</time>
      </trkpt>
      <trkpt lat="48.40173" lon="5.11007">
        <ele>244.96</ele>
        <time>2025-01-04T11:28:24.235Z</time>
      </trkpt>
      <trkpt lat="48.40172" lon="5.10992">
        <ele>245.07</ele>
        <time>2025-01-04T11:28:26.479Z</time>
      </trkpt>
      <trkpt lat="48.40172" lon="5.10984">
        <ele>245.16</ele>
        <time>2025-01-04T11:28:28.724Z</time>
      </trkpt>
      <trkpt lat="48.40172" lon="5.10967">
        <ele>245.22</ele>
        <time>2025-01-04T11:28:30.970Z</time>
      </trkpt>
      <trkpt lat="48.40171" lon="5.10934">
        <ele>245.28</ele>
        <time>2025-01-04T11:28:33.220Z</time>
      </trkpt>
      <trkpt lat="48.4017" lon="5.10902">
        <ele>245.33</ele>
        <time>2025-01-04T11:28:35.473Z</time>
      </trkpt>
      <trkpt lat="48.40169" lon="5.1087">
        <ele>245.36</ele>
        <time>2025-01-04T11:28:37.730Z</time>
      </trkpt>
      <trkpt lat="48.40163" lon="5.10839">
        <ele>245.35</ele>
        <time>2025-01-04T11:28:39.990Z</time>
      </trkpt>
      <trkpt lat="48.40157" lon="5.10807">
        <ele>245.36</ele>
        <time>2025-01-04T11:28:42.254Z</time>
      </trkpt>
      <trkpt lat="48.40148" lon="5.10771">
        <ele>245.44</ele>
        <time>2025-01-04T11:28:44.522Z</time>
      </trkpt>
      <trkpt lat="48.40139" lon="5.10734">
        <ele>245.52</ele>
        <time>2025-01-04T11:28:46.794Z</time>
      </trkpt>
      <trkpt lat="48.40131" lon="5.10701">
        <ele>245.58</ele>
        <time>2025-01-04T11:28:49.070Z</time>
      </trkpt>
      <trkpt lat="48.40122" lon="5.10667">
        <ele>245.64</ele>
        <time>2025-01-04T11:28:51.350Z</time>
      </trkpt>
      <trkpt lat="48.40116" lon="5.10639">
        <ele>245.67</ele>
        <time>2025-01-04T11:28:53.633Z</time>
      </trkpt>
      <trkpt lat="48.40109" lon="5.10612">
        <ele>245.68</ele>
        <time>2025-01-04T11:28:55.919Z</time>
      </trkpt>
      <trkpt lat="48.40103" lon="5.10587">
        <ele>245.74</ele>
        <time>2025-01-04T11:28:58.208Z</time>
      </trkpt>
      <trkpt lat="48.40097" lon="5.10562">
        <ele>245.8</ele>
        <time>2025-01-04T11:29:00.500Z</time>
      </trkpt>
      <trkpt lat="48.40095" lon="5.10554">
        <ele>245.83</ele>
        <time>2025-01-04T11:29:02.792Z</time>
      </trkpt>
      <trkpt lat="48.4009" lon="5.10532">
        <ele>245.86</ele>
        <time>2025-01-04T11:29:05.087Z</time>
      </trkpt>
      <trkpt lat="48.40086" lon="5.10521">
        <ele>245.91</ele>
        <time>2025-01-04T11:29:07.383Z</time>
      </trkpt>
      <trkpt lat="48.40078" lon="5.10502">
        <ele>246.06</ele>
        <time>2025-01-04T11:29:09.682Z</time>
      </trkpt>
      <trkpt lat="48.4008" lon="5.10499">
        <ele>246.13</ele>
        <time>2025-01-04T11:29:11.981Z</time>
      </trkpt>
      <trkpt lat="48.40083" lon="5.10496">
        <ele>246.19</ele>
        <time>2025-01-04T11:29:14.281Z</time>
      </trkpt>
      <trkpt lat="48.40085" lon="5.10493">
        <ele>246.26</ele>
        <time>2025-01-04T11:29:16.581Z</time>
      </trkpt>
      <trkpt lat="48.40091" lon="5.10493">
        <ele>246.32</ele>
        <time>2025-01-04T11:29:18.882Z</time>
      </trkpt>
      <trkpt lat="48.401" lon="5.10487">
        <ele>246.43</ele>
        <time>2025-01-04T11:29:21.185Z</time>
      </trkpt>
      <trkpt lat="48.40108" lon="5.10482">
        <ele>246.56</ele>
        <time>2025-01-04T11:29:23.489Z</time>
      </trkpt>
      <trkpt lat="48.40115" lon="5.10475">
        <ele>246.67</ele>
        <time>2025-01-04T11:29:25.794Z</time>
      </trkpt>
      <trkpt lat="48.40126" lon="5.10467">
        <ele>246.76</ele>
        <time>2025-01-04T11:29:28.101Z</time>
      </trkpt>
      <trkpt lat="48.40133" lon="5.10463">
        <ele>246.82</ele>
        <time>2025-01-04T11:29:30.410Z</time>
      </trkpt>
      <trkpt lat="48.40134" lon="5.10462">
        <ele>246.9</ele>
        <time>2025-01-04T11:29:32.719Z</time>
      </trkpt>
      <trkpt lat="48.40142" lon="5.10456">
        <ele>247.02</ele>
        <time>2025-01-04T11:29:35.029Z</time>
      </trkpt>
      <trkpt lat="48.40147" lon="5.10452">
        <ele>247.13</ele>
        <time>2025-01-04T11:29:37.340Z</time>
      </trkpt>
      <trkpt lat="48.40145" lon="5.10451">
        <ele>247.24</ele>
        <time>2025-01-04T11:29:39.651Z</time>
      </trkpt>
      <trkpt lat="48.40141" lon="5.10454">
        <ele>247.32</ele>
        <time>2025-01-04T11:29:41.963Z</time>
      </trkpt>
      <trkpt lat="48.4014" lon="5.10455">
        <ele>247.41</ele>
        <time>2025-01-04T11:29:44.275Z</time>
      </trkpt>
      <trkpt lat="48.40134" lon="5.10458">
        <ele>247.5</ele>
        <time>2025-01-04T11:29:46.588Z</time>
      </trkpt>
      <trkpt lat="48.40126" lon="5.10462">
        <ele>247.64</ele>
        <time>2025-01-04T11:29:48.903Z</time>
      </trkpt>
      <trkpt lat="48.40125" lon="5.10463">
        <ele>247.77</ele>
        <time>2025-01-04T11:29:51.218Z</time>
      </trkpt>
      <trkpt lat="48.40124" lon="5.10463">
        <ele>247.91</ele>
        <time>2025-01-04T11:29:53.533Z</time>
      </trkpt>
      <trkpt lat="48.40122" lon="5.10465">
        <ele>248.07</ele>
        <time>2025-01-04T11:29:55.848Z</time>
      </trkpt>
      <trkpt lat="48.40116" lon="5.10472">
        <ele>248.22</ele>
        <time>2025-01-04T11:29:58.165Z</time>
      </trkpt>
      <trkpt lat="48.40104" lon="5.10482">
        <ele>248.33</ele>
        <time>2025-01-04T11:30:00.484Z</time>
      </trkpt>
      <trkpt lat="48.40088" lon="5.10487">
        <ele>248.52</ele>
        <time>2025-01-04T11:30:02.805Z</time>
      </trkpt>
      <trkpt lat="48.40079" lon="5.10486">
        <ele>248.77</ele>
        <time>2025-01-04T11:30:05.128Z</time>
      </trkpt>
      <trkpt lat="48.40063" lon="5.10486">
        <ele>249.06</ele>
        <time>2025-01-04T11:30:07.453Z</time>
      </trkpt>
      <trkpt lat="48.4005" lon="5.10473">
        <ele>249.42</ele>
        <time>2025-01-04T11:30:09.781Z</time>
      </trkpt>
      <trkpt lat="48.40046" lon="5.10469">
        <ele>249.75</ele>
        <time>2025-01-04T11:30:12.110Z</time>
      </trkpt>
      <trkpt lat="48.40024" lon="5.10444">
        <ele>250.09</ele>
        <time>2025-01-04T11:30:14.443Z</time>
      </trkpt>
      <trkpt lat="48.40012" lon="5.10424">
        <ele>250.52</ele>
        <time>2025-01-04T11:30:16.779Z</time>
      </trkpt>
      <trkpt lat="48.4" lon="5.10405">
        <ele>250.98</ele>
        <time>2025-01-04T11:30:19.118Z</time>
      </trkpt>
      <trkpt lat="48.39979" lon="5.10371">
        <ele>251.52</ele>
        <time>2025-01-04T11:30:21.462Z</time>
      </trkpt>
      <trkpt lat="48.39958" lon="5.10337">
        <ele>251.99</ele>
        <time>2025-01-04T11:30:23.811Z</time>
      </trkpt>
      <trkpt lat="48.39946" lon="5.10318">
        <ele>252.55</ele>
        <time>2025-01-04T11:30:26.162Z</time>
      </trkpt>
      <trkpt lat="48.39935" lon="5.10299">
        <ele>253.17</ele>
        <time>2025-01-04T11:30:28.516Z</time>
      </trkpt>
      <trkpt lat="48.39923" lon="5.1028">
        <ele>253.81</ele>
        <time>2025-01-04T11:30:30.873Z</time>
      </trkpt>
      <trkpt lat="48.39911" lon="5.10261">
        <ele>254.43</ele>
        <time>2025-01-04T11:30:33.233Z</time>
      </trkpt>
      <trkpt lat="48.39899" lon="5.10241">
        <ele>254.98</ele>
        <time>2025-01-04T11:30:35.596Z</time>
      </trkpt>
      <trkpt lat="48.39887" lon="5.10221">
        <ele>255.54</ele>
        <time>2025-01-04T11:30:37.961Z</time>
      </trkpt>
      <trkpt lat="48.39875" lon="5.10202">
        <ele>256.12</ele>
        <time>2025-01-04T11:30:40.329Z</time>
      </trkpt>
      <trkpt lat="48.39864" lon="5.10182">
        <ele>256.73</ele>
        <time>2025-01-04T11:30:42.700Z</time>
      </trkpt>
      <trkpt lat="48.39855" lon="5.10163">
        <ele>257.34</ele>
        <time>2025-01-04T11:30:45.074Z</time>
      </trkpt>
      <trkpt lat="48.39845" lon="5.10144">
        <ele>257.97</ele>
        <time>2025-01-04T11:30:47.450Z</time>
      </trkpt>
      <trkpt lat="48.39833" lon="5.1011">
        <ele>258.65</ele>
        <time>2025-01-04T11:30:49.830Z</time>
      </trkpt>
      <trkpt lat="48.39823" lon="5.10084">
        <ele>259.34</ele>
        <time>2025-01-04T11:30:52.213Z</time>
      </trkpt>
      <trkpt lat="48.39819" lon="5.10074">
        <ele>260.03</ele>
        <time>2025-01-04T11:30:54.598Z</time>
      </trkpt>
      <trkpt lat="48.39804" lon="5.10034">
        <ele>260.71</ele>
        <time>2025-01-04T11:30:56.988Z</time>
      </trkpt>
      <trkpt lat="48.39796" lon="5.10009">
        <ele>261.47</ele>
        <time>2025-01-04T11:30:59.380Z</time>
      </trkpt>
      <trkpt lat="48.39794" lon="5.09989">
        <ele>262.3</ele>
        <time>2025-01-04T11:31:01.775Z</time>
      </trkpt>
      <trkpt lat="48.39791" lon="5.09968">
        <ele>263.1</ele>
        <time>2025-01-04T11:31:04.172Z</time>
      </trkpt>
      <trkpt lat="48.39788" lon="5.09946">
        <ele>263.89</ele>
        <time>2025-01-04T11:31:06.571Z</time>
      </trkpt>
      <trkpt lat="48.39788" lon="5.09922">
        <ele>264.67</ele>
        <time>2025-01-04T11:31:08.973Z</time>
      </trkpt>
      <trkpt lat="48.39787" lon="5.09897">
        <ele>265.44</ele>
        <time>2025-01-04T11:31:11.378Z</time>
      </trkpt>
      <trkpt lat="48.39788" lon="5.09854">
        <ele>266.21</ele>
        <time>2025-01-04T11:31:13.787Z</time>
      </trkpt>
      <trkpt lat="48.39788" lon="5.09847">
        <ele>266.97</ele>
        <time>2025-01-04T11:31:16.197Z</time>
      </trkpt>
      <trkpt lat="48.39789" lon="5.0981">
        <ele>267.75</ele>
        <time>2025-01-04T11:31:18.611Z</time>
      </trkpt>
      <trkpt lat="48.3979" lon="5.09768">
        <ele>268.62</ele>
        <time>2025-01-04T11:31:21.029Z</time>
      </trkpt>
      <trkpt lat="48.3979" lon="5.09742">
        <ele>269.4</ele>
        <time>2025-01-04T11:31:23.450Z</time>
      </trkpt>
      <trkpt lat="48.3979" lon="5.09736">
        <ele>270.16</ele>
        <time>2025-01-04T11:31:25.872Z</time>
      </trkpt>
      <trkpt lat="48.39789" lon="5.09695">
        <ele>270.88</ele>
        <time>2025-01-04T11:31:28.298Z</time>
      </trkpt>
      <trkpt lat="48.39788" lon="5.09689">
        <ele>271.62</ele>
        <time>2025-01-04T11:31:30.725Z</time>
      </trkpt>
      <trkpt lat="48.39786" lon="5.09676">
        <ele>272.35</ele>
        <time>2025-01-04T11:31:33.153Z</time>
      </trkpt>
      <trkpt lat="48.39785" lon="5.09664">
        <ele>273.08</ele>
        <time>2025-01-04T11:31:35.582Z</time>
      </trkpt>
      <trkpt lat="48.39777" lon="5.0963">
        <ele>273.72</ele>
        <time>2025-01-04T11:31:38.015Z</time>
      </trkpt>
      <trkpt lat="48.39772" lon="5.09606">
        <ele>274.53</ele>
        <time>2025-01-04T11:31:40.451Z</time>
      </trkpt>
      <trkpt lat="48.3977" lon="5.09599">
        <ele>275.31</ele>
        <time>2025-01-04T11:31:42.888Z</time>
      </trkpt>
      <trkpt lat="48.39759" lon="5.09556">
        <ele>276.21</ele>
        <time>2025-01-04T11:31:45.330Z</time>
      </trkpt>
      <trkpt lat="48.39752" lon="5.09525">
        <ele>277.08</ele>
        <time>2025-01-04T11:31:47.775Z</time>
      </trkpt>
      <trkpt lat="48.3975" lon="5.09518">
        <ele>277.86</ele>
        <time>2025-01-04T11:31:50.221Z</time>
      </trkpt>
      <trkpt lat="48.3974" lon="5.09476">
        <ele>278.62</ele>
        <time>2025-01-04T11:31:52.672Z</time>
      </trkpt>
      <trkpt lat="48.39733" lon="5.09448">
        <ele>279.44</ele>
        <time>2025-01-04T11:31:55.126Z</time>
      </trkpt>
      <trkpt lat="48.39725" lon="5.09415">
        <ele>280.31</ele>
        <time>2025-01-04T11:31:57.584Z</time>
      </trkpt>
      <trkpt lat="48.39716" lon="5.09377">
        <ele>281.24</ele>
        <time>2025-01-04T11:32:00.046Z</time>
      </trkpt>
      <trkpt lat="48.39707" lon="5.09341">
        <ele>282.11</ele>
        <time>2025-01-04T11:32:02.512Z</time>
      </trkpt>
      <trkpt lat="48.39699" lon="5.09311">
        <ele>282.86</ele>
        <time>2025-01-04T11:32:04.982Z</time>
      </trkpt>
      <trkpt lat="48.3969" lon="5.09272">
        <ele>283.51</ele>
        <time>2025-01-04T11:32:07.456Z</time>
      </trkpt>
      <trkpt lat="48.39681" lon="5.0924">
        <ele>284.34</ele>
        <time>2025-01-04T11:32:09.934Z</time>
      </trkpt>
      <trkpt lat="48.3967" lon="5.0921">
        <ele>285.21</ele>
        <time>2025-01-04T11:32:12.415Z</time>
      </trkpt>
      <trkpt lat="48.39661" lon="5.09187">
        <ele>286.11</ele>
        <time>2025-01-04T11:32:14.899Z</time>
      </trkpt>
      <trkpt lat="48.39652" lon="5.09161">
        <ele>286.97</ele>
        <time>2025-01-04T11:32:17.386Z</time>
      </trkpt>
      <trkpt lat="48.39645" lon="5.09144">
        <ele>287.72</ele>
        <time>2025-01-04T11:32:19.875Z</time>
      </trkpt>
      <trkpt lat="48.3963" lon="5.09112">
        <ele>288.43</ele>
        <time>2025-01-04T11:32:22.369Z</time>
      </trkpt>
      <trkpt lat="48.39618" lon="5.09087">
        <ele>289.13</ele>
        <time>2025-01-04T11:32:24.866Z</time>
      </trkpt>
      <trkpt lat="48.39609" lon="5.09068">
        <ele>289.82</ele>
        <time>2025-01-04T11:32:27.365Z</time>
      </trkpt>
      <trkpt lat="48.39602" lon="5.09053">
        <ele>290.53</ele>
        <time>2025-01-04T11:32:29.866Z</time>
      </trkpt>
      <trkpt lat="48.396" lon="5.0905">
        <ele>291.25</ele>
        <time>2025-01-04T11:32:32.368Z</time>
      </trkpt>
      <trkpt lat="48.39602" lon="5.09032">
        <ele>291.96</ele>
        <time>2025-01-04T11:32:34.872Z</time>
      </trkpt>
      <trkpt lat="48.39612" lon="5.09028">
        <ele>292.69</ele>
        <time>2025-01-04T11:32:37.377Z</time>
      </trkpt>
      <trkpt lat="48.39617" lon="5.09028">
        <ele>293.41</ele>
        <time>2025-01-04T11:32:39.883Z</time>
      </trkpt>
      <trkpt lat="48.39636" lon="5.09031">
        <ele>294.1</ele>
        <time>2025-01-04T11:32:42.392Z</time>
      </trkpt>
      <trkpt lat="48.39666" lon="5.0903">
        <ele>294.93</ele>
        <time>2025-01-04T11:32:44.906Z</time>
      </trkpt>
      <trkpt lat="48.39679" lon="5.09025">
        <ele>295.85</ele>
        <time>2025-01-04T11:32:47.422Z</time>
      </trkpt>
      <trkpt lat="48.39688" lon="5.09012">
        <ele>296.72</ele>
        <time>2025-01-04T11:32:49.940Z</time>
      </trkpt>
      <trkpt lat="48.39703" lon="5.08976">
        <ele>297.71</ele>
        <time>2025-01-04T11:32:52.463Z</time>
      </trkpt>
      <trkpt lat="48.39716" lon="5.08935">
        <ele>298.49</ele>
        <time>2025-01-04T11:32:54.990Z</time>
      </trkpt>
      <trkpt lat="48.39718" lon="5.08928">
        <ele>299.24</ele>
        <time>2025-01-04T11:32:57.518Z</time>
      </trkpt>
      <trkpt lat="48.39722" lon="5.08914">
        <ele>299.99</ele>
        <time>2025-01-04T11:33:00.048Z</time>
      </trkpt>
      <trkpt lat="48.39728" lon="5.08891">
        <ele>300.8</ele>
        <time>2025-01-04T11:33:02.581Z</time>
      </trkpt>
      <trkpt lat="48.39738" lon="5.08854">
        <ele>301.58</ele>
        <time>2025-01-04T11:33:05.118Z</time>
      </trkpt>
      <trkpt lat="48.39742" lon="5.08839">
        <ele>302.29</ele>
        <time>2025-01-04T11:33:07.657Z</time>
      </trkpt>
      <trkpt lat="48.39749" lon="5.08815">
        <ele>302.94</ele>
        <time>2025-01-04T11:33:10.198Z</time>
      </trkpt>
      <trkpt lat="48.39753" lon="5.088">
        <ele>303.64</ele>
        <time>2025-01-04T11:33:12.741Z</time>
      </trkpt>
      <trkpt lat="48.39756" lon="5.08786">
        <ele>304.3</ele>
        <time>2025-01-04T11:33:15.286Z</time>
      </trkpt>
      <trkpt lat="48.39764" lon="5.0876">
        <ele>304.96</ele>
        <time>2025-01-04T11:33:17.834Z</time>
      </trkpt>
      <trkpt lat="48.39765" lon="5.08753">
        <ele>305.61</ele>
        <time>2025-01-04T11:33:20.382Z</time>
      </trkpt>
      <trkpt lat="48.39767" lon="5.08746">
        <ele>306.23</ele>
        <time>2025-01-04T11:33:22.931Z</time>
      </trkpt>
      <trkpt lat="48.39774" lon="5.08721">
        <ele>306.9</ele>
        <time>2025-01-04T11:33:25.483Z</time>
      </trkpt>
      <trkpt lat="48.39776" lon="5.08715">
        <ele>307.49</ele>
        <time>2025-01-04T11:33:28.036Z</time>
      </trkpt>
      <trkpt lat="48.39782" lon="5.08691">
        <ele>308.15</ele>
        <time>2025-01-04T11:33:30.592Z</time>
      </trkpt>
      <trkpt lat="48.39793" lon="5.08651">
        <ele>308.7</ele>
        <time>2025-01-04T11:33:33.152Z</time>
      </trkpt>
      <trkpt lat="48.39797" lon="5.08639">
        <ele>309.19</ele>
        <time>2025-01-04T11:33:35.714Z</time>
      </trkpt>
      <trkpt lat="48.39801" lon="5.08629">
        <ele>309.64</ele>
        <time>2025-01-04T11:33:38.277Z</time>
      </trkpt>
      <trkpt lat="48.39808" lon="5.08614">
        <ele>310.13</ele>
        <time>2025-01-04T11:33:40.842Z</time>
      </trkpt>
      <trkpt lat="48.39814" lon="5.08604">
        <ele>310.65</ele>
        <time>2025-01-04T11:33:43.408Z</time>
      </trkpt>
      <trkpt lat="48.39821" lon="5.08596">
        <ele>311.17</ele>
        <time>2025-01-04T11:33:45.976Z</time>
      </trkpt>
      <trkpt lat="48.39831" lon="5.08585">
        <ele>311.65</ele>
        <time>2025-01-04T11:33:48.546Z</time>
      </trkpt>
      <trkpt lat="48.39854" lon="5.08558">
        <ele>312.21</ele>
        <time>2025-01-04T11:33:51.120Z</time>
      </trkpt>
      <trkpt lat="48.39877" lon="5.08531">
        <ele>312.76</ele>
        <time>2025-01-04T11:33:53.699Z</time>
      </trkpt>
      <trkpt lat="48.39895" lon="5.0851">
        <ele>313.31</ele>
        <time>2025-01-04T11:33:56.282Z</time>
      </trkpt>
      <trkpt lat="48.39911" lon="5.08485">
        <ele>313.87</ele>
        <time>2025-01-04T11:33:58.868Z</time>
      </trkpt>
      <trkpt lat="48.39922" lon="5.08463">
        <ele>314.28</ele>
        <time>2025-01-04T11:34:01.457Z</time>
      </trkpt>
      <trkpt lat="48.39922" lon="5.08463">
        <ele>314.76</ele>
        <time>2025-01-04T11:34:04.046Z</time>
      </trkpt>
      <trkpt lat="48.39932" lon="5.08437">
        <ele>315.21</ele>
        <time>2025-01-04T11:34:06.639Z</time>
      </trkpt>
      <trkpt lat="48.3994" lon="5.08401">
        <ele>315.62</ele>
        <time>2025-01-04T11:34:09.236Z</time>
      </trkpt>
      <trkpt lat="48.39943" lon="5.0837">
        <ele>316.05</ele>
        <time>2025-01-04T11:34:11.836Z</time>
      </trkpt>
      <trkpt lat="48.39946" lon="5.08339">
        <ele>316.59</ele>
        <time>2025-01-04T11:34:14.439Z</time>
      </trkpt>
      <trkpt lat="48.39948" lon="5.0831">
        <ele>317.19</ele>
        <time>2025-01-04T11:34:17.045Z</time>
      </trkpt>
      <trkpt lat="48.39955" lon="5.08274">
        <ele>317.86</ele>
        <time>2025-01-04T11:34:19.655Z</time>
      </trkpt>
      <trkpt lat="48.39961" lon="5.08252">
        <ele>318.54</ele>
        <time>2025-01-04T11:34:22.268Z</time>
      </trkpt>
      <trkpt lat="48.39969" lon="5.08228">
        <ele>319.24</ele>
        <time>2025-01-04T11:34:24.884Z</time>
      </trkpt>
      <trkpt lat="48.39981" lon="5.08206">
        <ele>319.96</ele>
        <time>2025-01-04T11:34:27.503Z</time>
      </trkpt>
      <trkpt lat="48.39994" lon="5.08184">
        <ele>320.58</ele>
        <time>2025-01-04T11:34:30.125Z</time>
      </trkpt>
      <trkpt lat="48.40003" lon="5.08169">
        <ele>321.25</ele>
        <time>2025-01-04T11:34:32.749Z</time>
      </trkpt>
      <trkpt lat="48.40019" lon="5.08146">
        <ele>321.91</ele>
        <time>2025-01-04T11:34:35.377Z</time>
      </trkpt>
      <trkpt lat="48.40037" lon="5.08134">
        <ele>322.67</ele>
        <time>2025-01-04T11:34:38.008Z</time>
      </trkpt>
      <trkpt lat="48.40056" lon="5.08122">
        <ele>323.51</ele>
        <time>2025-01-04T11:34:40.642Z</time>
      </trkpt>
      <trkpt lat="48.4007" lon="5.08113">
        <ele>324.34</ele>
        <time>2025-01-04T11:34:43.278Z</time>
      </trkpt>
      <trkpt lat="48.40081" lon="5.08103">
        <ele>325.09</ele>
        <time>2025-01-04T11:34:45.917Z</time>
      </trkpt>
      <trkpt lat="48.40093" lon="5.08093">
        <ele>325.87</ele>
        <time>2025-01-04T11:34:48.558Z</time>
      </trkpt>
      <trkpt lat="48.40105" lon="5.08081">
        <ele>326.6</ele>
        <time>2025-01-04T11:34:51.201Z</time>
      </trkpt>
      <trkpt lat="48.40121" lon="5.08067">
        <ele>327.26</ele>
        <time>2025-01-04T11:34:53.847Z</time>
      </trkpt>
      <trkpt lat="48.40133" lon="5.08057">
        <ele>327.93</ele>
        <time>2025-01-04T11:34:56.495Z</time>
      </trkpt>
      <trkpt lat="48.40153" lon="5.08038">
        <ele>328.62</ele>
        <time>2025-01-04T11:34:59.147Z</time>
      </trkpt>
      <trkpt lat="48.40165" lon="5.08023">
        <ele>329.29</ele>
        <time>2025-01-04T11:35:01.801Z</time>
      </trkpt>
      <trkpt lat="48.40172" lon="5.08013">
        <ele>330</ele>
        <time>2025-01-04T11:35:04.457Z</time>
      </trkpt>
      <trkpt lat="48.40182" lon="5.08001">
        <ele>330.75</ele>
        <time>2025-01-04T11:35:07.115Z</time>
      </trkpt>
      <trkpt lat="48.40193" lon="5.07986">
        <ele>331.42</ele>
        <time>2025-01-04T11:35:09.775Z</time>
      </trkpt>
      <trkpt lat="48.40202" lon="5.07973">
        <ele>332.16</ele>
        <time>2025-01-04T11:35:12.438Z</time>
      </trkpt>
      <trkpt lat="48.40215" lon="5.07958">
        <ele>332.78</ele>
        <time>2025-01-04T11:35:15.103Z</time>
      </trkpt>
      <trkpt lat="48.40227" lon="5.07951">
        <ele>333.47</ele>
        <time>2025-01-04T11:35:17.770Z</time>
      </trkpt>
      <trkpt lat="48.40247" lon="5.07943">
        <ele>334.18</ele>
        <time>2025-01-04T11:35:20.440Z</time>
      </trkpt>
      <trkpt lat="48.40268" lon="5.0795">
        <ele>335.01</ele>
        <time>2025-01-04T11:35:23.114Z</time>
      </trkpt>
      <trkpt lat="48.40286" lon="5.07956">
        <ele>335.78</ele>
        <time>2025-01-04T11:35:25.791Z</time>
      </trkpt>
      <trkpt lat="48.40306" lon="5.07962">
        <ele>336.53</ele>
        <time>2025-01-04T11:35:28.471Z</time>
      </trkpt>
      <trkpt lat="48.40321" lon="5.07967">
        <ele>337.25</ele>
        <time>2025-01-04T11:35:31.154Z</time>
      </trkpt>
      <trkpt lat="48.4034" lon="5.07973">
        <ele>337.96</ele>
        <time>2025-01-04T11:35:33.840Z</time>
      </trkpt>
      <trkpt lat="48.40359" lon="5.07979">
        <ele>338.68</ele>
        <time>2025-01-04T11:35:36.529Z</time>
      </trkpt>
      <trkpt lat="48.40378" lon="5.07985">
        <ele>339.39</ele>
        <time>2025-01-04T11:35:39.221Z</time>
      </trkpt>
      <trkpt lat="48.40403" lon="5.07992">
        <ele>340.07</ele>
        <time>2025-01-04T11:35:41.917Z</time>
      </trkpt>
      <trkpt lat="48.40431" lon="5.08001">
        <ele>340.74</ele>
        <time>2025-01-04T11:35:44.618Z</time>
      </trkpt>
      <trkpt lat="48.40461" lon="5.08011">
        <ele>341.41</ele>
        <time>2025-01-04T11:35:47.324Z</time>
      </trkpt>
      <trkpt lat="48.40488" lon="5.08019">
        <ele>342.07</ele>
        <time>2025-01-04T11:35:50.034Z</time>
      </trkpt>
      <trkpt lat="48.40503" lon="5.08024">
        <ele>342.65</ele>
        <time>2025-01-04T11:35:52.746Z</time>
      </trkpt>
      <trkpt lat="48.40521" lon="5.08035">
        <ele>343.17</ele>
        <time>2025-01-04T11:35:55.461Z</time>
      </trkpt>
      <trkpt lat="48.40546" lon="5.08053">
        <ele>343.64</ele>
        <time>2025-01-04T11:35:58.181Z</time>
      </trkpt>
      <trkpt lat="48.40565" lon="5.0808">
        <ele>344.11</ele>
        <time>2025-01-04T11:36:00.905Z</time>
      </trkpt>
      <trkpt lat="48.40572" lon="5.08086">
        <ele>344.48</ele>
        <time>2025-01-04T11:36:03.630Z</time>
      </trkpt>
      <trkpt lat="48.40592" lon="5.08102">
        <ele>344.86</ele>
        <time>2025-01-04T11:36:06.359Z</time>
      </trkpt>
      <trkpt lat="48.40608" lon="5.08112">
        <ele>345.18</ele>
        <time>2025-01-04T11:36:09.091Z</time>
      </trkpt>
      <trkpt lat="48.40624" lon="5.08123">
        <ele>345.41</ele>
        <time>2025-01-04T11:36:11.826Z</time>
      </trkpt>
      <trkpt lat="48.40648" lon="5.08137">
        <ele>345.58</ele>
        <time>2025-01-04T11:36:14.565Z</time>
      </trkpt>
      <trkpt lat="48.40673" lon="5.08151">
        <ele>345.7</ele>
        <time>2025-01-04T11:36:17.308Z</time>
      </trkpt>
      <trkpt lat="48.40694" lon="5.08162">
        <ele>345.75</ele>
        <time>2025-01-04T11:36:20.055Z</time>
      </trkpt>
      <trkpt lat="48.40719" lon="5.08163">
        <ele>345.64</ele>
        <time>2025-01-04T11:36:22.806Z</time>
      </trkpt>
      <trkpt lat="48.40747" lon="5.08162">
        <ele>345.44</ele>
        <time>2025-01-04T11:36:25.561Z</time>
      </trkpt>
      <trkpt lat="48.40767" lon="5.0816">
        <ele>345.27</ele>
        <time>2025-01-04T11:36:28.319Z</time>
      </trkpt>
      <trkpt lat="48.40787" lon="5.08159">
        <ele>345.07</ele>
        <time>2025-01-04T11:36:31.081Z</time>
      </trkpt>
      <trkpt lat="48.40814" lon="5.08161">
        <ele>344.87</ele>
        <time>2025-01-04T11:36:33.847Z</time>
      </trkpt>
      <trkpt lat="48.40841" lon="5.08163">
        <ele>344.71</ele>
        <time>2025-01-04T11:36:36.617Z</time>
      </trkpt>
      <trkpt lat="48.40851" lon="5.08168">
        <ele>344.54</ele>
        <time>2025-01-04T11:36:39.389Z</time>
      </trkpt>
      <trkpt lat="48.40867" lon="5.08182">
        <ele>344.35</ele>
        <time>2025-01-04T11:36:42.164Z</time>
      </trkpt>
      <trkpt lat="48.40874" lon="5.08191">
        <ele>344.17</ele>
        <time>2025-01-04T11:36:44.940Z</time>
      </trkpt>
      <trkpt lat="48.40884" lon="5.08216">
        <ele>344.01</ele>
        <time>2025-01-04T11:36:47.719Z</time>
      </trkpt>
      <trkpt lat="48.40894" lon="5.0824">
        <ele>343.85</ele>
        <time>2025-01-04T11:36:50.501Z</time>
      </trkpt>
      <trkpt lat="48.40905" lon="5.08263">
        <ele>343.73</ele>
        <time>2025-01-04T11:36:53.286Z</time>
      </trkpt>
      <trkpt lat="48.40915" lon="5.08285">
        <ele>343.62</ele>
        <time>2025-01-04T11:36:56.074Z</time>
      </trkpt>
      <trkpt lat="48.40936" lon="5.08318">
        <ele>343.51</ele>
        <time>2025-01-04T11:36:58.867Z</time>
      </trkpt>
      <trkpt lat="48.40942" lon="5.08327">
        <ele>343.39</ele>
        <time>2025-01-04T11:37:01.661Z</time>
      </trkpt>
      <trkpt lat="48.40944" lon="5.08339">
        <ele>343.28</ele>
        <time>2025-01-04T11:37:04.457Z</time>
      </trkpt>
      <trkpt lat="48.40945" lon="5.08345">
        <ele>343.19</ele>
        <time>2025-01-04T11:37:07.253Z</time>
      </trkpt>
      <trkpt lat="48.40945" lon="5.08352">
        <ele>343.12</ele>
        <time>2025-01-04T11:37:10.050Z</time>
      </trkpt>
      <trkpt lat="48.40947" lon="5.08374">
        <ele>343.06</ele>
        <time>2025-01-04T11:37:12.850Z</time>
      </trkpt>
      <trkpt lat="48.4095" lon="5.08397">
        <ele>343.01</ele>
        <time>2025-01-04T11:37:15.652Z</time>
      </trkpt>
      <trkpt lat="48.40954" lon="5.08411">
        <ele>342.97</ele>
        <time>2025-01-04T11:37:18.456Z</time>
      </trkpt>
      <trkpt lat="48.40957" lon="5.08419">
        <ele>342.97</ele>
        <time>2025-01-04T11:37:21.261Z</time>
      </trkpt>
      <trkpt lat="48.40966" lon="5.08444">
        <ele>342.99</ele>
        <time>2025-01-04T11:37:24.069Z</time>
      </trkpt>
      <trkpt lat="48.40975" lon="5.08469">
        <ele>343.09</ele>
        <time>2025-01-04T11:37:26.880Z</time>
      </trkpt>
      <trkpt lat="48.40986" lon="5.085">
        <ele>343.24</ele>
        <time>2025-01-04T11:37:29.695Z</time>
      </trkpt>
      <trkpt lat="48.40997" lon="5.08531">
        <ele>343.4</ele>
        <time>2025-01-04T11:37:32.513Z</time>
      </trkpt>
      <trkpt lat="48.41008" lon="5.08559">
        <ele>343.52</ele>
        <time>2025-01-04T11:37:35.335Z</time>
      </trkpt>
      <trkpt lat="48.41018" lon="5.08586">
        <ele>343.65</ele>
        <time>2025-01-04T11:37:38.160Z</time>
      </trkpt>
      <trkpt lat="48.41029" lon="5.08612">
        <ele>343.77</ele>
        <time>2025-01-04T11:37:40.988Z</time>
      </trkpt>
      <trkpt lat="48.4104" lon="5.08639">
        <ele>343.91</ele>
        <time>2025-01-04T11:37:43.820Z</time>
      </trkpt>
      <trkpt lat="48.41054" lon="5.08666">
        <ele>344.09</ele>
        <time>2025-01-04T11:37:46.655Z</time>
      </trkpt>
      <trkpt lat="48.41067" lon="5.08693">
        <ele>344.27</ele>
        <time>2025-01-04T11:37:49.494Z</time>
      </trkpt>
      <trkpt lat="48.41085" lon="5.08721">
        <ele>344.44</ele>
        <time>2025-01-04T11:37:52.337Z</time>
      </trkpt>
      <trkpt lat="48.41103" lon="5.08749">
        <ele>344.57</ele>
        <time>2025-01-04T11:37:55.184Z</time>
      </trkpt>
      <trkpt lat="48.4112" lon="5.08774">
        <ele>344.71</ele>
        <time>2025-01-04T11:37:58.035Z</time>
      </trkpt>
      <trkpt lat="48.41137" lon="5.08798">
        <ele>344.86</ele>
        <time>2025-01-04T11:38:00.890Z</time>
      </trkpt>
      <trkpt lat="48.41154" lon="5.08823">
        <ele>344.98</ele>
        <time>2025-01-04T11:38:03.748Z</time>
      </trkpt>
      <trkpt lat="48.41171" lon="5.08847">
        <ele>345.16</ele>
        <time>2025-01-04T11:38:06.610Z</time>
      </trkpt>
      <trkpt lat="48.41192" lon="5.08876">
        <ele>345.3</ele>
        <time>2025-01-04T11:38:09.477Z</time>
      </trkpt>
      <trkpt lat="48.41212" lon="5.08905">
        <ele>345.42</ele>
        <time>2025-01-04T11:38:12.348Z</time>
      </trkpt>
      <trkpt lat="48.41225" lon="5.08924">
        <ele>345.49</ele>
        <time>2025-01-04T11:38:15.222Z</time>
      </trkpt>
      <trkpt lat="48.41239" lon="5.08943">
        <ele>345.57</ele>
        <time>2025-01-04T11:38:18.099Z</time>
      </trkpt>
      <trkpt lat="48.41257" lon="5.0897">
        <ele>345.63</ele>
        <time>2025-01-04T11:38:20.980Z</time>
      </trkpt>
      <trkpt lat="48.41276" lon="5.08996">
        <ele>345.61</ele>
        <time>2025-01-04T11:38:23.865Z</time>
      </trkpt>
      <trkpt lat="48.41293" lon="5.0902">
        <ele>345.58</ele>
        <time>2025-01-04T11:38:26.754Z</time>
      </trkpt>
      <trkpt lat="48.41309" lon="5.09044">
        <ele>345.55</ele>
        <time>2025-01-04T11:38:29.647Z</time>
      </trkpt>
      <trkpt lat="48.41331" lon="5.09073">
        <ele>345.46</ele>
        <time>2025-01-04T11:38:32.544Z</time>
      </trkpt>
      <trkpt lat="48.41352" lon="5.09103">
        <ele>345.35</ele>
        <time>2025-01-04T11:38:35.446Z</time>
      </trkpt>
      <trkpt lat="48.41374" lon="5.09133">
        <ele>345.21</ele>
        <time>2025-01-04T11:38:38.353Z</time>
      </trkpt>
      <trkpt lat="48.41396" lon="5.09163">
        <ele>345.08</ele>
        <time>2025-01-04T11:38:41.265Z</time>
      </trkpt>
      <trkpt lat="48.41401" lon="5.09171">
        <ele>344.89</ele>
        <time>2025-01-04T11:38:44.178Z</time>
      </trkpt>
      <trkpt lat="48.41416" lon="5.09191">
        <ele>344.66</ele>
        <time>2025-01-04T11:38:47.094Z</time>
      </trkpt>
      <trkpt lat="48.4143" lon="5.09211">
        <ele>344.36</ele>
        <time>2025-01-04T11:38:50.013Z</time>
      </trkpt>
      <trkpt lat="48.41449" lon="5.09238">
        <ele>344.06</ele>
        <time>2025-01-04T11:38:52.936Z</time>
      </trkpt>
      <trkpt lat="48.41468" lon="5.09264">
        <ele>343.83</ele>
        <time>2025-01-04T11:38:55.863Z</time>
      </trkpt>
      <trkpt lat="48.4149" lon="5.09294">
        <ele>343.55</ele>
        <time>2025-01-04T11:38:58.795Z</time>
      </trkpt>
      <trkpt lat="48.41511" lon="5.09323">
        <ele>343.25</ele>
        <time>2025-01-04T11:39:01.732Z</time>
      </trkpt>
      <trkpt lat="48.41531" lon="5.0935">
        <ele>342.87</ele>
        <time>2025-01-04T11:39:04.673Z</time>
      </trkpt>
      <trkpt lat="48.4155" lon="5.09377">
        <ele>342.39</ele>
        <time>2025-01-04T11:39:07.618Z</time>
      </trkpt>
      <trkpt lat="48.41571" lon="5.09403">
        <ele>341.92</ele>
        <time>2025-01-04T11:39:10.568Z</time>
      </trkpt>
      <trkpt lat="48.41592" lon="5.0943">
        <ele>341.48</ele>
        <time>2025-01-04T11:39:13.522Z</time>
      </trkpt>
      <trkpt lat="48.41599" lon="5.0944">
        <ele>341.03</ele>
        <time>2025-01-04T11:39:16.477Z</time>
      </trkpt>
      <trkpt lat="48.41623" lon="5.09469">
        <ele>340.5</ele>
        <time>2025-01-04T11:39:19.437Z</time>
      </trkpt>
      <trkpt lat="48.41646" lon="5.09499">
        <ele>339.95</ele>
        <time>2025-01-04T11:39:22.402Z</time>
      </trkpt>
      <trkpt lat="48.41669" lon="5.09529">
        <ele>339.46</ele>
        <time>2025-01-04T11:39:25.372Z</time>
      </trkpt>
      <trkpt lat="48.41692" lon="5.09559">
        <ele>338.98</ele>
        <time>2025-01-04T11:39:28.347Z</time>
      </trkpt>
      <trkpt lat="48.41708" lon="5.09579">
        <ele>338.53</ele>
        <time>2025-01-04T11:39:31.325Z</time>
      </trkpt>
      <trkpt lat="48.4173" lon="5.09607">
        <ele>338.13</ele>
        <time>2025-01-04T11:39:34.308Z</time>
      </trkpt>
      <trkpt lat="48.41751" lon="5.09635">
        <ele>337.81</ele>
        <time>2025-01-04T11:39:37.296Z</time>
      </trkpt>
      <trkpt lat="48.41772" lon="5.09661">
        <ele>337.49</ele>
        <time>2025-01-04T11:39:40.288Z</time>
      </trkpt>
      <trkpt lat="48.41793" lon="5.09688">
        <ele>337.18</ele>
        <time>2025-01-04T11:39:43.284Z</time>
      </trkpt>
      <trkpt lat="48.41799" lon="5.09696">
        <ele>336.96</ele>
        <time>2025-01-04T11:39:46.282Z</time>
      </trkpt>
      <trkpt lat="48.41822" lon="5.09726">
        <ele>336.79</ele>
        <time>2025-01-04T11:39:49.284Z</time>
      </trkpt>
      <trkpt lat="48.41845" lon="5.09755">
        <ele>336.76</ele>
        <time>2025-01-04T11:39:52.291Z</time>
      </trkpt>
      <trkpt lat="48.41866" lon="5.09782">
        <ele>336.79</ele>
        <time>2025-01-04T11:39:55.303Z</time>
      </trkpt>
      <trkpt lat="48.41887" lon="5.09809">
        <ele>336.81</ele>
        <time>2025-01-04T11:39:58.319Z</time>
      </trkpt>
      <trkpt lat="48.41892" lon="5.09816">
        <ele>336.85</ele>
        <time>2025-01-04T11:40:01.336Z</time>
      </trkpt>
      <trkpt lat="48.41908" lon="5.09836">
        <ele>336.96</ele>
        <time>2025-01-04T11:40:04.356Z</time>
      </trkpt>
      <trkpt lat="48.41923" lon="5.09856">
        <ele>337.14</ele>
        <time>2025-01-04T11:40:07.380Z</time>
      </trkpt>
      <trkpt lat="48.41938" lon="5.09875">
        <ele>337.34</ele>
        <time>2025-01-04T11:40:10.407Z</time>
      </trkpt>
      <trkpt lat="48.41954" lon="5.09894">
        <ele>337.61</ele>
        <time>2025-01-04T11:40:13.437Z</time>
      </trkpt>
      <trkpt lat="48.41971" lon="5.09918">
        <ele>337.9</ele>
        <time>2025-01-04T11:40:16.471Z</time>
      </trkpt>
      <trkpt lat="48.41989" lon="5.09941">
        <ele>338.16</ele>
        <time>2025-01-04T11:40:19.509Z</time>
      </trkpt>
      <trkpt lat="48.42006" lon="5.09965">
        <ele>338.43</ele>
        <time>2025-01-04T11:40:22.550Z</time>
      </trkpt>
      <trkpt lat="48.42023" lon="5.09988">
        <ele>338.74</ele>
        <time>2025-01-04T11:40:25.595Z</time>
      </trkpt>
      <trkpt lat="48.42039" lon="5.10011">
        <ele>339.08</ele>
        <time>2025-01-04T11:40:28.644Z</time>
      </trkpt>
      <trkpt lat="48.42056" lon="5.10033">
        <ele>339.46</ele>
        <time>2025-01-04T11:40:31.696Z</time>
      </trkpt>
      <trkpt lat="48.42075" lon="5.10061">
        <ele>339.78</ele>
        <time>2025-01-04T11:40:34.752Z</time>
      </trkpt>
      <trkpt lat="48.4208" lon="5.10068">
        <ele>340.09</ele>
        <time>2025-01-04T11:40:37.810Z</time>
      </trkpt>
      <trkpt lat="48.42097" lon="5.10091">
        <ele>340.33</ele>
        <time>2025-01-04T11:40:40.871Z</time>
      </trkpt>
      <trkpt lat="48.42114" lon="5.10114">
        <ele>340.55</ele>
        <time>2025-01-04T11:40:43.936Z</time>
      </trkpt>
      <trkpt lat="48.42134" lon="5.10142">
        <ele>340.79</ele>
        <time>2025-01-04T11:40:47.005Z</time>
      </trkpt>
      <trkpt lat="48.42154" lon="5.1017">
        <ele>341.08</ele>
        <time>2025-01-04T11:40:50.079Z</time>
      </trkpt>
      <trkpt lat="48.42169" lon="5.1019">
        <ele>341.4</ele>
        <time>2025-01-04T11:40:53.156Z</time>
      </trkpt>
      <trkpt lat="48.42183" lon="5.1021">
        <ele>341.72</ele>
        <time>2025-01-04T11:40:56.236Z</time>
      </trkpt>
      <trkpt lat="48.422" lon="5.10233">
        <ele>341.99</ele>
        <time>2025-01-04T11:40:59.320Z</time>
      </trkpt>
      <trkpt lat="48.42217" lon="5.10257">
        <ele>342.26</ele>
        <time>2025-01-04T11:41:02.407Z</time>
      </trkpt>
      <trkpt lat="48.42234" lon="5.1028">
        <ele>342.56</ele>
        <time>2025-01-04T11:41:05.498Z</time>
      </trkpt>
      <trkpt lat="48.42251" lon="5.10304">
        <ele>342.86</ele>
        <time>2025-01-04T11:41:08.593Z</time>
      </trkpt>
      <trkpt lat="48.42272" lon="5.10334">
        <ele>343.16</ele>
        <time>2025-01-04T11:41:11.692Z</time>
      </trkpt>
      <trkpt lat="48.42292" lon="5.10364">
        <ele>343.4</ele>
        <time>2025-01-04T11:41:14.796Z</time>
      </trkpt>
      <trkpt lat="48.42305" lon="5.10383">
        <ele>343.62</ele>
        <time>2025-01-04T11:41:17.903Z</time>
      </trkpt>
      <trkpt lat="48.42318" lon="5.10403">
        <ele>343.91</ele>
        <time>2025-01-04T11:41:21.013Z</time>
      </trkpt>
      <trkpt lat="48.42322" lon="5.10409">
        <ele>344.08</ele>
        <time>2025-01-04T11:41:24.124Z</time>
      </trkpt>
      <trkpt lat="48.42337" lon="5.10433">
        <ele>344.34</ele>
        <time>2025-01-04T11:41:27.238Z</time>
      </trkpt>
      <trkpt lat="48.4235" lon="5.10452">
        <ele>344.4</ele>
        <time>2025-01-04T11:41:30.355Z</time>
      </trkpt>
      <trkpt lat="48.42362" lon="5.10472">
        <ele>344.4</ele>
        <time>2025-01-04T11:41:33.475Z</time>
      </trkpt>
      <trkpt lat="48.42366" lon="5.10478">
        <ele>344.35</ele>
        <time>2025-01-04T11:41:36.596Z</time>
      </trkpt>
      <trkpt lat="48.42373" lon="5.10489">
        <ele>344.25</ele>
        <time>2025-01-04T11:41:39.718Z</time>
      </trkpt>
      <trkpt lat="48.42376" lon="5.10495">
        <ele>344.14</ele>
        <time>2025-01-04T11:41:42.841Z</time>
      </trkpt>
      <trkpt lat="48.4239" lon="5.10523">
        <ele>343.94</ele>
        <time>2025-01-04T11:41:45.968Z</time>
      </trkpt>
      <trkpt lat="48.42402" lon="5.10548">
        <ele>343.75</ele>
        <time>2025-01-04T11:41:49.098Z</time>
      </trkpt>
      <trkpt lat="48.42414" lon="5.10572">
        <ele>343.58</ele>
        <time>2025-01-04T11:41:52.232Z</time>
      </trkpt>
      <trkpt lat="48.42431" lon="5.10608">
        <ele>343.29</ele>
        <time>2025-01-04T11:41:55.370Z</time>
      </trkpt>
      <trkpt lat="48.42449" lon="5.10644">
        <ele>343.03</ele>
        <time>2025-01-04T11:41:58.513Z</time>
      </trkpt>
      <trkpt lat="48.42453" lon="5.10653">
        <ele>342.78</ele>
        <time>2025-01-04T11:42:01.657Z</time>
      </trkpt>
      <trkpt lat="48.4247" lon="5.10687">
        <ele>342.4</ele>
        <time>2025-01-04T11:42:04.806Z</time>
      </trkpt>
      <trkpt lat="48.42486" lon="5.10721">
        <ele>342.01</ele>
        <time>2025-01-04T11:42:07.959Z</time>
      </trkpt>
      <trkpt lat="48.42504" lon="5.10745">
        <ele>341.65</ele>
        <time>2025-01-04T11:42:11.116Z</time>
      </trkpt>
      <trkpt lat="48.42523" lon="5.1077">
        <ele>341.35</ele>
        <time>2025-01-04T11:42:14.277Z</time>
      </trkpt>
      <trkpt lat="48.42538" lon="5.10777">
        <ele>341.19</ele>
        <time>2025-01-04T11:42:17.440Z</time>
      </trkpt>
      <trkpt lat="48.42546" lon="5.1078">
        <ele>341.04</ele>
        <time>2025-01-04T11:42:20.605Z</time>
      </trkpt>
      <trkpt lat="48.42567" lon="5.10781">
        <ele>340.95</ele>
        <time>2025-01-04T11:42:23.773Z</time>
      </trkpt>
      <trkpt lat="48.42587" lon="5.10781">
        <ele>340.86</ele>
        <time>2025-01-04T11:42:26.944Z</time>
      </trkpt>
      <trkpt lat="48.42613" lon="5.10782">
        <ele>340.75</ele>
        <time>2025-01-04T11:42:30.120Z</time>
      </trkpt>
      <trkpt lat="48.42639" lon="5.10782">
        <ele>340.6</ele>
        <time>2025-01-04T11:42:33.300Z</time>
      </trkpt>
      <trkpt lat="48.42653" lon="5.10782">
        <ele>340.48</ele>
        <time>2025-01-04T11:42:36.482Z</time>
      </trkpt>
      <trkpt lat="48.42674" lon="5.10783">
        <ele>340.41</ele>
        <time>2025-01-04T11:42:39.667Z</time>
      </trkpt>
      <trkpt lat="48.42691" lon="5.10783">
        <ele>340.38</ele>
        <time>2025-01-04T11:42:42.855Z</time>
      </trkpt>
      <trkpt lat="48.42707" lon="5.10783">
        <ele>340.41</ele>
        <time>2025-01-04T11:42:46.046Z</time>
      </trkpt>
      <trkpt lat="48.42738" lon="5.10784">
        <ele>340.48</ele>
        <time>2025-01-04T11:42:49.242Z</time>
      </trkpt>
      <trkpt lat="48.42744" lon="5.10784">
        <ele>340.48</ele>
        <time>2025-01-04T11:42:52.438Z</time>
      </trkpt>
      <trkpt lat="48.42761" lon="5.10784">
        <ele>340.49</ele>
        <time>2025-01-04T11:42:55.637Z</time>
      </trkpt>
      <trkpt lat="48.42779" lon="5.10785">
        <ele>340.47</ele>
        <time>2025-01-04T11:42:58.839Z</time>
      </trkpt>
      <trkpt lat="48.42796" lon="5.10785">
        <ele>340.46</ele>
        <time>2025-01-04T11:43:02.044Z</time>
      </trkpt>
      <trkpt lat="48.42813" lon="5.10785">
        <ele>340.41</ele>
        <time>2025-01-04T11:43:05.252Z</time>
      </trkpt>
      <trkpt lat="48.4284" lon="5.10786">
        <ele>340.29</ele>
        <time>2025-01-04T11:43:08.464Z</time>
      </trkpt>
      <trkpt lat="48.42845" lon="5.10786">
        <ele>340.1</ele>
        <time>2025-01-04T11:43:11.677Z</time>
      </trkpt>
      <trkpt lat="48.42863" lon="5.10786">
        <ele>339.84</ele>
        <time>2025-01-04T11:43:14.893Z</time>
      </trkpt>
      <trkpt lat="48.4288" lon="5.10786">
        <ele>339.54</ele>
        <time>2025-01-04T11:43:18.111Z</time>
      </trkpt>
      <trkpt lat="48.4291" lon="5.10787">
        <ele>339.22</ele>
        <time>2025-01-04T11:43:21.334Z</time>
      </trkpt>
      <trkpt lat="48.4293" lon="5.10787">
        <ele>338.75</ele>
        <time>2025-01-04T11:43:24.560Z</time>
      </trkpt>
      <trkpt lat="48.4295" lon="5.10788">
        <ele>338.22</ele>
        <time>2025-01-04T11:43:27.790Z</time>
      </trkpt>
      <trkpt lat="48.42958" lon="5.10788">
        <ele>337.65</ele>
        <time>2025-01-04T11:43:31.021Z</time>
      </trkpt>
      <trkpt lat="48.42989" lon="5.10788">
        <ele>336.94</ele>
        <time>2025-01-04T11:43:34.257Z</time>
      </trkpt>
      <trkpt lat="48.43012" lon="5.10789">
        <ele>336.14</ele>
        <time>2025-01-04T11:43:37.496Z</time>
      </trkpt>
      <trkpt lat="48.43035" lon="5.10789">
        <ele>335.25</ele>
        <time>2025-01-04T11:43:40.739Z</time>
      </trkpt>
      <trkpt lat="48.43051" lon="5.1079">
        <ele>334.33</ele>
        <time>2025-01-04T11:43:43.985Z</time>
      </trkpt>
      <trkpt lat="48.43067" lon="5.1079">
        <ele>333.4</ele>
        <time>2025-01-04T11:43:47.233Z</time>
      </trkpt>
      <trkpt lat="48.43088" lon="5.10791">
        <ele>332.44</ele>
        <time>2025-01-04T11:43:50.485Z</time>
      </trkpt>
      <trkpt lat="48.43097" lon="5.10794">
        <ele>331.43</ele>
        <time>2025-01-04T11:43:53.738Z</time>
      </trkpt>
      <trkpt lat="48.431" lon="5.10801">
        <ele>330.33</ele>
        <time>2025-01-04T11:43:56.992Z</time>
      </trkpt>
      <trkpt lat="48.43109" lon="5.10817">
        <ele>329.14</ele>
        <time>2025-01-04T11:44:00.248Z</time>
      </trkpt>
      <trkpt lat="48.43129" lon="5.10852">
        <ele>327.83</ele>
        <time>2025-01-04T11:44:03.509Z</time>
      </trkpt>
      <trkpt lat="48.43149" lon="5.10882">
        <ele>326.44</ele>
        <time>2025-01-04T11:44:06.775Z</time>
      </trkpt>
      <trkpt lat="48.43168" lon="5.10913">
        <ele>324.98</ele>
        <time>2025-01-04T11:44:10.045Z</time>
      </trkpt>
      <trkpt lat="48.43183" lon="5.10936">
        <ele>323.53</ele>
        <time>2025-01-04T11:44:13.319Z</time>
      </trkpt>
      <trkpt lat="48.43198" lon="5.10959">
        <ele>322.05</ele>
        <time>2025-01-04T11:44:16.596Z</time>
      </trkpt>
      <trkpt lat="48.43213" lon="5.10982">
        <ele>320.48</ele>
        <time>2025-01-04T11:44:19.876Z</time>
      </trkpt>
      <trkpt lat="48.43217" lon="5.1099">
        <ele>318.96</ele>
        <time>2025-01-04T11:44:23.158Z</time>
      </trkpt>
      <trkpt lat="48.43222" lon="5.10997">
        <ele>317.4</ele>
        <time>2025-01-04T11:44:26.441Z</time>
      </trkpt>
      <trkpt lat="48.43236" lon="5.11022">
        <ele>315.8</ele>
        <time>2025-01-04T11:44:29.727Z</time>
      </trkpt>
      <trkpt lat="48.4325" lon="5.11047">
        <ele>314.18</ele>
        <time>2025-01-04T11:44:33.017Z</time>
      </trkpt>
      <trkpt lat="48.43264" lon="5.11072">
        <ele>312.54</ele>
        <time>2025-01-04T11:44:36.310Z</time>
      </trkpt>
      <trkpt lat="48.43277" lon="5.11101">
        <ele>310.86</ele>
        <time>2025-01-04T11:44:39.607Z</time>
      </trkpt>
      <trkpt lat="48.4329" lon="5.1113">
        <ele>309.12</ele>
        <time>2025-01-04T11:44:42.907Z</time>
      </trkpt>
      <trkpt lat="48.43303" lon="5.11158">
        <ele>307.42</ele>
        <time>2025-01-04T11:44:46.211Z</time>
      </trkpt>
      <trkpt lat="48.43316" lon="5.11197">
        <ele>305.66</ele>
        <time>2025-01-04T11:44:49.520Z</time>
      </trkpt>
      <trkpt lat="48.43328" lon="5.11235">
        <ele>303.96</ele>
        <time>2025-01-04T11:44:52.833Z</time>
      </trkpt>
      <trkpt lat="48.43336" lon="5.11267">
        <ele>302.34</ele>
        <time>2025-01-04T11:44:56.150Z</time>
      </trkpt>
      <trkpt lat="48.43344" lon="5.11309">
        <ele>300.66</ele>
        <time>2025-01-04T11:44:59.472Z</time>
      </trkpt>
      <trkpt lat="48.43352" lon="5.1135">
        <ele>299.03</ele>
        <time>2025-01-04T11:45:02.798Z</time>
      </trkpt>
      <trkpt lat="48.43358" lon="5.11391">
        <ele>297.38</ele>
        <time>2025-01-04T11:45:06.129Z</time>
      </trkpt>
      <trkpt lat="48.43363" lon="5.11431">
        <ele>295.77</ele>
        <time>2025-01-04T11:45:09.464Z</time>
      </trkpt>
      <trkpt lat="48.43365" lon="5.11447">
        <ele>294.27</ele>
        <time>2025-01-04T11:45:12.801Z</time>
      </trkpt>
      <trkpt lat="48.4337" lon="5.1148">
        <ele>292.84</ele>
        <time>2025-01-04T11:45:16.141Z</time>
      </trkpt>
      <trkpt lat="48.43376" lon="5.11513">
        <ele>291.43</ele>
        <time>2025-01-04T11:45:19.485Z</time>
      </trkpt>
      <trkpt lat="48.43388" lon="5.11545">
        <ele>290.08</ele>
        <time>2025-01-04T11:45:22.833Z</time>
      </trkpt>
      <trkpt lat="48.43399" lon="5.11577">
        <ele>288.68</ele>
        <time>2025-01-04T11:45:26.185Z</time>
      </trkpt>
      <trkpt lat="48.43415" lon="5.11614">
        <ele>287.26</ele>
        <time>2025-01-04T11:45:29.541Z</time>
      </trkpt>
      <trkpt lat="48.4343" lon="5.11652">
        <ele>285.86</ele>
        <time>2025-01-04T11:45:32.902Z</time>
      </trkpt>
      <trkpt lat="48.43437" lon="5.11666">
        <ele>284.49</ele>
        <time>2025-01-04T11:45:36.265Z</time>
      </trkpt>
      <trkpt lat="48.43455" lon="5.11699">
        <ele>283.1</ele>
        <time>2025-01-04T11:45:39.632Z</time>
      </trkpt>
      <trkpt lat="48.43473" lon="5.11732">
        <ele>281.89</ele>
        <time>2025-01-04T11:45:43.004Z</time>
      </trkpt>
      <trkpt lat="48.43481" lon="5.11745">
        <ele>280.62</ele>
        <time>2025-01-04T11:45:46.378Z</time>
      </trkpt>
      <trkpt lat="48.435" lon="5.11777">
        <ele>279.22</ele>
        <time>2025-01-04T11:45:49.756Z</time>
      </trkpt>
      <trkpt lat="48.43519" lon="5.11809">
        <ele>277.86</ele>
        <time>2025-01-04T11:45:53.139Z</time>
      </trkpt>
      <trkpt lat="48.43527" lon="5.11821">
        <ele>276.57</ele>
        <time>2025-01-04T11:45:56.524Z</time>
      </trkpt>
      <trkpt lat="48.43544" lon="5.11855">
        <ele>275.26</ele>
        <time>2025-01-04T11:45:59.913Z</time>
      </trkpt>
      <trkpt lat="48.43561" lon="5.11888">
        <ele>273.97</ele>
        <time>2025-01-04T11:46:03.307Z</time>
      </trkpt>
      <trkpt lat="48.43569" lon="5.1192">
        <ele>272.58</ele>
        <time>2025-01-04T11:46:06.704Z</time>
      </trkpt>
      <trkpt lat="48.43577" lon="5.11952">
        <ele>271.18</ele>
        <time>2025-01-04T11:46:10.105Z</time>
      </trkpt>
      <trkpt lat="48.43587" lon="5.11993">
        <ele>269.78</ele>
        <time>2025-01-04T11:46:13.511Z</time>
      </trkpt>
      <trkpt lat="48.43596" lon="5.12035">
        <ele>268.35</ele>
        <time>2025-01-04T11:46:16.921Z</time>
      </trkpt>
      <trkpt lat="48.43602" lon="5.12059">
        <ele>267.07</ele>
        <time>2025-01-04T11:46:20.334Z</time>
      </trkpt>
      <trkpt lat="48.43608" lon="5.12084">
        <ele>265.76</ele>
        <time>2025-01-04T11:46:23.750Z</time>
      </trkpt>
      <trkpt lat="48.43615" lon="5.12117">
        <ele>264.31</ele>
        <time>2025-01-04T11:46:27.170Z</time>
      </trkpt>
      <trkpt lat="48.43623" lon="5.12149">
        <ele>262.79</ele>
        <time>2025-01-04T11:46:30.593Z</time>
      </trkpt>
      <trkpt lat="48.43627" lon="5.12164">
        <ele>261.39</ele>
        <time>2025-01-04T11:46:34.018Z</time>
      </trkpt>
      <trkpt lat="48.4364" lon="5.12189">
        <ele>260.04</ele>
        <time>2025-01-04T11:46:37.446Z</time>
      </trkpt>
      <trkpt lat="48.43652" lon="5.12214">
        <ele>258.7</ele>
        <time>2025-01-04T11:46:40.878Z</time>
      </trkpt>
      <trkpt lat="48.43662" lon="5.12234">
        <ele>257.36</ele>
        <time>2025-01-04T11:46:44.312Z</time>
      </trkpt>
      <trkpt lat="48.43672" lon="5.12254">
        <ele>255.99</ele>
        <time>2025-01-04T11:46:47.749Z</time>
      </trkpt>
      <trkpt lat="48.43677" lon="5.12268">
        <ele>254.6</ele>
        <time>2025-01-04T11:46:51.188Z</time>
      </trkpt>
      <trkpt lat="48.43692" lon="5.12304">
        <ele>253.16</ele>
        <time>2025-01-04T11:46:54.631Z</time>
      </trkpt>
      <trkpt lat="48.43706" lon="5.12339">
        <ele>251.76</ele>
        <time>2025-01-04T11:46:58.079Z</time>
      </trkpt>
      <trkpt lat="48.43711" lon="5.12353">
        <ele>250.41</ele>
        <time>2025-01-04T11:47:01.528Z</time>
      </trkpt>
      <trkpt lat="48.43724" lon="5.12377">
        <ele>249.04</ele>
        <time>2025-01-04T11:47:04.981Z</time>
      </trkpt>
      <trkpt lat="48.43737" lon="5.12401">
        <ele>247.56</ele>
        <time>2025-01-04T11:47:08.437Z</time>
      </trkpt>
      <trkpt lat="48.43751" lon="5.12426">
        <ele>246.09</ele>
        <time>2025-01-04T11:47:11.896Z</time>
      </trkpt>
      <trkpt lat="48.43766" lon="5.1245">
        <ele>244.69</ele>
        <time>2025-01-04T11:47:15.359Z</time>
      </trkpt>
      <trkpt lat="48.4378" lon="5.12474">
        <ele>243.25</ele>
        <time>2025-01-04T11:47:18.825Z</time>
      </trkpt>
      <trkpt lat="48.43793" lon="5.12502">
        <ele>241.76</ele>
        <time>2025-01-04T11:47:22.295Z</time>
      </trkpt>
      <trkpt lat="48.43806" lon="5.12529">
        <ele>240.35</ele>
        <time>2025-01-04T11:47:25.769Z</time>
      </trkpt>
      <trkpt lat="48.43814" lon="5.12561">
        <ele>238.86</ele>
        <time>2025-01-04T11:47:29.246Z</time>
      </trkpt>
      <trkpt lat="48.43822" lon="5.12592">
        <ele>237.45</ele>
        <time>2025-01-04T11:47:32.727Z</time>
      </trkpt>
      <trkpt lat="48.43829" lon="5.12632">
        <ele>236</ele>
        <time>2025-01-04T11:47:36.212Z</time>
      </trkpt>
      <trkpt lat="48.43837" lon="5.12672">
        <ele>234.67</ele>
        <time>2025-01-04T11:47:39.702Z</time>
      </trkpt>
      <trkpt lat="48.43839" lon="5.12688">
        <ele>233.27</ele>
        <time>2025-01-04T11:47:43.193Z</time>
      </trkpt>
      <trkpt lat="48.43844" lon="5.1273">
        <ele>231.77</ele>
        <time>2025-01-04T11:47:46.689Z</time>
      </trkpt>
      <trkpt lat="48.43849" lon="5.12771">
        <ele>230.31</ele>
        <time>2025-01-04T11:47:50.189Z</time>
      </trkpt>
      <trkpt lat="48.43854" lon="5.12811">
        <ele>228.85</ele>
        <time>2025-01-04T11:47:53.694Z</time>
      </trkpt>
      <trkpt lat="48.43859" lon="5.12851">
        <ele>227.22</ele>
        <time>2025-01-04T11:47:57.203Z</time>
      </trkpt>
      <trkpt lat="48.43867" lon="5.12897">
        <ele>225.6</ele>
        <time>2025-01-04T11:48:00.717Z</time>
      </trkpt>
      <trkpt lat="48.43875" lon="5.12942">
        <ele>224.05</ele>
        <time>2025-01-04T11:48:04.236Z</time>
      </trkpt>
      <trkpt lat="48.43886" lon="5.12968">
        <ele>222.7</ele>
        <time>2025-01-04T11:48:07.758Z</time>
      </trkpt>
      <trkpt lat="48.43896" lon="5.12995">
        <ele>221.44</ele>
        <time>2025-01-04T11:48:11.284Z</time>
      </trkpt>
      <trkpt lat="48.43912" lon="5.13033">
        <ele>220.14</ele>
        <time>2025-01-04T11:48:14.814Z</time>
      </trkpt>
      <trkpt lat="48.43928" lon="5.1307">
        <ele>218.84</ele>
        <time>2025-01-04T11:48:18.349Z</time>
      </trkpt>
      <trkpt lat="48.43937" lon="5.13093">
        <ele>217.44</ele>
        <time>2025-01-04T11:48:21.887Z</time>
      </trkpt>
      <trkpt lat="48.43953" lon="5.13131">
        <ele>216.13</ele>
        <time>2025-01-04T11:48:25.430Z</time>
      </trkpt>
      <trkpt lat="48.43969" lon="5.13168">
        <ele>214.85</ele>
        <time>2025-01-04T11:48:28.977Z</time>
      </trkpt>
      <trkpt lat="48.43972" lon="5.1318">
        <ele>213.64</ele>
        <time>2025-01-04T11:48:32.526Z</time>
      </trkpt>
      <trkpt lat="48.43979" lon="5.13217">
        <ele>212.41</ele>
        <time>2025-01-04T11:48:36.079Z</time>
      </trkpt>
      <trkpt lat="48.43986" lon="5.13253">
        <ele>211.3</ele>
        <time>2025-01-04T11:48:39.636Z</time>
      </trkpt>
      <trkpt lat="48.43989" lon="5.13292">
        <ele>210.14</ele>
        <time>2025-01-04T11:48:43.197Z</time>
      </trkpt>
      <trkpt lat="48.43991" lon="5.13329">
        <ele>209.07</ele>
        <time>2025-01-04T11:48:46.762Z</time>
      </trkpt>
      <trkpt lat="48.43989" lon="5.13363">
        <ele>208.02</ele>
        <time>2025-01-04T11:48:50.331Z</time>
      </trkpt>
      <trkpt lat="48.43987" lon="5.13397">
        <ele>207.11</ele>
        <time>2025-01-04T11:48:53.903Z</time>
      </trkpt>
      <trkpt lat="48.43985" lon="5.1343">
        <ele>206.18</ele>
        <time>2025-01-04T11:48:57.479Z</time>
      </trkpt>
      <trkpt lat="48.43983" lon="5.13462">
        <ele>205.33</ele>
        <time>2025-01-04T11:49:01.058Z</time>
      </trkpt>
      <trkpt lat="48.43981" lon="5.13494">
        <ele>204.51</ele>
        <time>2025-01-04T11:49:04.641Z</time>
      </trkpt>
      <trkpt lat="48.4398" lon="5.13504">
        <ele>203.83</ele>
        <time>2025-01-04T11:49:08.225Z</time>
      </trkpt>
      <trkpt lat="48.43983" lon="5.13534">
        <ele>203.15</ele>
        <time>2025-01-04T11:49:11.812Z</time>
      </trkpt>
      <trkpt lat="48.43988" lon="5.13547">
        <ele>202.59</ele>
        <time>2025-01-04T11:49:15.401Z</time>
      </trkpt>
      <trkpt lat="48.43992" lon="5.13561">
        <ele>202.1</ele>
        <time>2025-01-04T11:49:18.991Z</time>
      </trkpt>
      <trkpt lat="48.43996" lon="5.13569">
        <ele>201.69</ele>
        <time>2025-01-04T11:49:22.582Z</time>
      </trkpt>
      <trkpt lat="48.4401" lon="5.13605">
        <ele>201.36</ele>
        <time>2025-01-04T11:49:26.178Z</time>
      </trkpt>
      <trkpt lat="48.44011" lon="5.13611">
        <ele>201.07</ele>
        <time>2025-01-04T11:49:29.774Z</time>
      </trkpt>
      <trkpt lat="48.44013" lon="5.13622">
        <ele>200.84</ele>
        <time>2025-01-04T11:49:33.371Z</time>
      </trkpt>
      <trkpt lat="48.44008" lon="5.13649">
        <ele>200.62</ele>
        <time>2025-01-04T11:49:36.972Z</time>
      </trkpt>
      <trkpt lat="48.44008" lon="5.13652">
        <ele>200.52</ele>
        <time>2025-01-04T11:49:40.573Z</time>
      </trkpt>
      <trkpt lat="48.44006" lon="5.13662">
        <ele>200.43</ele>
        <time>2025-01-04T11:49:44.175Z</time>
      </trkpt>
      <trkpt lat="48.4401" lon="5.1367">
        <ele>200.41</ele>
        <time>2025-01-04T11:49:47.778Z</time>
      </trkpt>
      <trkpt lat="48.44012" lon="5.13671">
        <ele>200.45</ele>
        <time>2025-01-04T11:49:51.381Z</time>
      </trkpt>
      <trkpt lat="48.44027" lon="5.13675">
        <ele>200.56</ele>
        <time>2025-01-04T11:49:54.987Z</time>
      </trkpt>
      <trkpt lat="48.44044" lon="5.1368">
        <ele>200.7</ele>
        <time>2025-01-04T11:49:58.596Z</time>
      </trkpt>
      <trkpt lat="48.44057" lon="5.13682">
        <ele>200.85</ele>
        <time>2025-01-04T11:50:02.207Z</time>
      </trkpt>
      <trkpt lat="48.44075" lon="5.13684">
        <ele>201.01</ele>
        <time>2025-01-04T11:50:05.820Z</time>
      </trkpt>
      <trkpt lat="48.4409" lon="5.13686">
        <ele>201.18</ele>
        <time>2025-01-04T11:50:09.436Z</time>
      </trkpt>
      <trkpt lat="48.44106" lon="5.13688">
        <ele>201.36</ele>
        <time>2025-01-04T11:50:13.054Z</time>
      </trkpt>
      <trkpt lat="48.44121" lon="5.1369">
        <ele>201.5</ele>
        <time>2025-01-04T11:50:16.675Z</time>
      </trkpt>
      <trkpt lat="48.44138" lon="5.13693">
        <ele>201.62</ele>
        <time>2025-01-04T11:50:20.299Z</time>
      </trkpt>
      <trkpt lat="48.4415" lon="5.13695">
        <ele>201.69</ele>
        <time>2025-01-04T11:50:23.925Z</time>
      </trkpt>
      <trkpt lat="48.44162" lon="5.13695">
        <ele>201.72</ele>
        <time>2025-01-04T11:50:27.553Z</time>
      </trkpt>
      <trkpt lat="48.44171" lon="5.13696">
        <ele>201.75</ele>
        <time>2025-01-04T11:50:31.182Z</time>
      </trkpt>
      <trkpt lat="48.44185" lon="5.13697">
        <ele>201.79</ele>
        <time>2025-01-04T11:50:34.813Z</time>
      </trkpt>
      <trkpt lat="48.44192" lon="5.13698">
        <ele>201.77</ele>
        <time>2025-01-04T11:50:38.445Z</time>
      </trkpt>
      <trkpt lat="48.44196" lon="5.13698">
        <ele>201.67</ele>
        <time>2025-01-04T11:50:42.078Z</time>
      </trkpt>
      <trkpt lat="48.44201" lon="5.13698">
        <ele>201.54</ele>
        <time>2025-01-04T11:50:45.712Z</time>
      </trkpt>
      <trkpt lat="48.44206" lon="5.13699">
        <ele>201.35</ele>
        <time>2025-01-04T11:50:49.347Z</time>
      </trkpt>
      <trkpt lat="48.44206" lon="5.13699">
        <ele>201.1</ele>
        <time>2025-01-04T11:50:52.982Z</time>
      </trkpt>
      <trkpt lat="48.44207" lon="5.13716">
        <ele>200.71</ele>
        <time>2025-01-04T11:50:56.618Z</time>
      </trkpt>
      <trkpt lat="48.44207" lon="5.13721">
        <ele>200.33</ele>
        <time>2025-01-04T11:51:00.255Z</time>
      </trkpt>
      <trkpt lat="48.44207" lon="5.13729">
        <ele>199.9</ele>
        <time>2025-01-04T11:51:03.893Z</time>
      </trkpt>
      <trkpt lat="48.44207" lon="5.13731">
        <ele>199.47</ele>
        <time>2025-01-04T11:51:07.531Z</time>
      </trkpt>
      <trkpt lat="48.44208" lon="5.13748">
        <ele>198.91</ele>
        <time>2025-01-04T11:51:11.171Z</time>
      </trkpt>
      <trkpt lat="48.44208" lon="5.13761">
        <ele>198.36</ele>
        <time>2025-01-04T11:51:14.812Z</time>
      </trkpt>
      <trkpt lat="48.44209" lon="5.1378">
        <ele>197.77</ele>
        <time>2025-01-04T11:51:18.455Z</time>
      </trkpt>
      <trkpt lat="48.44209" lon="5.13786">
        <ele>197.24</ele>
        <time>2025-01-04T11:51:22.099Z</time>
      </trkpt>
      <trkpt lat="48.44209" lon="5.1379">
        <ele>196.71</ele>
        <time>2025-01-04T11:51:25.743Z</time>
      </trkpt>
      <trkpt lat="48.44209" lon="5.13802">
        <ele>196.15</ele>
        <time>2025-01-04T11:51:29.389Z</time>
      </trkpt>
      <trkpt lat="48.44215" lon="5.13818">
        <ele>195.57</ele>
        <time>2025-01-04T11:51:33.037Z</time>
      </trkpt>
      <trkpt lat="48.44216" lon="5.13826">
        <ele>195.07</ele>
        <time>2025-01-04T11:51:36.685Z</time>
      </trkpt>
      <trkpt lat="48.44219" lon="5.13838">
        <ele>194.58</ele>
        <time>2025-01-04T11:51:40.335Z</time>
      </trkpt>
      <trkpt lat="48.4422" lon="5.13847">
        <ele>194.14</ele>
        <time>2025-01-04T11:51:43.986Z</time>
      </trkpt>
      <trkpt lat="48.44221" lon="5.13851">
        <ele>193.76</ele>
        <time>2025-01-04T11:51:47.637Z</time>
      </trkpt>
      <trkpt lat="48.44203" lon="5.13858">
        <ele>193.42</ele>
        <time>2025-01-04T11:51:51.291Z</time>
      </trkpt>
      <trkpt lat="48.44195" lon="5.13859">
        <ele>193.13</ele>
        <time>2025-01-04T11:51:54.946Z</time>
      </trkpt>
      <trkpt lat="48.4419" lon="5.1386">
        <ele>192.9</ele>
        <time>2025-01-04T11:51:58.602Z</time>
      </trkpt>
      <trkpt lat="48.44185" lon="5.1386">
        <ele>192.73</ele>
        <time>2025-01-04T11:52:02.259Z</time>
      </trkpt>
      <trkpt lat="48.44174" lon="5.13862">
        <ele>192.63</ele>
        <time>2025-01-04T11:52:05.918Z</time>
      </trkpt>
      <trkpt lat="48.44163" lon="5.13863">
        <ele>192.59</ele>
        <time>2025-01-04T11:52:09.579Z</time>
      </trkpt>
      <trkpt lat="48.44159" lon="5.13864">
        <ele>192.57</ele>
        <time>2025-01-04T11:52:13.240Z</time>
      </trkpt>
      <trkpt lat="48.44157" lon="5.13864">
        <ele>192.59</ele>
        <time>2025-01-04T11:52:16.902Z</time>
      </trkpt>
      <trkpt lat="48.44164" lon="5.13866">
        <ele>192.6</ele>
        <time>2025-01-04T11:52:20.565Z</time>
      </trkpt>
      <trkpt lat="48.44169" lon="5.13864">
        <ele>192.69</ele>
        <time>2025-01-04T11:52:24.228Z</time>
      </trkpt>
      <trkpt lat="48.4417" lon="5.13861">
        <ele>192.83</ele>
        <time>2025-01-04T11:52:27.892Z</time>
      </trkpt>
      <trkpt lat="48.44178" lon="5.13841">
        <ele>193.05</ele>
        <time>2025-01-04T11:52:31.558Z</time>
      </trkpt>
      <trkpt lat="48.44194" lon="5.13832">
        <ele>193.25</ele>
        <time>2025-01-04T11:52:35.227Z</time>
      </trkpt>
      <trkpt lat="48.44203" lon="5.13828">
        <ele>193.52</ele>
        <time>2025-01-04T11:52:38.898Z</time>
      </trkpt>
      <trkpt lat="48.44217" lon="5.1383">
        <ele>193.8</ele>
        <time>2025-01-04T11:52:42.571Z</time>
      </trkpt>
      <trkpt lat="48.44213" lon="5.13808">
        <ele>194.22</ele>
        <time>2025-01-04T11:52:46.246Z</time>
      </trkpt>
      <trkpt lat="48.44213" lon="5.13808">
        <ele>194.56</ele>
        <time>2025-01-04T11:52:49.921Z</time>
      </trkpt>
      <trkpt lat="48.44213" lon="5.13808">
        <ele>194.22</ele>
        <time>2025-01-04T11:52:53.596Z</time>
      </trkpt>
      <trkpt lat="48.44209" lon="5.13804">
        <ele>195.29</ele>
        <time>2025-01-04T11:52:57.272Z</time>
      </trkpt>
      <trkpt lat="48.44209" lon="5.13786">
        <ele>195.76</ele>
        <time>2025-01-04T11:53:00.950Z</time>
      </trkpt>
      <trkpt lat="48.44209" lon="5.13783">
        <ele>196.14</ele>
        <time>2025-01-04T11:53:04.628Z</time>
      </trkpt>
      <trkpt lat="48.44209" lon="5.13781">
        <ele>196.51</ele>
        <time>2025-01-04T11:53:08.307Z</time>
      </trkpt>
      <trkpt lat="48.44209" lon="5.1378">
        <ele>196.86</ele>
        <time>2025-01-04T11:53:11.986Z</time>
      </trkpt>
      <trkpt lat="48.44195" lon="5.13783">
        <ele>197.18</ele>
        <time>2025-01-04T11:53:15.667Z</time>
      </trkpt>
      <trkpt lat="48.44209" lon="5.13778">
        <ele>197.52</ele>
        <time>2025-01-04T11:53:19.350Z</time>
      </trkpt>
      <trkpt lat="48.44209" lon="5.13776">
        <ele>197.82</ele>
        <time>2025-01-04T11:53:23.033Z</time>
      </trkpt>
      <trkpt lat="48.44212" lon="5.13776">
        <ele>198.08</ele>
        <time>2025-01-04T11:53:26.717Z</time>
      </trkpt>
      <trkpt lat="48.44216" lon="5.13776">
        <ele>198.31</ele>
        <time>2025-01-04T11:53:30.401Z</time>
      </trkpt>
      <trkpt lat="48.44221" lon="5.13776">
        <ele>198.51</ele>
        <time>2025-01-04T11:53:34.086Z</time>
      </trkpt>
      <trkpt lat="48.44236" lon="5.13776">
        <ele>198.69</ele>
        <time>2025-01-04T11:53:37.774Z</time>
      </trkpt>
      <trkpt lat="48.4425" lon="5.13774">
        <ele>198.84</ele>
        <time>2025-01-04T11:53:41.464Z</time>
      </trkpt>
      <trkpt lat="48.44252" lon="5.13773">
        <ele>198.92</ele>
        <time>2025-01-04T11:53:45.154Z</time>
      </trkpt>
      <trkpt lat="48.44257" lon="5.13773">
        <ele>198.95</ele>
        <time>2025-01-04T11:53:48.845Z</time>
      </trkpt>
      <trkpt lat="48.44267" lon="5.13772">
        <ele>198.92</ele>
        <time>2025-01-04T11:53:52.538Z</time>
      </trkpt>
      <trkpt lat="48.44272" lon="5.13772">
        <ele>198.84</ele>
        <time>2025-01-04T11:53:56.231Z</time>
      </trkpt>
      <trkpt lat="48.44272" lon="5.13772">
        <ele>198.73</ele>
        <time>2025-01-04T11:53:59.924Z</time>
      </trkpt>
      <trkpt lat="48.44284" lon="5.13772">
        <ele>198.56</ele>
        <time>2025-01-04T11:54:03.619Z</time>
      </trkpt>
      <trkpt lat="48.44295" lon="5.13772">
        <ele>198.35</ele>
        <time>2025-01-04T11:54:07.316Z</time>
      </trkpt>
      <trkpt lat="48.44305" lon="5.13772">
        <ele>198.08</ele>
        <time>2025-01-04T11:54:11.015Z</time>
      </trkpt>
      <trkpt lat="48.44322" lon="5.13772">
        <ele>197.73</ele>
        <time>2025-01-04T11:54:14.716Z</time>
      </trkpt>
      <trkpt lat="48.4432" lon="5.13782">
        <ele>197.39</ele>
        <time>2025-01-04T11:54:18.418Z</time>
      </trkpt>
      <trkpt lat="48.4432" lon="5.13785">
        <ele>197.03</ele>
        <time>2025-01-04T11:54:22.121Z</time>
      </trkpt>
      <trkpt lat="48.44318" lon="5.13795">
        <ele>196.62</ele>
        <time>2025-01-04T11:54:25.825Z</time>
      </trkpt>
      <trkpt lat="48.44317" lon="5.138">
        <ele>196.17</ele>
        <time>2025-01-04T11:54:29.529Z</time>
      </trkpt>
      <trkpt lat="48.44301" lon="5.13804">
        <ele>195.73</ele>
        <time>2025-01-04T11:54:33.236Z</time>
      </trkpt>
      <trkpt lat="48.44291" lon="5.13806">
        <ele>195.23</ele>
        <time>2025-01-04T11:54:36.945Z</time>
      </trkpt>
      <trkpt lat="48.4428" lon="5.13808">
        <ele>194.72</ele>
        <time>2025-01-04T11:54:40.655Z</time>
      </trkpt>
      <trkpt lat="48.44268" lon="5.1381">
        <ele>194.18</ele>
        <time>2025-01-04T11:54:44.367Z</time>
      </trkpt>
      <trkpt lat="48.44264" lon="5.13826">
        <ele>193.55</ele>
        <time>2025-01-04T11:54:48.081Z</time>
      </trkpt>
      <trkpt lat="48.44263" lon="5.13846">
        <ele>192.88</ele>
        <time>2025-01-04T11:54:51.797Z</time>
      </trkpt>
      <trkpt lat="48.44263" lon="5.13851">
        <ele>192.3</ele>
        <time>2025-01-04T11:54:55.514Z</time>
      </trkpt>
      <trkpt lat="48.44267" lon="5.13859">
        <ele>191.73</ele>
        <time>2025-01-04T11:54:59.232Z</time>
      </trkpt>
      <trkpt lat="48.44276" lon="5.13859">
        <ele>191.18</ele>
        <time>2025-01-04T11:55:02.951Z</time>
      </trkpt>
      <trkpt lat="48.44281" lon="5.13859">
        <ele>190.64</ele>
        <time>2025-01-04T11:55:06.671Z</time>
      </trkpt>
      <trkpt lat="48.4428" lon="5.13872">
        <ele>190.08</ele>
        <time>2025-01-04T11:55:10.393Z</time>
      </trkpt>
      <trkpt lat="48.44297" lon="5.13894">
        <ele>189.53</ele>
        <time>2025-01-04T11:55:14.118Z</time>
      </trkpt>
      <trkpt lat="48.44303" lon="5.13903">
        <ele>189.02</ele>
        <time>2025-01-04T11:55:17.844Z</time>
      </trkpt>
      <trkpt lat="48.44306" lon="5.13904">
        <ele>188.54</ele>
        <time>2025-01-04T11:55:21.571Z</time>
      </trkpt>
      <trkpt lat="48.44332" lon="5.13917">
        <ele>188.08</ele>
        <time>2025-01-04T11:55:25.302Z</time>
      </trkpt>
      <trkpt lat="48.44349" lon="5.13925">
        <ele>187.62</ele>
        <time>2025-01-04T11:55:29.036Z</time>
      </trkpt>
      <trkpt lat="48.44362" lon="5.13932">
        <ele>187.19</ele>
        <time>2025-01-04T11:55:32.772Z</time>
      </trkpt>
      <trkpt lat="48.44387" lon="5.13945">
        <ele>186.8</ele>
        <time>2025-01-04T11:55:36.513Z</time>
      </trkpt>
      <trkpt lat="48.444" lon="5.13951">
        <ele>186.47</ele>
        <time>2025-01-04T11:55:40.256Z</time>
      </trkpt>
      <trkpt lat="48.44402" lon="5.13963">
        <ele>186.2</ele>
        <time>2025-01-04T11:55:44.000Z</time>
      </trkpt>
      <trkpt lat="48.44399" lon="5.1397">
        <ele>185.98</ele>
        <time>2025-01-04T11:55:47.745Z</time>
      </trkpt>
      <trkpt lat="48.44393" lon="5.13986">
        <ele>185.77</ele>
        <time>2025-01-04T11:55:51.492Z</time>
      </trkpt>
      <trkpt lat="48.44392" lon="5.13989">
        <ele>185.62</ele>
        <time>2025-01-04T11:55:55.239Z</time>
      </trkpt>
      <trkpt lat="48.44392" lon="5.1399">
        <ele>185.51</ele>
        <time>2025-01-04T11:55:58.986Z</time>
      </trkpt>
      <trkpt lat="48.44392" lon="5.13992">
        <ele>185.45</ele>
        <time>2025-01-04T11:56:02.734Z</time>
      </trkpt>
      <trkpt lat="48.44391" lon="5.13993">
        <ele>185.43</ele>
        <time>2025-01-04T11:56:06.482Z</time>
      </trkpt>
      <trkpt lat="48.44391" lon="5.13994">
        <ele>185.44</ele>
        <time>2025-01-04T11:56:10.230Z</time>
      </trkpt>
      <trkpt lat="48.4439" lon="5.13997">
        <ele>185.49</ele>
        <time>2025-01-04T11:56:13.978Z</time>
      </trkpt>
      <trkpt lat="48.44388" lon="5.14002">
        <ele>185.59</ele>
        <time>2025-01-04T11:56:17.727Z</time>
      </trkpt>
      <trkpt lat="48.44374" lon="5.14016">
        <ele>185.72</ele>
        <time>2025-01-04T11:56:21.478Z</time>
      </trkpt>
      <trkpt lat="48.44369" lon="5.14034">
        <ele>185.86</ele>
        <time>2025-01-04T11:56:25.232Z</time>
      </trkpt>
      <trkpt lat="48.44365" lon="5.14054">
        <ele>186.03</ele>
        <time>2025-01-04T11:56:28.988Z</time>
      </trkpt>
      <trkpt lat="48.44362" lon="5.14086">
        <ele>186.23</ele>
        <time>2025-01-04T11:56:32.747Z</time>
      </trkpt>
      <trkpt lat="48.44361" lon="5.14099">
        <ele>186.42</ele>
        <time>2025-01-04T11:56:36.508Z</time>
      </trkpt>
      <trkpt lat="48.44358" lon="5.14126">
        <ele>186.66</ele>
        <time>2025-01-04T11:56:40.272Z</time>
      </trkpt>
      <trkpt lat="48.44358" lon="5.14131">
        <ele>186.87</ele>
        <time>2025-01-04T11:56:44.036Z</time>
      </trkpt>
      <trkpt lat="48.44351" lon="5.14139">
        <ele>187.08</ele>
        <time>2025-01-04T11:56:47.801Z</time>
      </trkpt>
      <trkpt lat="48.44346" lon="5.14141">
        <ele>187.29</ele>
        <time>2025-01-04T11:56:51.567Z</time>
      </trkpt>
      <trkpt lat="48.44325" lon="5.14149">
        <ele>187.56</ele>
        <time>2025-01-04T11:56:55.337Z</time>
      </trkpt>
      <trkpt lat="48.44305" lon="5.14157">
        <ele>187.79</ele>
        <time>2025-01-04T11:56:59.110Z</time>
      </trkpt>
      <trkpt lat="48.44302" lon="5.14158">
        <ele>187.95</ele>
        <time>2025-01-04T11:57:02.883Z</time>
      </trkpt>
      <trkpt lat="48.44298" lon="5.1416">
        <ele>188.1</ele>
        <time>2025-01-04T11:57:06.657Z</time>
      </trkpt>
      <trkpt lat="48.44294" lon="5.14162">
        <ele>188.23</ele>
        <time>2025-01-04T11:57:10.432Z</time>
      </trkpt>
      <trkpt lat="48.44279" lon="5.14168">
        <ele>188.33</ele>
        <time>2025-01-04T11:57:14.209Z</time>
      </trkpt>
      <trkpt lat="48.44275" lon="5.14169">
        <ele>188.43</ele>
        <time>2025-01-04T11:57:17.987Z</time>
      </trkpt>
      <trkpt lat="48.44275" lon="5.14169">
        <ele>188.5</ele>
        <time>2025-01-04T11:57:21.765Z</time>
      </trkpt>
      <trkpt lat="48.44273" lon="5.1417">
        <ele>188.56</ele>
        <time>2025-01-04T11:57:25.543Z</time>
      </trkpt>
      <trkpt lat="48.44271" lon="5.14171">
        <ele>188.6</ele>
        <time>2025-01-04T11:57:29.322Z</time>
      </trkpt>
      <trkpt lat="48.44272" lon="5.14175">
        <ele>188.63</ele>
        <time>2025-01-04T11:57:33.101Z</time>
      </trkpt>
      <trkpt lat="48.44274" lon="5.14183">
        <ele>188.66</ele>
        <time>2025-01-04T11:57:36.881Z</time>
      </trkpt>
      <trkpt lat="48.44279" lon="5.14209">
        <ele>188.67</ele>
        <time>2025-01-04T11:57:40.664Z</time>
      </trkpt>
      <trkpt lat="48.44285" lon="5.14236">
        <ele>188.63</ele>
        <time>2025-01-04T11:57:44.450Z</time>
      </trkpt>
      <trkpt lat="48.4429" lon="5.14277">
        <ele>188.5</ele>
        <time>2025-01-04T11:57:48.240Z</time>
      </trkpt>
      <trkpt lat="48.4429" lon="5.14305">
        <ele>188.39</ele>
        <time>2025-01-04T11:57:52.033Z</time>
      </trkpt>
      <trkpt lat="48.4429" lon="5.1434">
        <ele>188.29</ele>
        <time>2025-01-04T11:57:55.830Z</time>
      </trkpt>
      <trkpt lat="48.44287" lon="5.14386">
        <ele>188.26</ele>
        <time>2025-01-04T11:57:59.632Z</time>
      </trkpt>
      <trkpt lat="48.44286" lon="5.14404">
        <ele>188.27</ele>
        <time>2025-01-04T11:58:03.436Z</time>
      </trkpt>
      <trkpt lat="48.4429" lon="5.14428">
        <ele>188.29</ele>
        <time>2025-01-04T11:58:07.243Z</time>
      </trkpt>
      <trkpt lat="48.44296" lon="5.14438">
        <ele>188.3</ele>
        <time>2025-01-04T11:58:11.051Z</time>
      </trkpt>
      <trkpt lat="48.44301" lon="5.1445">
        <ele>188.32</ele>
        <time>2025-01-04T11:58:14.860Z</time>
      </trkpt>
      <trkpt lat="48.44303" lon="5.14455">
        <ele>188.34</ele>
        <time>2025-01-04T11:58:18.670Z</time>
      </trkpt>
      <trkpt lat="48.44319" lon="5.14493">
        <ele>188.44</ele>
        <time>2025-01-04T11:58:22.485Z</time>
      </trkpt>
      <trkpt lat="48.44329" lon="5.14515">
        <ele>188.46</ele>
        <time>2025-01-04T11:58:26.303Z</time>
      </trkpt>
      <trkpt lat="48.4434" lon="5.14538">
        <ele>188.52</ele>
        <time>2025-01-04T11:58:30.124Z</time>
      </trkpt>
      <trkpt lat="48.4435" lon="5.14561">
        <ele>188.55</ele>
        <time>2025-01-04T11:58:33.948Z</time>
      </trkpt>
      <trkpt lat="48.44361" lon="5.14583">
        <ele>188.61</ele>
        <time>2025-01-04T11:58:37.775Z</time>
      </trkpt>
      <trkpt lat="48.44376" lon="5.14616">
        <ele>188.7</ele>
        <time>2025-01-04T11:58:41.606Z</time>
      </trkpt>
      <trkpt lat="48.44387" lon="5.14638">
        <ele>188.8</ele>
        <time>2025-01-04T11:58:45.440Z</time>
      </trkpt>
      <trkpt lat="48.44397" lon="5.14661">
        <ele>188.92</ele>
        <time>2025-01-04T11:58:49.277Z</time>
      </trkpt>
      <trkpt lat="48.44408" lon="5.14683">
        <ele>189.06</ele>
        <time>2025-01-04T11:58:53.117Z</time>
      </trkpt>
      <trkpt lat="48.44419" lon="5.14706">
        <ele>189.2</ele>
        <time>2025-01-04T11:58:56.960Z</time>
      </trkpt>
      <trkpt lat="48.44428" lon="5.14726">
        <ele>189.32</ele>
        <time>2025-01-04T11:59:00.805Z</time>
      </trkpt>
      <trkpt lat="48.44438" lon="5.14746">
        <ele>189.44</ele>
        <time>2025-01-04T11:59:04.653Z</time>
      </trkpt>
      <trkpt lat="48.44448" lon="5.14773">
        <ele>189.6</ele>
        <time>2025-01-04T11:59:08.504Z</time>
      </trkpt>
      <trkpt lat="48.44457" lon="5.14799">
        <ele>189.76</ele>
        <time>2025-01-04T11:59:12.358Z</time>
      </trkpt>
      <trkpt lat="48.44465" lon="5.14822">
        <ele>189.92</ele>
        <time>2025-01-04T11:59:16.215Z</time>
      </trkpt>
      <trkpt lat="48.44473" lon="5.14845">
        <ele>190.1</ele>
        <time>2025-01-04T11:59:20.075Z</time>
      </trkpt>
      <trkpt lat="48.44483" lon="5.14873">
        <ele>190.24</ele>
        <time>2025-01-04T11:59:23.938Z</time>
      </trkpt>
      <trkpt lat="48.44493" lon="5.14901">
        <ele>190.32</ele>
        <time>2025-01-04T11:59:27.805Z</time>
      </trkpt>
      <trkpt lat="48.445" lon="5.14924">
        <ele>190.38</ele>
        <time>2025-01-04T11:59:31.674Z</time>
      </trkpt>
      <trkpt lat="48.44508" lon="5.14946">
        <ele>190.45</ele>
        <time>2025-01-04T11:59:35.546Z</time>
      </trkpt>
      <trkpt lat="48.44515" lon="5.14969">
        <ele>190.5</ele>
        <time>2025-01-04T11:59:39.421Z</time>
      </trkpt>
      <trkpt lat="48.44523" lon="5.14991">
        <ele>190.53</ele>
        <time>2025-01-04T11:59:43.298Z</time>
      </trkpt>
      <trkpt lat="48.44531" lon="5.15018">
        <ele>190.55</ele>
        <time>2025-01-04T11:59:47.178Z</time>
      </trkpt>
      <trkpt lat="48.4454" lon="5.15044">
        <ele>190.56</ele>
        <time>2025-01-04T11:59:51.062Z</time>
      </trkpt>
      <trkpt lat="48.44548" lon="5.15069">
        <ele>190.59</ele>
        <time>2025-01-04T11:59:54.949Z</time>
      </trkpt>
      <trkpt lat="48.44556" lon="5.15094">
        <ele>190.58</ele>
        <time>2025-01-04T11:59:58.839Z</time>
      </trkpt>
      <trkpt lat="48.44566" lon="5.15123">
        <ele>190.57</ele>
        <time>2025-01-04T12:00:02.732Z</time>
      </trkpt>
      <trkpt lat="48.44575" lon="5.15151">
        <ele>190.56</ele>
        <time>2025-01-04T12:00:06.628Z</time>
      </trkpt>
      <trkpt lat="48.44584" lon="5.15178">
        <ele>190.49</ele>
        <time>2025-01-04T12:00:10.527Z</time>
      </trkpt>
      <trkpt lat="48.44593" lon="5.15205">
        <ele>190.41</ele>
        <time>2025-01-04T12:00:14.430Z</time>
      </trkpt>
      <trkpt lat="48.44601" lon="5.15227">
        <ele>190.3</ele>
        <time>2025-01-04T12:00:18.335Z</time>
      </trkpt>
      <trkpt lat="48.44608" lon="5.15248">
        <ele>190.16</ele>
        <time>2025-01-04T12:00:22.243Z</time>
      </trkpt>
      <trkpt lat="48.44617" lon="5.15273">
        <ele>190.01</ele>
        <time>2025-01-04T12:00:26.154Z</time>
      </trkpt>
      <trkpt lat="48.44623" lon="5.1529">
        <ele>189.86</ele>
        <time>2025-01-04T12:00:30.067Z</time>
      </trkpt>
      <trkpt lat="48.44636" lon="5.1533">
        <ele>189.67</ele>
        <time>2025-01-04T12:00:33.985Z</time>
      </trkpt>
      <trkpt lat="48.4465" lon="5.1537">
        <ele>189.49</ele>
        <time>2025-01-04T12:00:37.908Z</time>
      </trkpt>
      <trkpt lat="48.4466" lon="5.15401">
        <ele>189.27</ele>
        <time>2025-01-04T12:00:41.834Z</time>
      </trkpt>
      <trkpt lat="48.4467" lon="5.15431">
        <ele>189.11</ele>
        <time>2025-01-04T12:00:45.764Z</time>
      </trkpt>
      <trkpt lat="48.44679" lon="5.15457">
        <ele>188.89</ele>
        <time>2025-01-04T12:00:49.697Z</time>
      </trkpt>
      <trkpt lat="48.44688" lon="5.15483">
        <ele>188.67</ele>
        <time>2025-01-04T12:00:53.633Z</time>
      </trkpt>
      <trkpt lat="48.44699" lon="5.1552">
        <ele>188.48</ele>
        <time>2025-01-04T12:00:57.573Z</time>
      </trkpt>
      <trkpt lat="48.44711" lon="5.15557">
        <ele>188.23</ele>
        <time>2025-01-04T12:01:01.518Z</time>
      </trkpt>
      <trkpt lat="48.44722" lon="5.15592">
        <ele>187.95</ele>
        <time>2025-01-04T12:01:05.467Z</time>
      </trkpt>
      <trkpt lat="48.44733" lon="5.15627">
        <ele>187.65</ele>
        <time>2025-01-04T12:01:09.420Z</time>
      </trkpt>
      <trkpt lat="48.44743" lon="5.15659">
        <ele>187.44</ele>
        <time>2025-01-04T12:01:13.377Z</time>
      </trkpt>
      <trkpt lat="48.44753" lon="5.1569">
        <ele>187.18</ele>
        <time>2025-01-04T12:01:17.337Z</time>
      </trkpt>
      <trkpt lat="48.44766" lon="5.15729">
        <ele>186.97</ele>
        <time>2025-01-04T12:01:21.302Z</time>
      </trkpt>
      <trkpt lat="48.44779" lon="5.15766">
        <ele>186.76</ele>
        <time>2025-01-04T12:01:25.272Z</time>
      </trkpt>
      <trkpt lat="48.44792" lon="5.15802">
        <ele>186.55</ele>
        <time>2025-01-04T12:01:29.246Z</time>
      </trkpt>
      <trkpt lat="48.44804" lon="5.15836">
        <ele>186.36</ele>
        <time>2025-01-04T12:01:33.224Z</time>
      </trkpt>
      <trkpt lat="48.44816" lon="5.1587">
        <ele>186.07</ele>
        <time>2025-01-04T12:01:37.206Z</time>
      </trkpt>
      <trkpt lat="48.44827" lon="5.15904">
        <ele>185.78</ele>
        <time>2025-01-04T12:01:41.192Z</time>
      </trkpt>
      <trkpt lat="48.44838" lon="5.15938">
        <ele>185.51</ele>
        <time>2025-01-04T12:01:45.182Z</time>
      </trkpt>
      <trkpt lat="48.44849" lon="5.15973">
        <ele>185.29</ele>
        <time>2025-01-04T12:01:49.176Z</time>
      </trkpt>
      <trkpt lat="48.44854" lon="5.15989">
        <ele>185.08</ele>
        <time>2025-01-04T12:01:53.172Z</time>
      </trkpt>
      <trkpt lat="48.4486" lon="5.16006">
        <ele>184.94</ele>
        <time>2025-01-04T12:01:57.170Z</time>
      </trkpt>
      <trkpt lat="48.44872" lon="5.16041">
        <ele>184.81</ele>
        <time>2025-01-04T12:02:01.172Z</time>
      </trkpt>
      <trkpt lat="48.44882" lon="5.16069">
        <ele>184.67</ele>
        <time>2025-01-04T12:02:05.178Z</time>
      </trkpt>
      <trkpt lat="48.44891" lon="5.16096">
        <ele>184.49</ele>
        <time>2025-01-04T12:02:09.187Z</time>
      </trkpt>
      <trkpt lat="48.44903" lon="5.16131">
        <ele>184.34</ele>
        <time>2025-01-04T12:02:13.200Z</time>
      </trkpt>
      <trkpt lat="48.44914" lon="5.16165">
        <ele>184.14</ele>
        <time>2025-01-04T12:02:17.217Z</time>
      </trkpt>
      <trkpt lat="48.44926" lon="5.16201">
        <ele>183.94</ele>
        <time>2025-01-04T12:02:21.238Z</time>
      </trkpt>
      <trkpt lat="48.44938" lon="5.16237">
        <ele>183.79</ele>
        <time>2025-01-04T12:02:25.264Z</time>
      </trkpt>
      <trkpt lat="48.44942" lon="5.16247">
        <ele>183.7</ele>
        <time>2025-01-04T12:02:29.291Z</time>
      </trkpt>
      <trkpt lat="48.44951" lon="5.16274">
        <ele>183.62</ele>
        <time>2025-01-04T12:02:33.321Z</time>
      </trkpt>
      <trkpt lat="48.44961" lon="5.163">
        <ele>183.58</ele>
        <time>2025-01-04T12:02:37.354Z</time>
      </trkpt>
      <trkpt lat="48.4497" lon="5.16325">
        <ele>183.57</ele>
        <time>2025-01-04T12:02:41.390Z</time>
      </trkpt>
      <trkpt lat="48.44979" lon="5.16349">
        <ele>183.69</ele>
        <time>2025-01-04T12:02:45.429Z</time>
      </trkpt>
      <trkpt lat="48.44986" lon="5.16366">
        <ele>183.8</ele>
        <time>2025-01-04T12:02:49.470Z</time>
      </trkpt>
      <trkpt lat="48.44995" lon="5.16392">
        <ele>183.94</ele>
        <time>2025-01-04T12:02:53.515Z</time>
      </trkpt>
      <trkpt lat="48.44999" lon="5.16401">
        <ele>184.09</ele>
        <time>2025-01-04T12:02:57.561Z</time>
      </trkpt>
      <trkpt lat="48.45013" lon="5.1644">
        <ele>184.27</ele>
        <time>2025-01-04T12:03:01.611Z</time>
      </trkpt>
      <trkpt lat="48.45024" lon="5.16475">
        <ele>184.45</ele>
        <time>2025-01-04T12:03:05.666Z</time>
      </trkpt>
      <trkpt lat="48.45036" lon="5.16511">
        <ele>184.68</ele>
        <time>2025-01-04T12:03:09.725Z</time>
      </trkpt>
      <trkpt lat="48.45045" lon="5.1655">
        <ele>184.94</ele>
        <time>2025-01-04T12:03:13.788Z</time>
      </trkpt>
      <trkpt lat="48.45054" lon="5.16589">
        <ele>185.25</ele>
        <time>2025-01-04T12:03:17.856Z</time>
      </trkpt>
      <trkpt lat="48.45056" lon="5.16599">
        <ele>185.61</ele>
        <time>2025-01-04T12:03:21.925Z</time>
      </trkpt>
      <trkpt lat="48.45057" lon="5.16616">
        <ele>186.01</ele>
        <time>2025-01-04T12:03:25.996Z</time>
      </trkpt>
      <trkpt lat="48.45058" lon="5.16628">
        <ele>186.43</ele>
        <time>2025-01-04T12:03:30.068Z</time>
      </trkpt>
      <trkpt lat="48.45054" lon="5.16632">
        <ele>186.88</ele>
        <time>2025-01-04T12:03:34.141Z</time>
      </trkpt>
      <trkpt lat="48.45046" lon="5.1664">
        <ele>187.37</ele>
        <time>2025-01-04T12:03:38.215Z</time>
      </trkpt>
      <trkpt lat="48.45041" lon="5.16649">
        <ele>187.91</ele>
        <time>2025-01-04T12:03:42.290Z</time>
      </trkpt>
      <trkpt lat="48.45041" lon="5.16656">
        <ele>188.49</ele>
        <time>2025-01-04T12:03:46.366Z</time>
      </trkpt>
      <trkpt lat="48.45041" lon="5.16666">
        <ele>189.09</ele>
        <time>2025-01-04T12:03:50.443Z</time>
      </trkpt>
      <trkpt lat="48.45039" lon="5.16682">
        <ele>189.74</ele>
        <time>2025-01-04T12:03:54.522Z</time>
      </trkpt>
      <trkpt lat="48.45037" lon="5.16697">
        <ele>190.43</ele>
        <time>2025-01-04T12:03:58.603Z</time>
      </trkpt>
      <trkpt lat="48.45025" lon="5.16711">
        <ele>191.15</ele>
        <time>2025-01-04T12:04:02.686Z</time>
      </trkpt>
      <trkpt lat="48.45021" lon="5.16715">
        <ele>191.86</ele>
        <time>2025-01-04T12:04:06.770Z</time>
      </trkpt>
      <trkpt lat="48.44999" lon="5.16737">
        <ele>192.63</ele>
        <time>2025-01-04T12:04:10.858Z</time>
      </trkpt>
      <trkpt lat="48.44983" lon="5.16752">
        <ele>193.42</ele>
        <time>2025-01-04T12:04:14.949Z</time>
      </trkpt>
      <trkpt lat="48.44968" lon="5.16767">
        <ele>194.23</ele>
        <time>2025-01-04T12:04:19.043Z</time>
      </trkpt>
      <trkpt lat="48.44948" lon="5.16785">
        <ele>195.08</ele>
        <time>2025-01-04T12:04:23.141Z</time>
      </trkpt>
      <trkpt lat="48.44929" lon="5.16804">
        <ele>195.91</ele>
        <time>2025-01-04T12:04:27.242Z</time>
      </trkpt>
      <trkpt lat="48.44913" lon="5.16818">
        <ele>196.73</ele>
        <time>2025-01-04T12:04:31.346Z</time>
      </trkpt>
      <trkpt lat="48.44898" lon="5.16831">
        <ele>197.48</ele>
        <time>2025-01-04T12:04:35.453Z</time>
      </trkpt>
      <trkpt lat="48.44878" lon="5.16846">
        <ele>198.16</ele>
        <time>2025-01-04T12:04:39.564Z</time>
      </trkpt>
      <trkpt lat="48.44859" lon="5.16861">
        <ele>198.86</ele>
        <time>2025-01-04T12:04:43.678Z</time>
      </trkpt>
      <trkpt lat="48.44831" lon="5.16873">
        <ele>199.58</ele>
        <time>2025-01-04T12:04:47.797Z</time>
      </trkpt>
      <trkpt lat="48.44801" lon="5.16882">
        <ele>200.27</ele>
        <time>2025-01-04T12:04:51.921Z</time>
      </trkpt>
      <trkpt lat="48.44776" lon="5.1689">
        <ele>200.87</ele>
        <time>2025-01-04T12:04:56.049Z</time>
      </trkpt>
      <trkpt lat="48.44755" lon="5.16897">
        <ele>201.35</ele>
        <time>2025-01-04T12:05:00.180Z</time>
      </trkpt>
      <trkpt lat="48.44734" lon="5.16903">
        <ele>201.76</ele>
        <time>2025-01-04T12:05:04.315Z</time>
      </trkpt>
      <trkpt lat="48.44712" lon="5.1691">
        <ele>202.12</ele>
        <time>2025-01-04T12:05:08.453Z</time>
      </trkpt>
      <trkpt lat="48.4469" lon="5.16917">
        <ele>202.47</ele>
        <time>2025-01-04T12:05:12.595Z</time>
      </trkpt>
      <trkpt lat="48.44668" lon="5.16924">
        <ele>202.73</ele>
        <time>2025-01-04T12:05:16.740Z</time>
      </trkpt>
      <trkpt lat="48.44653" lon="5.16929">
        <ele>202.88</ele>
        <time>2025-01-04T12:05:20.888Z</time>
      </trkpt>
      <trkpt lat="48.44628" lon="5.16937">
        <ele>202.92</ele>
        <time>2025-01-04T12:05:25.040Z</time>
      </trkpt>
      <trkpt lat="48.44603" lon="5.16944">
        <ele>202.96</ele>
        <time>2025-01-04T12:05:29.196Z</time>
      </trkpt>
      <trkpt lat="48.44586" lon="5.16951">
        <ele>203.02</ele>
        <time>2025-01-04T12:05:33.355Z</time>
      </trkpt>
      <trkpt lat="48.44569" lon="5.16958">
        <ele>203.02</ele>
        <time>2025-01-04T12:05:37.517Z</time>
      </trkpt>
      <trkpt lat="48.44545" lon="5.16968">
        <ele>202.98</ele>
        <time>2025-01-04T12:05:41.683Z</time>
      </trkpt>
      <trkpt lat="48.44524" lon="5.1698">
        <ele>202.92</ele>
        <time>2025-01-04T12:05:45.852Z</time>
      </trkpt>
      <trkpt lat="48.44512" lon="5.16987">
        <ele>202.76</ele>
        <time>2025-01-04T12:05:50.023Z</time>
      </trkpt>
      <trkpt lat="48.44489" lon="5.17001">
        <ele>202.57</ele>
        <time>2025-01-04T12:05:54.198Z</time>
      </trkpt>
      <trkpt lat="48.44478" lon="5.17008">
        <ele>202.34</ele>
        <time>2025-01-04T12:05:58.375Z</time>
      </trkpt>
      <trkpt lat="48.4447" lon="5.17012">
        <ele>202.06</ele>
        <time>2025-01-04T12:06:02.554Z</time>
      </trkpt>
      <trkpt lat="48.44452" lon="5.17024">
        <ele>201.71</ele>
        <time>2025-01-04T12:06:06.736Z</time>
      </trkpt>
      <trkpt lat="48.44433" lon="5.17052">
        <ele>201.31</ele>
        <time>2025-01-04T12:06:10.922Z</time>
      </trkpt>
      <trkpt lat="48.44415" lon="5.17087">
        <ele>200.89</ele>
        <time>2025-01-04T12:06:15.113Z</time>
      </trkpt>
      <trkpt lat="48.44406" lon="5.17109">
        <ele>200.49</ele>
        <time>2025-01-04T12:06:19.306Z</time>
      </trkpt>
      <trkpt lat="48.44397" lon="5.1713">
        <ele>200.06</ele>
        <time>2025-01-04T12:06:23.502Z</time>
      </trkpt>
      <trkpt lat="48.4438" lon="5.17168">
        <ele>199.64</ele>
        <time>2025-01-04T12:06:27.703Z</time>
      </trkpt>
      <trkpt lat="48.44369" lon="5.17188">
        <ele>199.17</ele>
        <time>2025-01-04T12:06:31.907Z</time>
      </trkpt>
      <trkpt lat="48.44359" lon="5.17207">
        <ele>198.65</ele>
        <time>2025-01-04T12:06:36.113Z</time>
      </trkpt>
      <trkpt lat="48.44342" lon="5.17241">
        <ele>198.01</ele>
        <time>2025-01-04T12:06:40.324Z</time>
      </trkpt>
      <trkpt lat="48.44336" lon="5.17252">
        <ele>197.41</ele>
        <time>2025-01-04T12:06:44.536Z</time>
      </trkpt>
      <trkpt lat="48.44321" lon="5.17265">
        <ele>196.74</ele>
        <time>2025-01-04T12:06:48.751Z</time>
      </trkpt>
      <trkpt lat="48.44314" lon="5.17269">
        <ele>196.11</ele>
        <time>2025-01-04T12:06:52.967Z</time>
      </trkpt>
      <trkpt lat="48.44305" lon="5.17268">
        <ele>195.48</ele>
        <time>2025-01-04T12:06:57.185Z</time>
      </trkpt>
      <trkpt lat="48.44301" lon="5.17268">
        <ele>194.87</ele>
        <time>2025-01-04T12:07:01.403Z</time>
      </trkpt>
      <trkpt lat="48.44295" lon="5.17254">
        <ele>194.23</ele>
        <time>2025-01-04T12:07:05.623Z</time>
      </trkpt>
      <trkpt lat="48.44295" lon="5.17241">
        <ele>193.68</ele>
        <time>2025-01-04T12:07:09.845Z</time>
      </trkpt>
      <trkpt lat="48.44295" lon="5.17234">
        <ele>193.14</ele>
        <time>2025-01-04T12:07:14.067Z</time>
      </trkpt>
      <trkpt lat="48.4429" lon="5.17222">
        <ele>192.6</ele>
        <time>2025-01-04T12:07:18.291Z</time>
      </trkpt>
      <trkpt lat="48.44274" lon="5.17208">
        <ele>191.99</ele>
        <time>2025-01-04T12:07:22.518Z</time>
      </trkpt>
      <trkpt lat="48.44258" lon="5.17194">
        <ele>191.5</ele>
        <time>2025-01-04T12:07:26.748Z</time>
      </trkpt>
      <trkpt lat="48.44244" lon="5.17181">
        <ele>191.09</ele>
        <time>2025-01-04T12:07:30.980Z</time>
      </trkpt>
      <trkpt lat="48.44237" lon="5.17175">
        <ele>190.77</ele>
        <time>2025-01-04T12:07:35.214Z</time>
      </trkpt>
      <trkpt lat="48.44232" lon="5.17178">
        <ele>190.47</ele>
        <time>2025-01-04T12:07:39.449Z</time>
      </trkpt>
      <trkpt lat="48.44228" lon="5.17181">
        <ele>190.23</ele>
        <time>2025-01-04T12:07:43.684Z</time>
      </trkpt>
      <trkpt lat="48.44224" lon="5.17183">
        <ele>190.04</ele>
        <time>2025-01-04T12:07:47.920Z</time>
      </trkpt>
      <trkpt lat="48.44227" lon="5.17182">
        <ele>189.9</ele>
        <time>2025-01-04T12:07:52.156Z</time>
      </trkpt>
      <trkpt lat="48.44228" lon="5.17181">
        <ele>189.82</ele>
        <time>2025-01-04T12:07:56.393Z</time>
      </trkpt>
      <trkpt lat="48.44237" lon="5.17175">
        <ele>190.77</ele>
        <time>2025-01-04T12:08:00.631Z</time>
      </trkpt>
      <trkpt lat="48.44227" lon="5.17181">
        <ele>189.81</ele>
        <time>2025-01-04T12:08:04.871Z</time>
      </trkpt>
      <trkpt lat="48.44225" lon="5.17183">
        <ele>189.89</ele>
        <time>2025-01-04T12:08:09.111Z</time>
      </trkpt>
      <trkpt lat="48.44213" lon="5.17204">
        <ele>190.05</ele>
        <time>2025-01-04T12:08:13.354Z</time>
      </trkpt>
      <trkpt lat="48.44195" lon="5.17234">
        <ele>190.24</ele>
        <time>2025-01-04T12:08:17.602Z</time>
      </trkpt>
      <trkpt lat="48.44178" lon="5.17268">
        <ele>190.49</ele>
        <time>2025-01-04T12:08:21.854Z</time>
      </trkpt>
      <trkpt lat="48.44173" lon="5.17296">
        <ele>190.78</ele>
        <time>2025-01-04T12:08:26.109Z</time>
      </trkpt>
      <trkpt lat="48.44166" lon="5.17333">
        <ele>191.15</ele>
        <time>2025-01-04T12:08:30.368Z</time>
      </trkpt>
      <trkpt lat="48.44159" lon="5.17375">
        <ele>191.55</ele>
        <time>2025-01-04T12:08:34.632Z</time>
      </trkpt>
      <trkpt lat="48.44153" lon="5.17401">
        <ele>191.9</ele>
        <time>2025-01-04T12:08:38.899Z</time>
      </trkpt>
      <trkpt lat="48.44147" lon="5.17427">
        <ele>192.3</ele>
        <time>2025-01-04T12:08:43.169Z</time>
      </trkpt>
      <trkpt lat="48.44145" lon="5.17433">
        <ele>192.72</ele>
        <time>2025-01-04T12:08:47.439Z</time>
      </trkpt>
      <trkpt lat="48.44134" lon="5.17461">
        <ele>193.19</ele>
        <time>2025-01-04T12:08:51.713Z</time>
      </trkpt>
      <trkpt lat="48.44126" lon="5.17482">
        <ele>193.68</ele>
        <time>2025-01-04T12:08:55.990Z</time>
      </trkpt>
      <trkpt lat="48.44118" lon="5.17503">
        <ele>194.14</ele>
        <time>2025-01-04T12:09:00.269Z</time>
      </trkpt>
      <trkpt lat="48.44112" lon="5.17529">
        <ele>194.59</ele>
        <time>2025-01-04T12:09:04.551Z</time>
      </trkpt>
      <trkpt lat="48.44118" lon="5.17543">
        <ele>195.07</ele>
        <time>2025-01-04T12:09:08.835Z</time>
      </trkpt>
      <trkpt lat="48.44143" lon="5.17561">
        <ele>195.61</ele>
        <time>2025-01-04T12:09:13.123Z</time>
      </trkpt>
      <trkpt lat="48.44158" lon="5.17572">
        <ele>196.16</ele>
        <time>2025-01-04T12:09:17.414Z</time>
      </trkpt>
      <trkpt lat="48.44173" lon="5.17583">
        <ele>196.74</ele>
        <time>2025-01-04T12:09:21.708Z</time>
      </trkpt>
      <trkpt lat="48.44191" lon="5.17597">
        <ele>197.35</ele>
        <time>2025-01-04T12:09:26.005Z</time>
      </trkpt>
      <trkpt lat="48.44193" lon="5.17599">
        <ele>197.85</ele>
        <time>2025-01-04T12:09:30.302Z</time>
      </trkpt>
      <trkpt lat="48.44191" lon="5.176">
        <ele>198.31</ele>
        <time>2025-01-04T12:09:34.600Z</time>
      </trkpt>
      <trkpt lat="48.44194" lon="5.17622">
        <ele>198.82</ele>
        <time>2025-01-04T12:09:38.900Z</time>
      </trkpt>
      <trkpt lat="48.44187" lon="5.17655">
        <ele>199.21</ele>
        <time>2025-01-04T12:09:43.204Z</time>
      </trkpt>
      <trkpt lat="48.4418" lon="5.17684">
        <ele>199.59</ele>
        <time>2025-01-04T12:09:47.511Z</time>
      </trkpt>
      <trkpt lat="48.44174" lon="5.17713">
        <ele>199.99</ele>
        <time>2025-01-04T12:09:51.821Z</time>
      </trkpt>
      <trkpt lat="48.4417" lon="5.17739">
        <ele>200.38</ele>
        <time>2025-01-04T12:09:56.134Z</time>
      </trkpt>
      <trkpt lat="48.44166" lon="5.17766">
        <ele>200.74</ele>
        <time>2025-01-04T12:10:00.450Z</time>
      </trkpt>
      <trkpt lat="48.44162" lon="5.17799">
        <ele>201.08</ele>
        <time>2025-01-04T12:10:04.769Z</time>
      </trkpt>
      <trkpt lat="48.44157" lon="5.17831">
        <ele>201.41</ele>
        <time>2025-01-04T12:10:09.092Z</time>
      </trkpt>
      <trkpt lat="48.44154" lon="5.17858">
        <ele>201.73</ele>
        <time>2025-01-04T12:10:13.418Z</time>
      </trkpt>
      <trkpt lat="48.44151" lon="5.17884">
        <ele>202.05</ele>
        <time>2025-01-04T12:10:17.747Z</time>
      </trkpt>
      <trkpt lat="48.44147" lon="5.17922">
        <ele>202.38</ele>
        <time>2025-01-04T12:10:22.080Z</time>
      </trkpt>
      <trkpt lat="48.44143" lon="5.1796">
        <ele>202.67</ele>
        <time>2025-01-04T12:10:26.417Z</time>
      </trkpt>
      <trkpt lat="48.44139" lon="5.17994">
        <ele>202.98</ele>
        <time>2025-01-04T12:10:30.758Z</time>
      </trkpt>
      <trkpt lat="48.44136" lon="5.18028">
        <ele>203.19</ele>
        <time>2025-01-04T12:10:35.102Z</time>
      </trkpt>
      <trkpt lat="48.44132" lon="5.18072">
        <ele>203.39</ele>
        <time>2025-01-04T12:10:39.451Z</time>
      </trkpt>
      <trkpt lat="48.44128" lon="5.18116">
        <ele>203.69</ele>
        <time>2025-01-04T12:10:43.805Z</time>
      </trkpt>
      <trkpt lat="48.44124" lon="5.1816">
        <ele>203.98</ele>
        <time>2025-01-04T12:10:48.163Z</time>
      </trkpt>
      <trkpt lat="48.44119" lon="5.18203">
        <ele>204.2</ele>
        <time>2025-01-04T12:10:52.526Z</time>
      </trkpt>
      <trkpt lat="48.44118" lon="5.18212">
        <ele>204.34</ele>
        <time>2025-01-04T12:10:56.890Z</time>
      </trkpt>
      <trkpt lat="48.44115" lon="5.1825">
        <ele>204.52</ele>
        <time>2025-01-04T12:11:01.258Z</time>
      </trkpt>
      <trkpt lat="48.44111" lon="5.18287">
        <ele>204.64</ele>
        <time>2025-01-04T12:11:05.630Z</time>
      </trkpt>
      <trkpt lat="48.44105" lon="5.18332">
        <ele>204.74</ele>
        <time>2025-01-04T12:11:10.007Z</time>
      </trkpt>
      <trkpt lat="48.44099" lon="5.18376">
        <ele>204.89</ele>
        <time>2025-01-04T12:11:14.389Z</time>
      </trkpt>
      <trkpt lat="48.44096" lon="5.18395">
        <ele>204.96</ele>
        <time>2025-01-04T12:11:18.773Z</time>
      </trkpt>
      <trkpt lat="48.44089" lon="5.18437">
        <ele>204.94</ele>
        <time>2025-01-04T12:11:23.161Z</time>
      </trkpt>
      <trkpt lat="48.44082" lon="5.18478">
        <ele>204.87</ele>
        <time>2025-01-04T12:11:27.554Z</time>
      </trkpt>
      <trkpt lat="48.44077" lon="5.18513">
        <ele>204.96</ele>
        <time>2025-01-04T12:11:31.951Z</time>
      </trkpt>
      <trkpt lat="48.44071" lon="5.18547">
        <ele>205.03</ele>
        <time>2025-01-04T12:11:36.351Z</time>
      </trkpt>
      <trkpt lat="48.44064" lon="5.18587">
        <ele>205.1</ele>
        <time>2025-01-04T12:11:40.756Z</time>
      </trkpt>
      <trkpt lat="48.44058" lon="5.18628">
        <ele>205.18</ele>
        <time>2025-01-04T12:11:45.165Z</time>
      </trkpt>
      <trkpt lat="48.44051" lon="5.18669">
        <ele>205.32</ele>
        <time>2025-01-04T12:11:49.579Z</time>
      </trkpt>
      <trkpt lat="48.44044" lon="5.18711">
        <ele>205.56</ele>
        <time>2025-01-04T12:11:53.997Z</time>
      </trkpt>
      <trkpt lat="48.44038" lon="5.1875">
        <ele>205.79</ele>
        <time>2025-01-04T12:11:58.420Z</time>
      </trkpt>
      <trkpt lat="48.44031" lon="5.18789">
        <ele>205.92</ele>
        <time>2025-01-04T12:12:02.847Z</time>
      </trkpt>
      <trkpt lat="48.44025" lon="5.18829">
        <ele>206.13</ele>
        <time>2025-01-04T12:12:07.278Z</time>
      </trkpt>
      <trkpt lat="48.44018" lon="5.18868">
        <ele>206.44</ele>
        <time>2025-01-04T12:12:11.714Z</time>
      </trkpt>
      <trkpt lat="48.44017" lon="5.18879">
        <ele>206.77</ele>
        <time>2025-01-04T12:12:16.151Z</time>
      </trkpt>
      <trkpt lat="48.4401" lon="5.18918">
        <ele>207.2</ele>
        <time>2025-01-04T12:12:20.592Z</time>
      </trkpt>
      <trkpt lat="48.44004" lon="5.18958">
        <ele>207.59</ele>
        <time>2025-01-04T12:12:25.038Z</time>
      </trkpt>
      <trkpt lat="48.43994" lon="5.18998">
        <ele>208.02</ele>
        <time>2025-01-04T12:12:29.488Z</time>
      </trkpt>
      <trkpt lat="48.43985" lon="5.19037">
        <ele>208.57</ele>
        <time>2025-01-04T12:12:33.943Z</time>
      </trkpt>
      <trkpt lat="48.43975" lon="5.19073">
        <ele>208.98</ele>
        <time>2025-01-04T12:12:38.402Z</time>
      </trkpt>
      <trkpt lat="48.43964" lon="5.19108">
        <ele>209.42</ele>
        <time>2025-01-04T12:12:42.865Z</time>
      </trkpt>
      <trkpt lat="48.43956" lon="5.19139">
        <ele>209.91</ele>
        <time>2025-01-04T12:12:47.331Z</time>
      </trkpt>
      <trkpt lat="48.43947" lon="5.1917">
        <ele>210.41</ele>
        <time>2025-01-04T12:12:51.801Z</time>
      </trkpt>
      <trkpt lat="48.4394" lon="5.19202">
        <ele>210.92</ele>
        <time>2025-01-04T12:12:56.275Z</time>
      </trkpt>
      <trkpt lat="48.43933" lon="5.19233">
        <ele>211.5</ele>
        <time>2025-01-04T12:13:00.752Z</time>
      </trkpt>
      <trkpt lat="48.43925" lon="5.1927">
        <ele>212.17</ele>
        <time>2025-01-04T12:13:05.233Z</time>
      </trkpt>
      <trkpt lat="48.43917" lon="5.19306">
        <ele>212.91</ele>
        <time>2025-01-04T12:13:09.718Z</time>
      </trkpt>
      <trkpt lat="48.43907" lon="5.19332">
        <ele>213.54</ele>
        <time>2025-01-04T12:13:14.206Z</time>
      </trkpt>
      <trkpt lat="48.43898" lon="5.19358">
        <ele>214.24</ele>
        <time>2025-01-04T12:13:18.698Z</time>
      </trkpt>
      <trkpt lat="48.43886" lon="5.19387">
        <ele>214.99</ele>
        <time>2025-01-04T12:13:23.193Z</time>
      </trkpt>
      <trkpt lat="48.43874" lon="5.19416">
        <ele>215.84</ele>
        <time>2025-01-04T12:13:27.692Z</time>
      </trkpt>
      <trkpt lat="48.43859" lon="5.19442">
        <ele>216.52</ele>
        <time>2025-01-04T12:13:32.194Z</time>
      </trkpt>
      <trkpt lat="48.43844" lon="5.19467">
        <ele>217.06</ele>
        <time>2025-01-04T12:13:36.700Z</time>
      </trkpt>
      <trkpt lat="48.43829" lon="5.19492">
        <ele>217.56</ele>
        <time>2025-01-04T12:13:41.210Z</time>
      </trkpt>
      <trkpt lat="48.43814" lon="5.19517">
        <ele>218.09</ele>
        <time>2025-01-04T12:13:45.723Z</time>
      </trkpt>
      <trkpt lat="48.43801" lon="5.19539">
        <ele>218.6</ele>
        <time>2025-01-04T12:13:50.239Z</time>
      </trkpt>
      <trkpt lat="48.43788" lon="5.19561">
        <ele>219.1</ele>
        <time>2025-01-04T12:13:54.759Z</time>
      </trkpt>
      <trkpt lat="48.43777" lon="5.19581">
        <ele>219.53</ele>
        <time>2025-01-04T12:13:59.281Z</time>
      </trkpt>
      <trkpt lat="48.43765" lon="5.19601">
        <ele>219.92</ele>
        <time>2025-01-04T12:14:03.806Z</time>
      </trkpt>
      <trkpt lat="48.43749" lon="5.19627">
        <ele>220.28</ele>
        <time>2025-01-04T12:14:08.335Z</time>
      </trkpt>
      <trkpt lat="48.43733" lon="5.19652">
        <ele>220.54</ele>
        <time>2025-01-04T12:14:12.868Z</time>
      </trkpt>
      <trkpt lat="48.43719" lon="5.19673">
        <ele>220.8</ele>
        <time>2025-01-04T12:14:17.404Z</time>
      </trkpt>
      <trkpt lat="48.43706" lon="5.19693">
        <ele>221.07</ele>
        <time>2025-01-04T12:14:21.943Z</time>
      </trkpt>
      <trkpt lat="48.43688" lon="5.1972">
        <ele>221.35</ele>
        <time>2025-01-04T12:14:26.486Z</time>
      </trkpt>
      <trkpt lat="48.43671" lon="5.19746">
        <ele>221.53</ele>
        <time>2025-01-04T12:14:31.033Z</time>
      </trkpt>
      <trkpt lat="48.43652" lon="5.19775">
        <ele>221.63</ele>
        <time>2025-01-04T12:14:35.584Z</time>
      </trkpt>
      <trkpt lat="48.43632" lon="5.19804">
        <ele>221.66</ele>
        <time>2025-01-04T12:14:40.139Z</time>
      </trkpt>
      <trkpt lat="48.43615" lon="5.1983">
        <ele>221.72</ele>
        <time>2025-01-04T12:14:44.698Z</time>
      </trkpt>
      <trkpt lat="48.43598" lon="5.19856">
        <ele>221.84</ele>
        <time>2025-01-04T12:14:49.261Z</time>
      </trkpt>
      <trkpt lat="48.43582" lon="5.19881">
        <ele>221.99</ele>
        <time>2025-01-04T12:14:53.828Z</time>
      </trkpt>
      <trkpt lat="48.43567" lon="5.19906">
        <ele>222.09</ele>
        <time>2025-01-04T12:14:58.399Z</time>
      </trkpt>
      <trkpt lat="48.43549" lon="5.19939">
        <ele>222.18</ele>
        <time>2025-01-04T12:15:02.974Z</time>
      </trkpt>
      <trkpt lat="48.43531" lon="5.19972">
        <ele>222.28</ele>
        <time>2025-01-04T12:15:07.554Z</time>
      </trkpt>
      <trkpt lat="48.43519" lon="5.19995">
        <ele>222.36</ele>
        <time>2025-01-04T12:15:12.137Z</time>
      </trkpt>
      <trkpt lat="48.43507" lon="5.20018">
        <ele>222.41</ele>
        <time>2025-01-04T12:15:16.723Z</time>
      </trkpt>
      <trkpt lat="48.4349" lon="5.20049">
        <ele>222.5</ele>
        <time>2025-01-04T12:15:21.313Z</time>
      </trkpt>
      <trkpt lat="48.43473" lon="5.20079">
        <ele>222.54</ele>
        <time>2025-01-04T12:15:25.907Z</time>
      </trkpt>
      <trkpt lat="48.43455" lon="5.20102">
        <ele>222.62</ele>
        <time>2025-01-04T12:15:30.505Z</time>
      </trkpt>
      <trkpt lat="48.43438" lon="5.20126">
        <ele>222.64</ele>
        <time>2025-01-04T12:15:35.107Z</time>
      </trkpt>
      <trkpt lat="48.43421" lon="5.20149">
        <ele>222.57</ele>
        <time>2025-01-04T12:15:39.712Z</time>
      </trkpt>
      <trkpt lat="48.43405" lon="5.20172">
        <ele>222.52</ele>
        <time>2025-01-04T12:15:44.321Z</time>
      </trkpt>
      <trkpt lat="48.43385" lon="5.20199">
        <ele>222.42</ele>
        <time>2025-01-04T12:15:48.934Z</time>
      </trkpt>
      <trkpt lat="48.43366" lon="5.20225">
        <ele>222.41</ele>
        <time>2025-01-04T12:15:53.552Z</time>
      </trkpt>
      <trkpt lat="48.43354" lon="5.20253">
        <ele>222.4</ele>
        <time>2025-01-04T12:15:58.173Z</time>
      </trkpt>
      <trkpt lat="48.43341" lon="5.2028">
        <ele>222.39</ele>
        <time>2025-01-04T12:16:02.798Z</time>
      </trkpt>
      <trkpt lat="48.43329" lon="5.20307">
        <ele>222.39</ele>
        <time>2025-01-04T12:16:07.426Z</time>
      </trkpt>
      <trkpt lat="48.43316" lon="5.20335">
        <ele>222.4</ele>
        <time>2025-01-04T12:16:12.058Z</time>
      </trkpt>
      <trkpt lat="48.43309" lon="5.20361">
        <ele>222.42</ele>
        <time>2025-01-04T12:16:16.693Z</time>
      </trkpt>
      <trkpt lat="48.43303" lon="5.20388">
        <ele>222.48</ele>
        <time>2025-01-04T12:16:21.331Z</time>
      </trkpt>
      <trkpt lat="48.43294" lon="5.20423">
        <ele>222.6</ele>
        <time>2025-01-04T12:16:25.973Z</time>
      </trkpt>
      <trkpt lat="48.43285" lon="5.20457">
        <ele>222.74</ele>
        <time>2025-01-04T12:16:30.619Z</time>
      </trkpt>
      <trkpt lat="48.43278" lon="5.20483">
        <ele>222.81</ele>
        <time>2025-01-04T12:16:35.268Z</time>
      </trkpt>
      <trkpt lat="48.4327" lon="5.20508">
        <ele>222.94</ele>
        <time>2025-01-04T12:16:39.920Z</time>
      </trkpt>
      <trkpt lat="48.4326" lon="5.20538">
        <ele>223.08</ele>
        <time>2025-01-04T12:16:44.575Z</time>
      </trkpt>
      <trkpt lat="48.43249" lon="5.20568">
        <ele>223.24</ele>
        <time>2025-01-04T12:16:49.234Z</time>
      </trkpt>
      <trkpt lat="48.43236" lon="5.20604">
        <ele>223.44</ele>
        <time>2025-01-04T12:16:53.897Z</time>
      </trkpt>
      <trkpt lat="48.43223" lon="5.2064">
        <ele>223.51</ele>
        <time>2025-01-04T12:16:58.565Z</time>
      </trkpt>
      <trkpt lat="48.43213" lon="5.20668">
        <ele>223.55</ele>
        <time>2025-01-04T12:17:03.236Z</time>
      </trkpt>
      <trkpt lat="48.43203" lon="5.20696">
        <ele>223.61</ele>
        <time>2025-01-04T12:17:07.910Z</time>
      </trkpt>
      <trkpt lat="48.4319" lon="5.20731">
        <ele>223.71</ele>
        <time>2025-01-04T12:17:12.589Z</time>
      </trkpt>
      <trkpt lat="48.43177" lon="5.20765">
        <ele>223.91</ele>
        <time>2025-01-04T12:17:17.272Z</time>
      </trkpt>
      <trkpt lat="48.43163" lon="5.20798">
        <ele>223.97</ele>
        <time>2025-01-04T12:17:21.959Z</time>
      </trkpt>
      <trkpt lat="48.4315" lon="5.20831">
        <ele>224.02</ele>
        <time>2025-01-04T12:17:26.650Z</time>
      </trkpt>
      <trkpt lat="48.43137" lon="5.20862">
        <ele>224.08</ele>
        <time>2025-01-04T12:17:31.345Z</time>
      </trkpt>
      <trkpt lat="48.43124" lon="5.20893">
        <ele>224.21</ele>
        <time>2025-01-04T12:17:36.044Z</time>
      </trkpt>
      <trkpt lat="48.43112" lon="5.20921">
        <ele>224.27</ele>
        <time>2025-01-04T12:17:40.746Z</time>
      </trkpt>
      <trkpt lat="48.431" lon="5.20949">
        <ele>224.31</ele>
        <time>2025-01-04T12:17:45.452Z</time>
      </trkpt>
      <trkpt lat="48.43084" lon="5.20975">
        <ele>224.24</ele>
        <time>2025-01-04T12:17:50.162Z</time>
      </trkpt>
      <trkpt lat="48.43068" lon="5.21001">
        <ele>224.15</ele>
        <time>2025-01-04T12:17:54.875Z</time>
      </trkpt>
      <trkpt lat="48.43049" lon="5.21029">
        <ele>224.03</ele>
        <time>2025-01-04T12:17:59.593Z</time>
      </trkpt>
      <trkpt lat="48.4303" lon="5.21057">
        <ele>223.92</ele>
        <time>2025-01-04T12:18:04.315Z</time>
      </trkpt>
      <trkpt lat="48.43009" lon="5.21083">
        <ele>223.83</ele>
        <time>2025-01-04T12:18:09.041Z</time>
      </trkpt>
      <trkpt lat="48.42988" lon="5.21108">
        <ele>223.76</ele>
        <time>2025-01-04T12:18:13.772Z</time>
      </trkpt>
      <trkpt lat="48.42982" lon="5.21114">
        <ele>223.68</ele>
        <time>2025-01-04T12:18:18.504Z</time>
      </trkpt>
      <trkpt lat="48.42958" lon="5.21136">
        <ele>223.57</ele>
        <time>2025-01-04T12:18:23.240Z</time>
      </trkpt>
      <trkpt lat="48.42934" lon="5.21158">
        <ele>223.48</ele>
        <time>2025-01-04T12:18:27.981Z</time>
      </trkpt>
      <trkpt lat="48.42928" lon="5.21163">
        <ele>223.42</ele>
        <time>2025-01-04T12:18:32.723Z</time>
      </trkpt>
      <trkpt lat="48.42903" lon="5.21184">
        <ele>223.33</ele>
        <time>2025-01-04T12:18:37.469Z</time>
      </trkpt>
      <trkpt lat="48.42878" lon="5.21205">
        <ele>223.27</ele>
        <time>2025-01-04T12:18:42.220Z</time>
      </trkpt>
      <trkpt lat="48.42872" lon="5.2121">
        <ele>223.21</ele>
        <time>2025-01-04T12:18:46.972Z</time>
      </trkpt>
      <trkpt lat="48.42848" lon="5.21231">
        <ele>223.13</ele>
        <time>2025-01-04T12:18:51.729Z</time>
      </trkpt>
      <trkpt lat="48.42823" lon="5.21251">
        <ele>223.09</ele>
        <time>2025-01-04T12:18:56.490Z</time>
      </trkpt>
      <trkpt lat="48.42818" lon="5.21256">
        <ele>223.1</ele>
        <time>2025-01-04T12:19:01.252Z</time>
      </trkpt>
      <trkpt lat="48.42796" lon="5.21279">
        <ele>223.09</ele>
        <time>2025-01-04T12:19:06.018Z</time>
      </trkpt>
      <trkpt lat="48.42774" lon="5.21302">
        <ele>223.12</ele>
        <time>2025-01-04T12:19:10.789Z</time>
      </trkpt>
      <trkpt lat="48.42755" lon="5.21332">
        <ele>223.11</ele>
        <time>2025-01-04T12:19:15.564Z</time>
      </trkpt>
      <trkpt lat="48.42737" lon="5.21363">
        <ele>223.22</ele>
        <time>2025-01-04T12:19:20.343Z</time>
      </trkpt>
      <trkpt lat="48.42724" lon="5.21391">
        <ele>223.36</ele>
        <time>2025-01-04T12:19:25.126Z</time>
      </trkpt>
      <trkpt lat="48.42711" lon="5.2142">
        <ele>223.41</ele>
        <time>2025-01-04T12:19:29.913Z</time>
      </trkpt>
      <trkpt lat="48.42701" lon="5.21447">
        <ele>223.5</ele>
        <time>2025-01-04T12:19:34.703Z</time>
      </trkpt>
      <trkpt lat="48.42691" lon="5.21474">
        <ele>223.54</ele>
        <time>2025-01-04T12:19:39.496Z</time>
      </trkpt>
      <trkpt lat="48.42681" lon="5.215">
        <ele>223.55</ele>
        <time>2025-01-04T12:19:44.293Z</time>
      </trkpt>
      <trkpt lat="48.42681" lon="5.215">
        <ele>223.54</ele>
        <time>2025-01-04T12:19:49.090Z</time>
      </trkpt>
      <trkpt lat="48.42671" lon="5.21526">
        <ele>223.52</ele>
        <time>2025-01-04T12:19:53.890Z</time>
      </trkpt>
      <trkpt lat="48.42662" lon="5.2155">
        <ele>223.45</ele>
        <time>2025-01-04T12:19:58.693Z</time>
      </trkpt>
      <trkpt lat="48.42653" lon="5.21574">
        <ele>223.43</ele>
        <time>2025-01-04T12:20:03.499Z</time>
      </trkpt>
      <trkpt lat="48.4264" lon="5.21608">
        <ele>223.33</ele>
        <time>2025-01-04T12:20:08.309Z</time>
      </trkpt>
      <trkpt lat="48.42627" lon="5.21641">
        <ele>223.2</ele>
        <time>2025-01-04T12:20:13.123Z</time>
      </trkpt>
      <trkpt lat="48.42622" lon="5.21657">
        <ele>223.09</ele>
        <time>2025-01-04T12:20:17.939Z</time>
      </trkpt>
      <trkpt lat="48.42609" lon="5.21676">
        <ele>222.91</ele>
        <time>2025-01-04T12:20:22.758Z</time>
      </trkpt>
      <trkpt lat="48.42599" lon="5.21688">
        <ele>222.73</ele>
        <time>2025-01-04T12:20:27.579Z</time>
      </trkpt>
      <trkpt lat="48.42586" lon="5.21694">
        <ele>222.51</ele>
        <time>2025-01-04T12:20:32.402Z</time>
      </trkpt>
      <trkpt lat="48.4256" lon="5.21695">
        <ele>222.25</ele>
        <time>2025-01-04T12:20:37.229Z</time>
      </trkpt>
      <trkpt lat="48.42541" lon="5.21691">
        <ele>222.01</ele>
        <time>2025-01-04T12:20:42.059Z</time>
      </trkpt>
      <trkpt lat="48.4254" lon="5.21691">
        <ele>221.79</ele>
        <time>2025-01-04T12:20:46.889Z</time>
      </trkpt>
      <trkpt lat="48.42542" lon="5.21675">
        <ele>221.54</ele>
        <time>2025-01-04T12:20:51.721Z</time>
      </trkpt>
      <trkpt lat="48.42544" lon="5.21669">
        <ele>221.31</ele>
        <time>2025-01-04T12:20:56.554Z</time>
      </trkpt>
      <trkpt lat="48.4255" lon="5.21649">
        <ele>221.05</ele>
        <time>2025-01-04T12:21:01.389Z</time>
      </trkpt>
      <trkpt lat="48.42557" lon="5.21631">
        <ele>220.8</ele>
        <time>2025-01-04T12:21:06.226Z</time>
      </trkpt>
      <trkpt lat="48.42561" lon="5.21613">
        <ele>220.51</ele>
        <time>2025-01-04T12:21:11.065Z</time>
      </trkpt>
      <trkpt lat="48.42561" lon="5.2161">
        <ele>220.28</ele>
        <time>2025-01-04T12:21:15.905Z</time>
      </trkpt>
      <trkpt lat="48.42561" lon="5.21615">
        <ele>220.08</ele>
        <time>2025-01-04T12:21:20.745Z</time>
      </trkpt>
      <trkpt lat="48.42561" lon="5.21619">
        <ele>219.89</ele>
        <time>2025-01-04T12:21:25.586Z</time>
      </trkpt>
      <trkpt lat="48.4256" lon="5.21623">
        <ele>219.7</ele>
        <time>2025-01-04T12:21:30.427Z</time>
      </trkpt>
      <trkpt lat="48.42559" lon="5.21626">
        <ele>219.53</ele>
        <time>2025-01-04T12:21:35.268Z</time>
      </trkpt>
      <trkpt lat="48.42553" lon="5.21645">
        <ele>219.39</ele>
        <time>2025-01-04T12:21:40.112Z</time>
      </trkpt>
      <trkpt lat="48.42545" lon="5.21671">
        <ele>219.26</ele>
        <time>2025-01-04T12:21:44.959Z</time>
      </trkpt>
      <trkpt lat="48.42538" lon="5.2169">
        <ele>219.13</ele>
        <time>2025-01-04T12:21:49.808Z</time>
      </trkpt>
      <trkpt lat="48.42536" lon="5.2169">
        <ele>218.99</ele>
        <time>2025-01-04T12:21:54.657Z</time>
      </trkpt>
      <trkpt lat="48.42528" lon="5.21692">
        <ele>218.86</ele>
        <time>2025-01-04T12:21:59.508Z</time>
      </trkpt>
      <trkpt lat="48.42508" lon="5.21706">
        <ele>218.72</ele>
        <time>2025-01-04T12:22:04.362Z</time>
      </trkpt>
      <trkpt lat="48.42489" lon="5.21724">
        <ele>218.62</ele>
        <time>2025-01-04T12:22:09.220Z</time>
      </trkpt>
      <trkpt lat="48.42478" lon="5.21733">
        <ele>218.56</ele>
        <time>2025-01-04T12:22:14.080Z</time>
      </trkpt>
      <trkpt lat="48.4247" lon="5.21737">
        <ele>218.52</ele>
        <time>2025-01-04T12:22:18.941Z</time>
      </trkpt>
      <trkpt lat="48.4245" lon="5.21747">
        <ele>218.48</ele>
        <time>2025-01-04T12:22:23.806Z</time>
      </trkpt>
      <trkpt lat="48.42444" lon="5.21749">
        <ele>218.48</ele>
        <time>2025-01-04T12:22:28.671Z</time>
      </trkpt>
      <trkpt lat="48.42439" lon="5.21752">
        <ele>218.51</ele>
        <time>2025-01-04T12:22:33.537Z</time>
      </trkpt>
      <trkpt lat="48.42434" lon="5.21762">
        <ele>218.57</ele>
        <time>2025-01-04T12:22:38.405Z</time>
      </trkpt>
      <trkpt lat="48.42433" lon="5.21795">
        <ele>218.64</ele>
        <time>2025-01-04T12:22:43.276Z</time>
      </trkpt>
      <trkpt lat="48.42432" lon="5.21838">
        <ele>218.77</ele>
        <time>2025-01-04T12:22:48.152Z</time>
      </trkpt>
      <trkpt lat="48.42431" lon="5.21862">
        <ele>218.97</ele>
        <time>2025-01-04T12:22:53.030Z</time>
      </trkpt>
      <trkpt lat="48.4243" lon="5.21886">
        <ele>219.18</ele>
        <time>2025-01-04T12:22:57.911Z</time>
      </trkpt>
      <trkpt lat="48.42429" lon="5.21919">
        <ele>219.43</ele>
        <time>2025-01-04T12:23:02.795Z</time>
      </trkpt>
      <trkpt lat="48.42428" lon="5.21936">
        <ele>219.66</ele>
        <time>2025-01-04T12:23:07.681Z</time>
      </trkpt>
      <trkpt lat="48.42415" lon="5.21945">
        <ele>219.94</ele>
        <time>2025-01-04T12:23:12.570Z</time>
      </trkpt>
      <trkpt lat="48.42394" lon="5.21945">
        <ele>220.29</ele>
        <time>2025-01-04T12:23:17.462Z</time>
      </trkpt>
      <trkpt lat="48.42374" lon="5.2194">
        <ele>220.66</ele>
        <time>2025-01-04T12:23:22.357Z</time>
      </trkpt>
      <trkpt lat="48.42365" lon="5.21937">
        <ele>221.04</ele>
        <time>2025-01-04T12:23:27.254Z</time>
      </trkpt>
      <trkpt lat="48.42361" lon="5.21936">
        <ele>221.42</ele>
        <time>2025-01-04T12:23:32.151Z</time>
      </trkpt>
      <trkpt lat="48.4234" lon="5.21929">
        <ele>221.87</ele>
        <time>2025-01-04T12:23:37.052Z</time>
      </trkpt>
      <trkpt lat="48.42331" lon="5.21926">
        <ele>222.3</ele>
        <time>2025-01-04T12:23:41.954Z</time>
      </trkpt>
      <trkpt lat="48.42319" lon="5.21932">
        <ele>222.75</ele>
        <time>2025-01-04T12:23:46.858Z</time>
      </trkpt>
      <trkpt lat="48.42303" lon="5.21945">
        <ele>223.23</ele>
        <time>2025-01-04T12:23:51.765Z</time>
      </trkpt>
      <trkpt lat="48.42296" lon="5.21953">
        <ele>223.66</ele>
        <time>2025-01-04T12:23:56.674Z</time>
      </trkpt>
      <trkpt lat="48.42276" lon="5.21973">
        <ele>224.15</ele>
        <time>2025-01-04T12:24:01.587Z</time>
      </trkpt>
      <trkpt lat="48.42272" lon="5.21976">
        <ele>224.57</ele>
        <time>2025-01-04T12:24:06.500Z</time>
      </trkpt>
      <trkpt lat="48.42258" lon="5.21991">
        <ele>225.02</ele>
        <time>2025-01-04T12:24:11.416Z</time>
      </trkpt>
      <trkpt lat="48.4225" lon="5.22003">
        <ele>225.5</ele>
        <time>2025-01-04T12:24:16.334Z</time>
      </trkpt>
      <trkpt lat="48.42242" lon="5.22012">
        <ele>225.94</ele>
        <time>2025-01-04T12:24:21.253Z</time>
      </trkpt>
      <trkpt lat="48.42219" lon="5.22028">
        <ele>226.39</ele>
        <time>2025-01-04T12:24:26.176Z</time>
      </trkpt>
      <trkpt lat="48.42199" lon="5.22033">
        <ele>226.77</ele>
        <time>2025-01-04T12:24:31.103Z</time>
      </trkpt>
      <trkpt lat="48.42188" lon="5.22035">
        <ele>227.11</ele>
        <time>2025-01-04T12:24:36.031Z</time>
      </trkpt>
      <trkpt lat="48.42183" lon="5.22037">
        <ele>227.44</ele>
        <time>2025-01-04T12:24:40.960Z</time>
      </trkpt>
      <trkpt lat="48.4216" lon="5.22043">
        <ele>227.72</ele>
        <time>2025-01-04T12:24:45.893Z</time>
      </trkpt>
      <trkpt lat="48.42155" lon="5.22044">
        <ele>227.99</ele>
        <time>2025-01-04T12:24:50.827Z</time>
      </trkpt>
      <trkpt lat="48.42137" lon="5.22053">
        <ele>228.22</ele>
        <time>2025-01-04T12:24:55.764Z</time>
      </trkpt>
      <trkpt lat="48.42118" lon="5.22061">
        <ele>228.47</ele>
        <time>2025-01-04T12:25:00.704Z</time>
      </trkpt>
      <trkpt lat="48.42101" lon="5.22073">
        <ele>228.72</ele>
        <time>2025-01-04T12:25:05.647Z</time>
      </trkpt>
      <trkpt lat="48.42083" lon="5.22085">
        <ele>228.99</ele>
        <time>2025-01-04T12:25:10.593Z</time>
      </trkpt>
      <trkpt lat="48.42064" lon="5.22097">
        <ele>229.22</ele>
        <time>2025-01-04T12:25:15.542Z</time>
      </trkpt>
      <trkpt lat="48.42045" lon="5.2211">
        <ele>229.44</ele>
        <time>2025-01-04T12:25:20.495Z</time>
      </trkpt>
      <trkpt lat="48.4204" lon="5.22114">
        <ele>229.62</ele>
        <time>2025-01-04T12:25:25.449Z</time>
      </trkpt>
      <trkpt lat="48.42022" lon="5.22126">
        <ele>229.76</ele>
        <time>2025-01-04T12:25:30.406Z</time>
      </trkpt>
      <trkpt lat="48.42004" lon="5.22138">
        <ele>229.92</ele>
        <time>2025-01-04T12:25:35.366Z</time>
      </trkpt>
      <trkpt lat="48.4198" lon="5.22149">
        <ele>229.99</ele>
        <time>2025-01-04T12:25:40.330Z</time>
      </trkpt>
      <trkpt lat="48.41956" lon="5.2216">
        <ele>230.05</ele>
        <time>2025-01-04T12:25:45.298Z</time>
      </trkpt>
      <trkpt lat="48.41935" lon="5.22168">
        <ele>230.13</ele>
        <time>2025-01-04T12:25:50.269Z</time>
      </trkpt>
      <trkpt lat="48.41915" lon="5.22177">
        <ele>230.23</ele>
        <time>2025-01-04T12:25:55.244Z</time>
      </trkpt>
      <trkpt lat="48.41897" lon="5.22184">
        <ele>230.26</ele>
        <time>2025-01-04T12:26:00.222Z</time>
      </trkpt>
      <trkpt lat="48.41879" lon="5.22192">
        <ele>230.34</ele>
        <time>2025-01-04T12:26:05.203Z</time>
      </trkpt>
      <trkpt lat="48.41873" lon="5.22194">
        <ele>230.45</ele>
        <time>2025-01-04T12:26:10.185Z</time>
      </trkpt>
      <trkpt lat="48.41852" lon="5.22202">
        <ele>230.6</ele>
        <time>2025-01-04T12:26:15.170Z</time>
      </trkpt>
      <trkpt lat="48.4183" lon="5.22211">
        <ele>230.68</ele>
        <time>2025-01-04T12:26:20.159Z</time>
      </trkpt>
      <trkpt lat="48.41809" lon="5.22224">
        <ele>230.77</ele>
        <time>2025-01-04T12:26:25.152Z</time>
      </trkpt>
      <trkpt lat="48.41789" lon="5.22237">
        <ele>230.87</ele>
        <time>2025-01-04T12:26:30.148Z</time>
      </trkpt>
      <trkpt lat="48.41771" lon="5.22252">
        <ele>231.05</ele>
        <time>2025-01-04T12:26:35.147Z</time>
      </trkpt>
      <trkpt lat="48.41754" lon="5.22266">
        <ele>231.26</ele>
        <time>2025-01-04T12:26:40.149Z</time>
      </trkpt>
      <trkpt lat="48.41733" lon="5.22283">
        <ele>231.48</ele>
        <time>2025-01-04T12:26:45.155Z</time>
      </trkpt>
      <trkpt lat="48.41712" lon="5.223">
        <ele>231.61</ele>
        <time>2025-01-04T12:26:50.165Z</time>
      </trkpt>
      <trkpt lat="48.41688" lon="5.2232">
        <ele>231.82</ele>
        <time>2025-01-04T12:26:55.179Z</time>
      </trkpt>
      <trkpt lat="48.41665" lon="5.2234">
        <ele>232.01</ele>
        <time>2025-01-04T12:27:00.198Z</time>
      </trkpt>
      <trkpt lat="48.41646" lon="5.22355">
        <ele>232.24</ele>
        <time>2025-01-04T12:27:05.220Z</time>
      </trkpt>
      <trkpt lat="48.41627" lon="5.22371">
        <ele>232.53</ele>
        <time>2025-01-04T12:27:10.246Z</time>
      </trkpt>
      <trkpt lat="48.41611" lon="5.22384">
        <ele>232.87</ele>
        <time>2025-01-04T12:27:15.275Z</time>
      </trkpt>
      <trkpt lat="48.41596" lon="5.22397">
        <ele>233.14</ele>
        <time>2025-01-04T12:27:20.306Z</time>
      </trkpt>
      <trkpt lat="48.41575" lon="5.22414">
        <ele>233.41</ele>
        <time>2025-01-04T12:27:25.341Z</time>
      </trkpt>
      <trkpt lat="48.41555" lon="5.22431">
        <ele>233.65</ele>
        <time>2025-01-04T12:27:30.380Z</time>
      </trkpt>
      <trkpt lat="48.41536" lon="5.22447">
        <ele>233.92</ele>
        <time>2025-01-04T12:27:35.422Z</time>
      </trkpt>
      <trkpt lat="48.41517" lon="5.22462">
        <ele>234.24</ele>
        <time>2025-01-04T12:27:40.468Z</time>
      </trkpt>
      <trkpt lat="48.41495" lon="5.22482">
        <ele>234.56</ele>
        <time>2025-01-04T12:27:45.518Z</time>
      </trkpt>
      <trkpt lat="48.41473" lon="5.22502">
        <ele>234.81</ele>
        <time>2025-01-04T12:27:50.572Z</time>
      </trkpt>
      <trkpt lat="48.41453" lon="5.22525">
        <ele>235.16</ele>
        <time>2025-01-04T12:27:55.630Z</time>
      </trkpt>
      <trkpt lat="48.41432" lon="5.22548">
        <ele>235.52</ele>
        <time>2025-01-04T12:28:00.692Z</time>
      </trkpt>
      <trkpt lat="48.41413" lon="5.2257">
        <ele>235.82</ele>
        <time>2025-01-04T12:28:05.758Z</time>
      </trkpt>
      <trkpt lat="48.41394" lon="5.2259">
        <ele>236.09</ele>
        <time>2025-01-04T12:28:10.828Z</time>
      </trkpt>
      <trkpt lat="48.41379" lon="5.22607">
        <ele>236.42</ele>
        <time>2025-01-04T12:28:15.901Z</time>
      </trkpt>
      <trkpt lat="48.41364" lon="5.22624">
        <ele>236.79</ele>
        <time>2025-01-04T12:28:20.977Z</time>
      </trkpt>
      <trkpt lat="48.41343" lon="5.22647">
        <ele>237.19</ele>
        <time>2025-01-04T12:28:26.057Z</time>
      </trkpt>
      <trkpt lat="48.41323" lon="5.22671">
        <ele>237.59</ele>
        <time>2025-01-04T12:28:31.141Z</time>
      </trkpt>
      <trkpt lat="48.41298" lon="5.22695">
        <ele>237.9</ele>
        <time>2025-01-04T12:28:36.230Z</time>
      </trkpt>
      <trkpt lat="48.41273" lon="5.2272">
        <ele>238.22</ele>
        <time>2025-01-04T12:28:41.324Z</time>
      </trkpt>
      <trkpt lat="48.41268" lon="5.22725">
        <ele>238.59</ele>
        <time>2025-01-04T12:28:46.419Z</time>
      </trkpt>
      <trkpt lat="48.41247" lon="5.22744">
        <ele>239.02</ele>
        <time>2025-01-04T12:28:51.517Z</time>
      </trkpt>
      <trkpt lat="48.41226" lon="5.22763">
        <ele>239.5</ele>
        <time>2025-01-04T12:28:56.619Z</time>
      </trkpt>
      <trkpt lat="48.41199" lon="5.2278">
        <ele>239.93</ele>
        <time>2025-01-04T12:29:01.726Z</time>
      </trkpt>
      <trkpt lat="48.41172" lon="5.22796">
        <ele>240.31</ele>
        <time>2025-01-04T12:29:06.838Z</time>
      </trkpt>
      <trkpt lat="48.41152" lon="5.22805">
        <ele>240.59</ele>
        <time>2025-01-04T12:29:11.953Z</time>
      </trkpt>
      <trkpt lat="48.41131" lon="5.22813">
        <ele>240.85</ele>
        <time>2025-01-04T12:29:17.072Z</time>
      </trkpt>
      <trkpt lat="48.41104" lon="5.22825">
        <ele>241.12</ele>
        <time>2025-01-04T12:29:22.195Z</time>
      </trkpt>
      <trkpt lat="48.41076" lon="5.22837">
        <ele>241.41</ele>
        <time>2025-01-04T12:29:27.323Z</time>
      </trkpt>
      <trkpt lat="48.41051" lon="5.22847">
        <ele>241.77</ele>
        <time>2025-01-04T12:29:32.455Z</time>
      </trkpt>
      <trkpt lat="48.41027" lon="5.22858">
        <ele>242.09</ele>
        <time>2025-01-04T12:29:37.591Z</time>
      </trkpt>
      <trkpt lat="48.40999" lon="5.22872">
        <ele>242.31</ele>
        <time>2025-01-04T12:29:42.732Z</time>
      </trkpt>
      <trkpt lat="48.40972" lon="5.22886">
        <ele>242.52</ele>
        <time>2025-01-04T12:29:47.877Z</time>
      </trkpt>
      <trkpt lat="48.40944" lon="5.22903">
        <ele>242.76</ele>
        <time>2025-01-04T12:29:53.027Z</time>
      </trkpt>
      <trkpt lat="48.40917" lon="5.2292">
        <ele>243.02</ele>
        <time>2025-01-04T12:29:58.182Z</time>
      </trkpt>
      <trkpt lat="48.4089" lon="5.22937">
        <ele>243.24</ele>
        <time>2025-01-04T12:30:03.341Z</time>
      </trkpt>
      <trkpt lat="48.40863" lon="5.22953">
        <ele>243.57</ele>
        <time>2025-01-04T12:30:08.505Z</time>
      </trkpt>
      <trkpt lat="48.4084" lon="5.22967">
        <ele>243.83</ele>
        <time>2025-01-04T12:30:13.673Z</time>
      </trkpt>
      <trkpt lat="48.40817" lon="5.22981">
        <ele>244.03</ele>
        <time>2025-01-04T12:30:18.845Z</time>
      </trkpt>
      <trkpt lat="48.40801" lon="5.23">
        <ele>244.29</ele>
        <time>2025-01-04T12:30:24.020Z</time>
      </trkpt>
      <trkpt lat="48.40784" lon="5.23018">
        <ele>244.44</ele>
        <time>2025-01-04T12:30:29.199Z</time>
      </trkpt>
      <trkpt lat="48.40761" lon="5.23046">
        <ele>244.53</ele>
        <time>2025-01-04T12:30:34.382Z</time>
      </trkpt>
      <trkpt lat="48.40738" lon="5.23074">
        <ele>244.69</ele>
        <time>2025-01-04T12:30:39.570Z</time>
      </trkpt>
      <trkpt lat="48.40715" lon="5.23103">
        <ele>244.85</ele>
        <time>2025-01-04T12:30:44.763Z</time>
      </trkpt>
      <trkpt lat="48.40692" lon="5.23131">
        <ele>244.97</ele>
        <time>2025-01-04T12:30:49.961Z</time>
      </trkpt>
      <trkpt lat="48.4067" lon="5.23151">
        <ele>245.06</ele>
        <time>2025-01-04T12:30:55.163Z</time>
      </trkpt>
      <trkpt lat="48.40648" lon="5.23171">
        <ele>245.13</ele>
        <time>2025-01-04T12:31:00.369Z</time>
      </trkpt>
      <trkpt lat="48.40626" lon="5.23191">
        <ele>245.19</ele>
        <time>2025-01-04T12:31:05.579Z</time>
      </trkpt>
      <trkpt lat="48.40604" lon="5.2321">
        <ele>245.36</ele>
        <time>2025-01-04T12:31:10.793Z</time>
      </trkpt>
      <trkpt lat="48.40578" lon="5.23233">
        <ele>245.5</ele>
        <time>2025-01-04T12:31:16.012Z</time>
      </trkpt>
      <trkpt lat="48.40552" lon="5.23256">
        <ele>245.54</ele>
        <time>2025-01-04T12:31:21.236Z</time>
      </trkpt>
      <trkpt lat="48.40527" lon="5.23278">
        <ele>245.6</ele>
        <time>2025-01-04T12:31:26.464Z</time>
      </trkpt>
      <trkpt lat="48.40503" lon="5.233">
        <ele>245.75</ele>
        <time>2025-01-04T12:31:31.697Z</time>
      </trkpt>
      <trkpt lat="48.40497" lon="5.23305">
        <ele>245.9</ele>
        <time>2025-01-04T12:31:36.931Z</time>
      </trkpt>
      <trkpt lat="48.40481" lon="5.23319">
        <ele>246.09</ele>
        <time>2025-01-04T12:31:42.168Z</time>
      </trkpt>
      <trkpt lat="48.40465" lon="5.23334">
        <ele>246.26</ele>
        <time>2025-01-04T12:31:47.408Z</time>
      </trkpt>
      <trkpt lat="48.4045" lon="5.23353">
        <ele>246.41</ele>
        <time>2025-01-04T12:31:52.651Z</time>
      </trkpt>
      <trkpt lat="48.40435" lon="5.23371">
        <ele>246.61</ele>
        <time>2025-01-04T12:31:57.897Z</time>
      </trkpt>
      <trkpt lat="48.40419" lon="5.23394">
        <ele>246.74</ele>
        <time>2025-01-04T12:32:03.147Z</time>
      </trkpt>
      <trkpt lat="48.40402" lon="5.23416">
        <ele>246.9</ele>
        <time>2025-01-04T12:32:08.400Z</time>
      </trkpt>
      <trkpt lat="48.40383" lon="5.23445">
        <ele>247.07</ele>
        <time>2025-01-04T12:32:13.658Z</time>
      </trkpt>
      <trkpt lat="48.40364" lon="5.23473">
        <ele>247.31</ele>
        <time>2025-01-04T12:32:18.920Z</time>
      </trkpt>
      <trkpt lat="48.40348" lon="5.23497">
        <ele>247.58</ele>
        <time>2025-01-04T12:32:24.185Z</time>
      </trkpt>
      <trkpt lat="48.40332" lon="5.2352">
        <ele>247.98</ele>
        <time>2025-01-04T12:32:29.454Z</time>
      </trkpt>
      <trkpt lat="48.40314" lon="5.23539">
        <ele>248.25</ele>
        <time>2025-01-04T12:32:34.727Z</time>
      </trkpt>
      <trkpt lat="48.40295" lon="5.23558">
        <ele>248.49</ele>
        <time>2025-01-04T12:32:40.003Z</time>
      </trkpt>
      <trkpt lat="48.40279" lon="5.23568">
        <ele>248.69</ele>
        <time>2025-01-04T12:32:45.282Z</time>
      </trkpt>
      <trkpt lat="48.40263" lon="5.23577">
        <ele>248.89</ele>
        <time>2025-01-04T12:32:50.564Z</time>
      </trkpt>
      <trkpt lat="48.40237" lon="5.23591">
        <ele>249.1</ele>
        <time>2025-01-04T12:32:55.850Z</time>
      </trkpt>
      <trkpt lat="48.40212" lon="5.23604">
        <ele>249.24</ele>
        <time>2025-01-04T12:33:01.140Z</time>
      </trkpt>
      <trkpt lat="48.40189" lon="5.23617">
        <ele>249.34</ele>
        <time>2025-01-04T12:33:06.434Z</time>
      </trkpt>
      <trkpt lat="48.40167" lon="5.23629">
        <ele>249.4</ele>
        <time>2025-01-04T12:33:11.732Z</time>
      </trkpt>
      <trkpt lat="48.40141" lon="5.23643">
        <ele>249.55</ele>
        <time>2025-01-04T12:33:17.035Z</time>
      </trkpt>
      <trkpt lat="48.40115" lon="5.23657">
        <ele>249.68</ele>
        <time>2025-01-04T12:33:22.342Z</time>
      </trkpt>
      <trkpt lat="48.40096" lon="5.23667">
        <ele>249.83</ele>
        <time>2025-01-04T12:33:27.652Z</time>
      </trkpt>
      <trkpt lat="48.40068" lon="5.23682">
        <ele>250.01</ele>
        <time>2025-01-04T12:33:32.967Z</time>
      </trkpt>
      <trkpt lat="48.40039" lon="5.23697">
        <ele>250.22</ele>
        <time>2025-01-04T12:33:38.287Z</time>
      </trkpt>
      <trkpt lat="48.40027" lon="5.23704">
        <ele>250.43</ele>
        <time>2025-01-04T12:33:43.609Z</time>
      </trkpt>
      <trkpt lat="48.39998" lon="5.23719">
        <ele>250.63</ele>
        <time>2025-01-04T12:33:48.936Z</time>
      </trkpt>
      <trkpt lat="48.3997" lon="5.23734">
        <ele>250.71</ele>
        <time>2025-01-04T12:33:54.268Z</time>
      </trkpt>
      <trkpt lat="48.39949" lon="5.23746">
        <ele>250.8</ele>
        <time>2025-01-04T12:33:59.603Z</time>
      </trkpt>
      <trkpt lat="48.39927" lon="5.23757">
        <ele>250.95</ele>
        <time>2025-01-04T12:34:04.942Z</time>
      </trkpt>
      <trkpt lat="48.39905" lon="5.23773">
        <ele>251.18</ele>
        <time>2025-01-04T12:34:10.285Z</time>
      </trkpt>
      <trkpt lat="48.39883" lon="5.23788">
        <ele>251.43</ele>
        <time>2025-01-04T12:34:15.632Z</time>
      </trkpt>
      <trkpt lat="48.39864" lon="5.23807">
        <ele>251.67</ele>
        <time>2025-01-04T12:34:20.982Z</time>
      </trkpt>
      <trkpt lat="48.39844" lon="5.23826">
        <ele>251.85</ele>
        <time>2025-01-04T12:34:26.336Z</time>
      </trkpt>
      <trkpt lat="48.39821" lon="5.23849">
        <ele>252.07</ele>
        <time>2025-01-04T12:34:31.695Z</time>
      </trkpt>
      <trkpt lat="48.39797" lon="5.23872">
        <ele>252.34</ele>
        <time>2025-01-04T12:34:37.058Z</time>
      </trkpt>
      <trkpt lat="48.39779" lon="5.23892">
        <ele>252.57</ele>
        <time>2025-01-04T12:34:42.425Z</time>
      </trkpt>
      <trkpt lat="48.3976" lon="5.23911">
        <ele>252.78</ele>
        <time>2025-01-04T12:34:47.795Z</time>
      </trkpt>
      <trkpt lat="48.39741" lon="5.23937">
        <ele>252.96</ele>
        <time>2025-01-04T12:34:53.169Z</time>
      </trkpt>
      <trkpt lat="48.39721" lon="5.23963">
        <ele>253.13</ele>
        <time>2025-01-04T12:34:58.548Z</time>
      </trkpt>
      <trkpt lat="48.39703" lon="5.23991">
        <ele>253.31</ele>
        <time>2025-01-04T12:35:03.931Z</time>
      </trkpt>
      <trkpt lat="48.39684" lon="5.24017">
        <ele>253.51</ele>
        <time>2025-01-04T12:35:09.318Z</time>
      </trkpt>
      <trkpt lat="48.3967" lon="5.24047">
        <ele>253.73</ele>
        <time>2025-01-04T12:35:14.709Z</time>
      </trkpt>
      <trkpt lat="48.39655" lon="5.24077">
        <ele>253.92</ele>
        <time>2025-01-04T12:35:20.104Z</time>
      </trkpt>
      <trkpt lat="48.39641" lon="5.24108">
        <ele>254.09</ele>
        <time>2025-01-04T12:35:25.503Z</time>
      </trkpt>
      <trkpt lat="48.39626" lon="5.24138">
        <ele>254.18</ele>
        <time>2025-01-04T12:35:30.906Z</time>
      </trkpt>
      <trkpt lat="48.39615" lon="5.2416">
        <ele>254.25</ele>
        <time>2025-01-04T12:35:36.312Z</time>
      </trkpt>
      <trkpt lat="48.39603" lon="5.24182">
        <ele>254.27</ele>
        <time>2025-01-04T12:35:41.721Z</time>
      </trkpt>
      <trkpt lat="48.39589" lon="5.24203">
        <ele>254.3</ele>
        <time>2025-01-04T12:35:47.133Z</time>
      </trkpt>
      <trkpt lat="48.39575" lon="5.24224">
        <ele>254.36</ele>
        <time>2025-01-04T12:35:52.548Z</time>
      </trkpt>
      <trkpt lat="48.39554" lon="5.24249">
        <ele>254.37</ele>
        <time>2025-01-04T12:35:57.967Z</time>
      </trkpt>
      <trkpt lat="48.39533" lon="5.24275">
        <ele>254.33</ele>
        <time>2025-01-04T12:36:03.391Z</time>
      </trkpt>
      <trkpt lat="48.39514" lon="5.24297">
        <ele>254.24</ele>
        <time>2025-01-04T12:36:08.819Z</time>
      </trkpt>
      <trkpt lat="48.39496" lon="5.2432">
        <ele>254.17</ele>
        <time>2025-01-04T12:36:14.250Z</time>
      </trkpt>
      <trkpt lat="48.39475" lon="5.24345">
        <ele>254.12</ele>
        <time>2025-01-04T12:36:19.686Z</time>
      </trkpt>
      <trkpt lat="48.39454" lon="5.24371">
        <ele>254.04</ele>
        <time>2025-01-04T12:36:25.126Z</time>
      </trkpt>
      <trkpt lat="48.39449" lon="5.24377">
        <ele>253.98</ele>
        <time>2025-01-04T12:36:30.567Z</time>
      </trkpt>
      <trkpt lat="48.3943" lon="5.244">
        <ele>253.95</ele>
        <time>2025-01-04T12:36:36.012Z</time>
      </trkpt>
      <trkpt lat="48.39412" lon="5.24422">
        <ele>253.92</ele>
        <time>2025-01-04T12:36:41.461Z</time>
      </trkpt>
      <trkpt lat="48.39395" lon="5.2444">
        <ele>253.82</ele>
        <time>2025-01-04T12:36:46.913Z</time>
      </trkpt>
      <trkpt lat="48.39377" lon="5.24458">
        <ele>253.81</ele>
        <time>2025-01-04T12:36:52.368Z</time>
      </trkpt>
      <trkpt lat="48.39362" lon="5.24464">
        <ele>253.74</ele>
        <time>2025-01-04T12:36:57.826Z</time>
      </trkpt>
      <trkpt lat="48.39346" lon="5.2447">
        <ele>253.73</ele>
        <time>2025-01-04T12:37:03.287Z</time>
      </trkpt>
      <trkpt lat="48.39328" lon="5.2447">
        <ele>253.7</ele>
        <time>2025-01-04T12:37:08.751Z</time>
      </trkpt>
      <trkpt lat="48.39308" lon="5.24469">
        <ele>253.72</ele>
        <time>2025-01-04T12:37:14.218Z</time>
      </trkpt>
      <trkpt lat="48.39286" lon="5.24468">
        <ele>253.73</ele>
        <time>2025-01-04T12:37:19.688Z</time>
      </trkpt>
      <trkpt lat="48.39264" lon="5.24467">
        <ele>253.79</ele>
        <time>2025-01-04T12:37:25.162Z</time>
      </trkpt>
      <trkpt lat="48.39258" lon="5.24467">
        <ele>253.91</ele>
        <time>2025-01-04T12:37:30.637Z</time>
      </trkpt>
      <trkpt lat="48.39242" lon="5.24469">
        <ele>254.07</ele>
        <time>2025-01-04T12:37:36.114Z</time>
      </trkpt>
      <trkpt lat="48.39226" lon="5.24471">
        <ele>254.28</ele>
        <time>2025-01-04T12:37:41.594Z</time>
      </trkpt>
      <trkpt lat="48.3922" lon="5.24472">
        <ele>254.55</ele>
        <time>2025-01-04T12:37:47.075Z</time>
      </trkpt>
      <trkpt lat="48.39215" lon="5.24476">
        <ele>254.88</ele>
        <time>2025-01-04T12:37:52.557Z</time>
      </trkpt>
      <trkpt lat="48.39202" lon="5.2449">
        <ele>255.3</ele>
        <time>2025-01-04T12:37:58.041Z</time>
      </trkpt>
      <trkpt lat="48.39198" lon="5.24495">
        <ele>255.75</ele>
        <time>2025-01-04T12:38:03.526Z</time>
      </trkpt>
      <trkpt lat="48.39177" lon="5.24523">
        <ele>256.36</ele>
        <time>2025-01-04T12:38:09.016Z</time>
      </trkpt>
      <trkpt lat="48.39164" lon="5.24543">
        <ele>256.91</ele>
        <time>2025-01-04T12:38:14.509Z</time>
      </trkpt>
      <trkpt lat="48.39151" lon="5.24564">
        <ele>257.53</ele>
        <time>2025-01-04T12:38:20.005Z</time>
      </trkpt>
      <trkpt lat="48.39148" lon="5.24569">
        <ele>258.19</ele>
        <time>2025-01-04T12:38:25.501Z</time>
      </trkpt>
      <trkpt lat="48.39135" lon="5.24585">
        <ele>258.92</ele>
        <time>2025-01-04T12:38:31.000Z</time>
      </trkpt>
      <trkpt lat="48.39121" lon="5.24587">
        <ele>259.76</ele>
        <time>2025-01-04T12:38:36.501Z</time>
      </trkpt>
      <trkpt lat="48.39103" lon="5.2459">
        <ele>260.64</ele>
        <time>2025-01-04T12:38:42.005Z</time>
      </trkpt>
      <trkpt lat="48.39095" lon="5.2459">
        <ele>261.57</ele>
        <time>2025-01-04T12:38:47.510Z</time>
      </trkpt>
      <trkpt lat="48.39066" lon="5.24584">
        <ele>262.6</ele>
        <time>2025-01-04T12:38:53.020Z</time>
      </trkpt>
      <trkpt lat="48.39047" lon="5.24577">
        <ele>263.68</ele>
        <time>2025-01-04T12:38:58.533Z</time>
      </trkpt>
      <trkpt lat="48.39028" lon="5.2457">
        <ele>264.81</ele>
        <time>2025-01-04T12:39:04.049Z</time>
      </trkpt>
      <trkpt lat="48.39005" lon="5.24558">
        <ele>266.01</ele>
        <time>2025-01-04T12:39:09.569Z</time>
      </trkpt>
      <trkpt lat="48.38986" lon="5.24543">
        <ele>267.24</ele>
        <time>2025-01-04T12:39:15.093Z</time>
      </trkpt>
      <trkpt lat="48.38967" lon="5.24529">
        <ele>268.5</ele>
        <time>2025-01-04T12:39:20.620Z</time>
      </trkpt>
      <trkpt lat="48.38951" lon="5.24507">
        <ele>269.84</ele>
        <time>2025-01-04T12:39:26.151Z</time>
      </trkpt>
      <trkpt lat="48.38934" lon="5.24485">
        <ele>271.18</ele>
        <time>2025-01-04T12:39:31.685Z</time>
      </trkpt>
      <trkpt lat="48.38919" lon="5.24465">
        <ele>272.48</ele>
        <time>2025-01-04T12:39:37.222Z</time>
      </trkpt>
      <trkpt lat="48.38904" lon="5.24444">
        <ele>273.83</ele>
        <time>2025-01-04T12:39:42.763Z</time>
      </trkpt>
      <trkpt lat="48.38886" lon="5.24432">
        <ele>275.21</ele>
        <time>2025-01-04T12:39:48.307Z</time>
      </trkpt>
      <trkpt lat="48.38867" lon="5.24423">
        <ele>276.63</ele>
        <time>2025-01-04T12:39:53.854Z</time>
      </trkpt>
      <trkpt lat="48.38846" lon="5.24415">
        <ele>278.05</ele>
        <time>2025-01-04T12:39:59.404Z</time>
      </trkpt>
      <trkpt lat="48.38828" lon="5.24408">
        <ele>279.42</ele>
        <time>2025-01-04T12:40:04.958Z</time>
      </trkpt>
      <trkpt lat="48.38802" lon="5.24398">
        <ele>280.72</ele>
        <time>2025-01-04T12:40:10.516Z</time>
      </trkpt>
      <trkpt lat="48.38776" lon="5.24387">
        <ele>282</ele>
        <time>2025-01-04T12:40:16.078Z</time>
      </trkpt>
      <trkpt lat="48.38753" lon="5.24378">
        <ele>283.23</ele>
        <time>2025-01-04T12:40:21.644Z</time>
      </trkpt>
      <trkpt lat="48.38729" lon="5.24369">
        <ele>284.51</ele>
        <time>2025-01-04T12:40:27.214Z</time>
      </trkpt>
      <trkpt lat="48.38704" lon="5.24357">
        <ele>285.75</ele>
        <time>2025-01-04T12:40:32.788Z</time>
      </trkpt>
      <trkpt lat="48.38678" lon="5.24341">
        <ele>286.93</ele>
        <time>2025-01-04T12:40:38.367Z</time>
      </trkpt>
      <trkpt lat="48.3865" lon="5.24325">
        <ele>288.09</ele>
        <time>2025-01-04T12:40:43.950Z</time>
      </trkpt>
      <trkpt lat="48.38632" lon="5.24314">
        <ele>289.27</ele>
        <time>2025-01-04T12:40:49.537Z</time>
      </trkpt>
      <trkpt lat="48.38617" lon="5.24302">
        <ele>290.48</ele>
        <time>2025-01-04T12:40:55.126Z</time>
      </trkpt>
      <trkpt lat="48.38602" lon="5.24291">
        <ele>291.66</ele>
        <time>2025-01-04T12:41:00.718Z</time>
      </trkpt>
      <trkpt lat="48.38576" lon="5.2427">
        <ele>292.84</ele>
        <time>2025-01-04T12:41:06.315Z</time>
      </trkpt>
      <trkpt lat="48.38552" lon="5.24251">
        <ele>293.93</ele>
        <time>2025-01-04T12:41:11.916Z</time>
      </trkpt>
      <trkpt lat="48.38533" lon="5.24236">
        <ele>295.04</ele>
        <time>2025-01-04T12:41:17.520Z</time>
      </trkpt>
      <trkpt lat="48.3851" lon="5.24222">
        <ele>296.2</ele>
        <time>2025-01-04T12:41:23.128Z</time>
      </trkpt>
      <trkpt lat="48.38494" lon="5.24243">
        <ele>297.45</ele>
        <time>2025-01-04T12:41:28.740Z</time>
      </trkpt>
      <trkpt lat="48.38493" lon="5.24265">
        <ele>298.6</ele>
        <time>2025-01-04T12:41:34.354Z</time>
      </trkpt>
      <trkpt lat="48.38492" lon="5.24277">
        <ele>299.75</ele>
        <time>2025-01-04T12:41:39.969Z</time>
      </trkpt>
      <trkpt lat="48.38489" lon="5.24303">
        <ele>300.9</ele>
        <time>2025-01-04T12:41:45.587Z</time>
      </trkpt>
      <trkpt lat="48.38487" lon="5.24328">
        <ele>302.04</ele>
        <time>2025-01-04T12:41:51.208Z</time>
      </trkpt>
      <trkpt lat="48.38482" lon="5.24359">
        <ele>303.22</ele>
        <time>2025-01-04T12:41:56.832Z</time>
      </trkpt>
      <trkpt lat="48.38475" lon="5.2438">
        <ele>304.4</ele>
        <time>2025-01-04T12:42:02.459Z</time>
      </trkpt>
      <trkpt lat="48.38466" lon="5.24402">
        <ele>305.58</ele>
        <time>2025-01-04T12:42:08.089Z</time>
      </trkpt>
      <trkpt lat="48.38458" lon="5.2442">
        <ele>306.73</ele>
        <time>2025-01-04T12:42:13.721Z</time>
      </trkpt>
      <trkpt lat="48.38447" lon="5.24444">
        <ele>307.84</ele>
        <time>2025-01-04T12:42:19.356Z</time>
      </trkpt>
      <trkpt lat="48.38427" lon="5.2446">
        <ele>308.95</ele>
        <time>2025-01-04T12:42:24.995Z</time>
      </trkpt>
      <trkpt lat="48.38404" lon="5.24462">
        <ele>310.01</ele>
        <time>2025-01-04T12:42:30.637Z</time>
      </trkpt>
      <trkpt lat="48.38376" lon="5.2445">
        <ele>311.08</ele>
        <time>2025-01-04T12:42:36.284Z</time>
      </trkpt>
      <trkpt lat="48.38356" lon="5.24429">
        <ele>312.16</ele>
        <time>2025-01-04T12:42:41.935Z</time>
      </trkpt>
      <trkpt lat="48.38338" lon="5.24402">
        <ele>313.21</ele>
        <time>2025-01-04T12:42:47.590Z</time>
      </trkpt>
      <trkpt lat="48.38321" lon="5.24376">
        <ele>314.18</ele>
        <time>2025-01-04T12:42:53.249Z</time>
      </trkpt>
      <trkpt lat="48.38308" lon="5.24348">
        <ele>315.06</ele>
        <time>2025-01-04T12:42:58.912Z</time>
      </trkpt>
      <trkpt lat="48.38294" lon="5.24316">
        <ele>315.92</ele>
        <time>2025-01-04T12:43:04.579Z</time>
      </trkpt>
      <trkpt lat="48.38281" lon="5.24286">
        <ele>316.79</ele>
        <time>2025-01-04T12:43:10.249Z</time>
      </trkpt>
      <trkpt lat="48.38265" lon="5.24258">
        <ele>317.65</ele>
        <time>2025-01-04T12:43:15.923Z</time>
      </trkpt>
      <trkpt lat="48.38254" lon="5.24236">
        <ele>318.43</ele>
        <time>2025-01-04T12:43:21.600Z</time>
      </trkpt>
      <trkpt lat="48.38239" lon="5.24209">
        <ele>319.22</ele>
        <time>2025-01-04T12:43:27.281Z</time>
      </trkpt>
      <trkpt lat="48.38224" lon="5.24181">
        <ele>319.94</ele>
        <time>2025-01-04T12:43:32.966Z</time>
      </trkpt>
      <trkpt lat="48.38205" lon="5.24147">
        <ele>320.53</ele>
        <time>2025-01-04T12:43:38.656Z</time>
      </trkpt>
      <trkpt lat="48.38193" lon="5.24125">
        <ele>321.03</ele>
        <time>2025-01-04T12:43:44.349Z</time>
      </trkpt>
      <trkpt lat="48.38181" lon="5.24103">
        <ele>321.47</ele>
        <time>2025-01-04T12:43:50.045Z</time>
      </trkpt>
      <trkpt lat="48.38163" lon="5.24069">
        <ele>321.85</ele>
        <time>2025-01-04T12:43:55.745Z</time>
      </trkpt>
      <trkpt lat="48.38149" lon="5.24045">
        <ele>322.22</ele>
        <time>2025-01-04T12:44:01.449Z</time>
      </trkpt>
      <trkpt lat="48.38136" lon="5.2402">
        <ele>322.56</ele>
        <time>2025-01-04T12:44:07.156Z</time>
      </trkpt>
      <trkpt lat="48.38123" lon="5.23997">
        <ele>322.82</ele>
        <time>2025-01-04T12:44:12.866Z</time>
      </trkpt>
      <trkpt lat="48.38111" lon="5.23974">
        <ele>323.06</ele>
        <time>2025-01-04T12:44:18.579Z</time>
      </trkpt>
      <trkpt lat="48.38098" lon="5.2395">
        <ele>323.28</ele>
        <time>2025-01-04T12:44:24.296Z</time>
      </trkpt>
      <trkpt lat="48.38084" lon="5.23926">
        <ele>323.52</ele>
        <time>2025-01-04T12:44:30.016Z</time>
      </trkpt>
      <trkpt lat="48.3807" lon="5.23901">
        <ele>323.81</ele>
        <time>2025-01-04T12:44:35.740Z</time>
      </trkpt>
      <trkpt lat="48.38057" lon="5.23875">
        <ele>324.1</ele>
        <time>2025-01-04T12:44:41.467Z</time>
      </trkpt>
      <trkpt lat="48.38044" lon="5.23853">
        <ele>324.38</ele>
        <time>2025-01-04T12:44:47.197Z</time>
      </trkpt>
      <trkpt lat="48.38032" lon="5.2383">
        <ele>324.72</ele>
        <time>2025-01-04T12:44:52.930Z</time>
      </trkpt>
      <trkpt lat="48.38019" lon="5.23807">
        <ele>325.07</ele>
        <time>2025-01-04T12:44:58.666Z</time>
      </trkpt>
      <trkpt lat="48.38007" lon="5.23785">
        <ele>325.4</ele>
        <time>2025-01-04T12:45:04.406Z</time>
      </trkpt>
      <trkpt lat="48.37995" lon="5.23762">
        <ele>325.71</ele>
        <time>2025-01-04T12:45:10.149Z</time>
      </trkpt>
      <trkpt lat="48.37983" lon="5.2374">
        <ele>325.98</ele>
        <time>2025-01-04T12:45:15.895Z</time>
      </trkpt>
      <trkpt lat="48.37972" lon="5.2372">
        <ele>326.28</ele>
        <time>2025-01-04T12:45:21.643Z</time>
      </trkpt>
      <trkpt lat="48.37961" lon="5.23699">
        <ele>326.57</ele>
        <time>2025-01-04T12:45:27.394Z</time>
      </trkpt>
      <trkpt lat="48.37949" lon="5.23679">
        <ele>326.85</ele>
        <time>2025-01-04T12:45:33.148Z</time>
      </trkpt>
      <trkpt lat="48.37938" lon="5.23658">
        <ele>327.11</ele>
        <time>2025-01-04T12:45:38.905Z</time>
      </trkpt>
      <trkpt lat="48.37919" lon="5.23623">
        <ele>327.37</ele>
        <time>2025-01-04T12:45:44.667Z</time>
      </trkpt>
      <trkpt lat="48.37899" lon="5.23587">
        <ele>327.65</ele>
        <time>2025-01-04T12:45:50.434Z</time>
      </trkpt>
      <trkpt lat="48.37886" lon="5.23564">
        <ele>327.91</ele>
        <time>2025-01-04T12:45:56.204Z</time>
      </trkpt>
      <trkpt lat="48.37872" lon="5.23542">
        <ele>328.15</ele>
        <time>2025-01-04T12:46:01.977Z</time>
      </trkpt>
      <trkpt lat="48.37857" lon="5.23519">
        <ele>328.38</ele>
        <time>2025-01-04T12:46:07.754Z</time>
      </trkpt>
      <trkpt lat="48.37842" lon="5.23496">
        <ele>328.55</ele>
        <time>2025-01-04T12:46:13.534Z</time>
      </trkpt>
      <trkpt lat="48.37825" lon="5.23468">
        <ele>328.68</ele>
        <time>2025-01-04T12:46:19.318Z</time>
      </trkpt>
      <trkpt lat="48.37807" lon="5.23441">
        <ele>328.8</ele>
        <time>2025-01-04T12:46:25.106Z</time>
      </trkpt>
      <trkpt lat="48.37788" lon="5.23411">
        <ele>328.94</ele>
        <time>2025-01-04T12:46:30.899Z</time>
      </trkpt>
      <trkpt lat="48.37769" lon="5.23381">
        <ele>329.01</ele>
        <time>2025-01-04T12:46:36.696Z</time>
      </trkpt>
      <trkpt lat="48.3775" lon="5.23352">
        <ele>329.12</ele>
        <time>2025-01-04T12:46:42.497Z</time>
      </trkpt>
      <trkpt lat="48.37731" lon="5.23323">
        <ele>329.17</ele>
        <time>2025-01-04T12:46:48.303Z</time>
      </trkpt>
      <trkpt lat="48.37714" lon="5.23297">
        <ele>329.21</ele>
        <time>2025-01-04T12:46:54.113Z</time>
      </trkpt>
      <trkpt lat="48.37697" lon="5.23271">
        <ele>329.26</ele>
        <time>2025-01-04T12:46:59.927Z</time>
      </trkpt>
      <trkpt lat="48.37683" lon="5.23245">
        <ele>329.31</ele>
        <time>2025-01-04T12:47:05.744Z</time>
      </trkpt>
      <trkpt lat="48.37668" lon="5.2322">
        <ele>329.34</ele>
        <time>2025-01-04T12:47:11.565Z</time>
      </trkpt>
      <trkpt lat="48.3765" lon="5.23184">
        <ele>329.37</ele>
        <time>2025-01-04T12:47:17.391Z</time>
      </trkpt>
      <trkpt lat="48.37632" lon="5.23147">
        <ele>329.4</ele>
        <time>2025-01-04T12:47:23.221Z</time>
      </trkpt>
      <trkpt lat="48.37614" lon="5.23111">
        <ele>329.41</ele>
        <time>2025-01-04T12:47:29.056Z</time>
      </trkpt>
      <trkpt lat="48.37596" lon="5.23075">
        <ele>329.4</ele>
        <time>2025-01-04T12:47:34.896Z</time>
      </trkpt>
      <trkpt lat="48.37577" lon="5.23039">
        <ele>329.41</ele>
        <time>2025-01-04T12:47:40.741Z</time>
      </trkpt>
      <trkpt lat="48.37559" lon="5.23002">
        <ele>329.5</ele>
        <time>2025-01-04T12:47:46.591Z</time>
      </trkpt>
      <trkpt lat="48.37544" lon="5.22972">
        <ele>329.52</ele>
        <time>2025-01-04T12:47:52.445Z</time>
      </trkpt>
      <trkpt lat="48.37529" lon="5.22941">
        <ele>329.45</ele>
        <time>2025-01-04T12:47:58.303Z</time>
      </trkpt>
      <trkpt lat="48.37512" lon="5.22907">
        <ele>329.32</ele>
        <time>2025-01-04T12:48:04.165Z</time>
      </trkpt>
      <trkpt lat="48.37495" lon="5.22872">
        <ele>329.27</ele>
        <time>2025-01-04T12:48:10.032Z</time>
      </trkpt>
      <trkpt lat="48.37491" lon="5.22865">
        <ele>329.24</ele>
        <time>2025-01-04T12:48:15.900Z</time>
      </trkpt>
      <trkpt lat="48.37475" lon="5.22833">
        <ele>329.25</ele>
        <time>2025-01-04T12:48:21.772Z</time>
      </trkpt>
      <trkpt lat="48.37459" lon="5.22801">
        <ele>329.22</ele>
        <time>2025-01-04T12:48:27.649Z</time>
      </trkpt>
      <trkpt lat="48.37442" lon="5.22767">
        <ele>329.11</ele>
        <time>2025-01-04T12:48:33.530Z</time>
      </trkpt>
      <trkpt lat="48.37426" lon="5.22734">
        <ele>329.06</ele>
        <time>2025-01-04T12:48:39.416Z</time>
      </trkpt>
      <trkpt lat="48.37409" lon="5.227">
        <ele>329.02</ele>
        <time>2025-01-04T12:48:45.306Z</time>
      </trkpt>
      <trkpt lat="48.37392" lon="5.22666">
        <ele>328.96</ele>
        <time>2025-01-04T12:48:51.201Z</time>
      </trkpt>
      <trkpt lat="48.37372" lon="5.22631">
        <ele>328.82</ele>
        <time>2025-01-04T12:48:57.100Z</time>
      </trkpt>
      <trkpt lat="48.3737" lon="5.22623">
        <ele>328.77</ele>
        <time>2025-01-04T12:49:03.000Z</time>
      </trkpt>
      <trkpt lat="48.37349" lon="5.22593">
        <ele>328.7</ele>
        <time>2025-01-04T12:49:08.905Z</time>
      </trkpt>
      <trkpt lat="48.37328" lon="5.22562">
        <ele>328.65</ele>
        <time>2025-01-04T12:49:14.815Z</time>
      </trkpt>
      <trkpt lat="48.37307" lon="5.22532">
        <ele>328.58</ele>
        <time>2025-01-04T12:49:20.729Z</time>
      </trkpt>
      <trkpt lat="48.37286" lon="5.22502">
        <ele>328.54</ele>
        <time>2025-01-04T12:49:26.648Z</time>
      </trkpt>
      <trkpt lat="48.37265" lon="5.22472">
        <ele>328.51</ele>
        <time>2025-01-04T12:49:32.572Z</time>
      </trkpt>
      <trkpt lat="48.37244" lon="5.22441">
        <ele>328.53</ele>
        <time>2025-01-04T12:49:38.500Z</time>
      </trkpt>
      <trkpt lat="48.37223" lon="5.22411">
        <ele>328.48</ele>
        <time>2025-01-04T12:49:44.433Z</time>
      </trkpt>
      <trkpt lat="48.37202" lon="5.22381">
        <ele>328.43</ele>
        <time>2025-01-04T12:49:50.371Z</time>
      </trkpt>
      <trkpt lat="48.37181" lon="5.2235">
        <ele>328.44</ele>
        <time>2025-01-04T12:49:56.313Z</time>
      </trkpt>
      <trkpt lat="48.3716" lon="5.22321">
        <ele>328.48</ele>
        <time>2025-01-04T12:50:02.260Z</time>
      </trkpt>
      <trkpt lat="48.37136" lon="5.22289">
        <ele>328.51</ele>
        <time>2025-01-04T12:50:08.212Z</time>
      </trkpt>
      <trkpt lat="48.37113" lon="5.22258">
        <ele>328.49</ele>
        <time>2025-01-04T12:50:14.169Z</time>
      </trkpt>
      <trkpt lat="48.37089" lon="5.22227">
        <ele>328.4</ele>
        <time>2025-01-04T12:50:20.131Z</time>
      </trkpt>
      <trkpt lat="48.37066" lon="5.22196">
        <ele>328.29</ele>
        <time>2025-01-04T12:50:26.098Z</time>
      </trkpt>
      <trkpt lat="48.37042" lon="5.22164">
        <ele>328.25</ele>
        <time>2025-01-04T12:50:32.070Z</time>
      </trkpt>
      <trkpt lat="48.37018" lon="5.22133">
        <ele>328.15</ele>
        <time>2025-01-04T12:50:38.047Z</time>
      </trkpt>
      <trkpt lat="48.36995" lon="5.22102">
        <ele>328.02</ele>
        <time>2025-01-04T12:50:44.029Z</time>
      </trkpt>
      <trkpt lat="48.36971" lon="5.22071">
        <ele>327.88</ele>
        <time>2025-01-04T12:50:50.016Z</time>
      </trkpt>
      <trkpt lat="48.36947" lon="5.22039">
        <ele>327.67</ele>
        <time>2025-01-04T12:50:56.008Z</time>
      </trkpt>
      <trkpt lat="48.36924" lon="5.22008">
        <ele>327.52</ele>
        <time>2025-01-04T12:51:02.005Z</time>
      </trkpt>
      <trkpt lat="48.369" lon="5.21977">
        <ele>327.3</ele>
        <time>2025-01-04T12:51:08.007Z</time>
      </trkpt>
      <trkpt lat="48.36905" lon="5.21933">
        <ele>327.02</ele>
        <time>2025-01-04T12:51:14.014Z</time>
      </trkpt>
      <trkpt lat="48.36909" lon="5.2189">
        <ele>326.74</ele>
        <time>2025-01-04T12:51:20.026Z</time>
      </trkpt>
      <trkpt lat="48.36913" lon="5.21846">
        <ele>326.42</ele>
        <time>2025-01-04T12:51:26.042Z</time>
      </trkpt>
      <trkpt lat="48.36912" lon="5.21808">
        <ele>326</ele>
        <time>2025-01-04T12:51:32.063Z</time>
      </trkpt>
      <trkpt lat="48.36911" lon="5.21769">
        <ele>325.59</ele>
        <time>2025-01-04T12:51:38.088Z</time>
      </trkpt>
      <trkpt lat="48.36909" lon="5.2173">
        <ele>325.15</ele>
        <time>2025-01-04T12:51:44.117Z</time>
      </trkpt>
      <trkpt lat="48.36908" lon="5.21691">
        <ele>324.66</ele>
        <time>2025-01-04T12:51:50.150Z</time>
      </trkpt>
      <trkpt lat="48.36907" lon="5.21653">
        <ele>324.11</ele>
        <time>2025-01-04T12:51:56.187Z</time>
      </trkpt>
      <trkpt lat="48.36908" lon="5.21616">
        <ele>323.57</ele>
        <time>2025-01-04T12:52:02.228Z</time>
      </trkpt>
      <trkpt lat="48.36909" lon="5.21578">
        <ele>322.96</ele>
        <time>2025-01-04T12:52:08.273Z</time>
      </trkpt>
      <trkpt lat="48.36912" lon="5.21546">
        <ele>322.31</ele>
        <time>2025-01-04T12:52:14.322Z</time>
      </trkpt>
      <trkpt lat="48.36915" lon="5.21514">
        <ele>321.63</ele>
        <time>2025-01-04T12:52:20.374Z</time>
      </trkpt>
      <trkpt lat="48.36918" lon="5.21482">
        <ele>320.93</ele>
        <time>2025-01-04T12:52:26.430Z</time>
      </trkpt>
      <trkpt lat="48.36925" lon="5.21444">
        <ele>320.17</ele>
        <time>2025-01-04T12:52:32.490Z</time>
      </trkpt>
      <trkpt lat="48.36933" lon="5.21406">
        <ele>319.34</ele>
        <time>2025-01-04T12:52:38.554Z</time>
      </trkpt>
      <trkpt lat="48.36941" lon="5.21377">
        <ele>318.51</ele>
        <time>2025-01-04T12:52:44.621Z</time>
      </trkpt>
      <trkpt lat="48.3695" lon="5.21348">
        <ele>317.68</ele>
        <time>2025-01-04T12:52:50.692Z</time>
      </trkpt>
      <trkpt lat="48.36963" lon="5.21314">
        <ele>316.77</ele>
        <time>2025-01-04T12:52:56.767Z</time>
      </trkpt>
      <trkpt lat="48.36977" lon="5.21279">
        <ele>315.81</ele>
        <time>2025-01-04T12:53:02.846Z</time>
      </trkpt>
      <trkpt lat="48.3699" lon="5.21244">
        <ele>314.83</ele>
        <time>2025-01-04T12:53:08.930Z</time>
      </trkpt>
      <trkpt lat="48.37003" lon="5.21209">
        <ele>313.75</ele>
        <time>2025-01-04T12:53:15.018Z</time>
      </trkpt>
      <trkpt lat="48.37006" lon="5.212">
        <ele>312.72</ele>
        <time>2025-01-04T12:53:21.107Z</time>
      </trkpt>
      <trkpt lat="48.37008" lon="5.21177">
        <ele>311.67</ele>
        <time>2025-01-04T12:53:27.198Z</time>
      </trkpt>
      <trkpt lat="48.37003" lon="5.21155">
        <ele>310.59</ele>
        <time>2025-01-04T12:53:33.292Z</time>
      </trkpt>
      <trkpt lat="48.36986" lon="5.21134">
        <ele>309.44</ele>
        <time>2025-01-04T12:53:39.389Z</time>
      </trkpt>
      <trkpt lat="48.36969" lon="5.21112">
        <ele>308.25</ele>
        <time>2025-01-04T12:53:45.490Z</time>
      </trkpt>
      <trkpt lat="48.36969" lon="5.21093">
        <ele>307.04</ele>
        <time>2025-01-04T12:53:51.593Z</time>
      </trkpt>
      <trkpt lat="48.36971" lon="5.21082">
        <ele>305.83</ele>
        <time>2025-01-04T12:53:57.697Z</time>
      </trkpt>
      <trkpt lat="48.36984" lon="5.21072">
        <ele>304.56</ele>
        <time>2025-01-04T12:54:03.804Z</time>
      </trkpt>
      <trkpt lat="48.37014" lon="5.21065">
        <ele>303.22</ele>
        <time>2025-01-04T12:54:09.915Z</time>
      </trkpt>
      <trkpt lat="48.37034" lon="5.2105">
        <ele>301.85</ele>
        <time>2025-01-04T12:54:16.030Z</time>
      </trkpt>
      <trkpt lat="48.37049" lon="5.21029">
        <ele>300.44</ele>
        <time>2025-01-04T12:54:22.148Z</time>
      </trkpt>
      <trkpt lat="48.37064" lon="5.21007">
        <ele>299.04</ele>
        <time>2025-01-04T12:54:28.270Z</time>
      </trkpt>
      <trkpt lat="48.37083" lon="5.2099">
        <ele>297.67</ele>
        <time>2025-01-04T12:54:34.395Z</time>
      </trkpt>
      <trkpt lat="48.37105" lon="5.20994">
        <ele>296.41</ele>
        <time>2025-01-04T12:54:40.524Z</time>
      </trkpt>
      <trkpt lat="48.37128" lon="5.20999">
        <ele>295.02</ele>
        <time>2025-01-04T12:54:46.656Z</time>
      </trkpt>
      <trkpt lat="48.37152" lon="5.21016">
        <ele>293.66</ele>
        <time>2025-01-04T12:54:52.793Z</time>
      </trkpt>
      <trkpt lat="48.37171" lon="5.21037">
        <ele>292.36</ele>
        <time>2025-01-04T12:54:58.933Z</time>
      </trkpt>
      <trkpt lat="48.37184" lon="5.2105">
        <ele>291.08</ele>
        <time>2025-01-04T12:55:05.076Z</time>
      </trkpt>
      <trkpt lat="48.37205" lon="5.21052">
        <ele>289.73</ele>
        <time>2025-01-04T12:55:11.222Z</time>
      </trkpt>
      <trkpt lat="48.37214" lon="5.2105">
        <ele>288.45</ele>
        <time>2025-01-04T12:55:17.370Z</time>
      </trkpt>
      <trkpt lat="48.37229" lon="5.21037">
        <ele>287.17</ele>
        <time>2025-01-04T12:55:23.521Z</time>
      </trkpt>
      <trkpt lat="48.37252" lon="5.21018">
        <ele>285.89</ele>
        <time>2025-01-04T12:55:29.676Z</time>
      </trkpt>
      <trkpt lat="48.37274" lon="5.20998">
        <ele>284.63</ele>
        <time>2025-01-04T12:55:35.835Z</time>
      </trkpt>
      <trkpt lat="48.37297" lon="5.20978">
        <ele>283.38</ele>
        <time>2025-01-04T12:55:41.998Z</time>
      </trkpt>
      <trkpt lat="48.3732" lon="5.20958">
        <ele>282.15</ele>
        <time>2025-01-04T12:55:48.165Z</time>
      </trkpt>
      <trkpt lat="48.37343" lon="5.20939">
        <ele>281.01</ele>
        <time>2025-01-04T12:55:54.337Z</time>
      </trkpt>
      <trkpt lat="48.37362" lon="5.20926">
        <ele>279.87</ele>
        <time>2025-01-04T12:56:00.512Z</time>
      </trkpt>
      <trkpt lat="48.37381" lon="5.20913">
        <ele>278.79</ele>
        <time>2025-01-04T12:56:06.690Z</time>
      </trkpt>
      <trkpt lat="48.374" lon="5.209">
        <ele>277.68</ele>
        <time>2025-01-04T12:56:12.872Z</time>
      </trkpt>
      <trkpt lat="48.37424" lon="5.20887">
        <ele>276.61</ele>
        <time>2025-01-04T12:56:19.058Z</time>
      </trkpt>
      <trkpt lat="48.37448" lon="5.20874">
        <ele>275.49</ele>
        <time>2025-01-04T12:56:25.248Z</time>
      </trkpt>
      <trkpt lat="48.37473" lon="5.2085">
        <ele>274.4</ele>
        <time>2025-01-04T12:56:31.443Z</time>
      </trkpt>
      <trkpt lat="48.37499" lon="5.20826">
        <ele>273.23</ele>
        <time>2025-01-04T12:56:37.642Z</time>
      </trkpt>
      <trkpt lat="48.37525" lon="5.20802">
        <ele>272.01</ele>
        <time>2025-01-04T12:56:43.846Z</time>
      </trkpt>
      <trkpt lat="48.37551" lon="5.20778">
        <ele>270.78</ele>
        <time>2025-01-04T12:56:50.055Z</time>
      </trkpt>
      <trkpt lat="48.37564" lon="5.20769">
        <ele>269.53</ele>
        <time>2025-01-04T12:56:56.266Z</time>
      </trkpt>
      <trkpt lat="48.37574" lon="5.20769">
        <ele>268.28</ele>
        <time>2025-01-04T12:57:02.479Z</time>
      </trkpt>
      <trkpt lat="48.37581" lon="5.20778">
        <ele>267.07</ele>
        <time>2025-01-04T12:57:08.694Z</time>
      </trkpt>
      <trkpt lat="48.37587" lon="5.20801">
        <ele>265.84</ele>
        <time>2025-01-04T12:57:14.911Z</time>
      </trkpt>
      <trkpt lat="48.37594" lon="5.20825">
        <ele>264.56</ele>
        <time>2025-01-04T12:57:21.131Z</time>
      </trkpt>
      <trkpt lat="48.37596" lon="5.20855">
        <ele>263.33</ele>
        <time>2025-01-04T12:57:27.354Z</time>
      </trkpt>
      <trkpt lat="48.37598" lon="5.20885">
        <ele>262.12</ele>
        <time>2025-01-04T12:57:33.580Z</time>
      </trkpt>
      <trkpt lat="48.37604" lon="5.20889">
        <ele>260.97</ele>
        <time>2025-01-04T12:57:39.808Z</time>
      </trkpt>
      <trkpt lat="48.37613" lon="5.20885">
        <ele>259.84</ele>
        <time>2025-01-04T12:57:46.037Z</time>
      </trkpt>
      <trkpt lat="48.37636" lon="5.20864">
        <ele>258.67</ele>
        <time>2025-01-04T12:57:52.270Z</time>
      </trkpt>
      <trkpt lat="48.3766" lon="5.20833">
        <ele>257.5</ele>
        <time>2025-01-04T12:57:58.508Z</time>
      </trkpt>
      <trkpt lat="48.37678" lon="5.20802">
        <ele>256.39</ele>
        <time>2025-01-04T12:58:04.751Z</time>
      </trkpt>
      <trkpt lat="48.37697" lon="5.20771">
        <ele>255.35</ele>
        <time>2025-01-04T12:58:10.998Z</time>
      </trkpt>
      <trkpt lat="48.37709" lon="5.20746">
        <ele>254.32</ele>
        <time>2025-01-04T12:58:17.249Z</time>
      </trkpt>
      <trkpt lat="48.37712" lon="5.20735">
        <ele>253.35</ele>
        <time>2025-01-04T12:58:23.501Z</time>
      </trkpt>
      <trkpt lat="48.37712" lon="5.20707">
        <ele>252.37</ele>
        <time>2025-01-04T12:58:29.756Z</time>
      </trkpt>
      <trkpt lat="48.37703" lon="5.20677">
        <ele>251.46</ele>
        <time>2025-01-04T12:58:36.014Z</time>
      </trkpt>
      <trkpt lat="48.3769" lon="5.20651">
        <ele>250.6</ele>
        <time>2025-01-04T12:58:42.276Z</time>
      </trkpt>
      <trkpt lat="48.37677" lon="5.20625">
        <ele>249.75</ele>
        <time>2025-01-04T12:58:48.541Z</time>
      </trkpt>
      <trkpt lat="48.37664" lon="5.206">
        <ele>248.93</ele>
        <time>2025-01-04T12:58:54.810Z</time>
      </trkpt>
      <trkpt lat="48.37651" lon="5.20567">
        <ele>248.14</ele>
        <time>2025-01-04T12:59:01.083Z</time>
      </trkpt>
      <trkpt lat="48.37639" lon="5.20535">
        <ele>247.42</ele>
        <time>2025-01-04T12:59:07.360Z</time>
      </trkpt>
      <trkpt lat="48.37628" lon="5.20505">
        <ele>246.68</ele>
        <time>2025-01-04T12:59:13.640Z</time>
      </trkpt>
      <trkpt lat="48.37617" lon="5.20475">
        <ele>245.94</ele>
        <time>2025-01-04T12:59:19.924Z</time>
      </trkpt>
      <trkpt lat="48.37606" lon="5.20445">
        <ele>245.2</ele>
        <time>2025-01-04T12:59:26.212Z</time>
      </trkpt>
      <trkpt lat="48.37591" lon="5.20411">
        <ele>244.45</ele>
        <time>2025-01-04T12:59:32.504Z</time>
      </trkpt>
      <trkpt lat="48.37576" lon="5.20385">
        <ele>243.85</ele>
        <time>2025-01-04T12:59:38.800Z</time>
      </trkpt>
      <trkpt lat="48.37559" lon="5.20366">
        <ele>243.29</ele>
        <time>2025-01-04T12:59:45.099Z</time>
      </trkpt>
      <trkpt lat="48.37539" lon="5.20347">
        <ele>242.75</ele>
        <time>2025-01-04T12:59:51.402Z</time>
      </trkpt>
      <trkpt lat="48.37519" lon="5.20328">
        <ele>242.21</ele>
        <time>2025-01-04T12:59:57.709Z</time>
      </trkpt>
      <trkpt lat="48.37499" lon="5.2031">
        <ele>241.7</ele>
        <time>2025-01-04T13:00:04.019Z</time>
      </trkpt>
      <trkpt lat="48.37473" lon="5.20291">
        <ele>241.28</ele>
        <time>2025-01-04T13:00:10.334Z</time>
      </trkpt>
      <trkpt lat="48.37448" lon="5.20271">
        <ele>240.85</ele>
        <time>2025-01-04T13:00:16.654Z</time>
      </trkpt>
      <trkpt lat="48.37435" lon="5.20253">
        <ele>240.42</ele>
        <time>2025-01-04T13:00:22.976Z</time>
      </trkpt>
      <trkpt lat="48.37422" lon="5.20235">
        <ele>240.03</ele>
        <time>2025-01-04T13:00:29.301Z</time>
      </trkpt>
      <trkpt lat="48.37409" lon="5.20211">
        <ele>239.69</ele>
        <time>2025-01-04T13:00:35.629Z</time>
      </trkpt>
      <trkpt lat="48.37395" lon="5.20173">
        <ele>239.32</ele>
        <time>2025-01-04T13:00:41.962Z</time>
      </trkpt>
      <trkpt lat="48.37381" lon="5.20134">
        <ele>238.96</ele>
        <time>2025-01-04T13:00:48.300Z</time>
      </trkpt>
      <trkpt lat="48.37369" lon="5.2011">
        <ele>238.73</ele>
        <time>2025-01-04T13:00:54.641Z</time>
      </trkpt>
      <trkpt lat="48.37358" lon="5.20087">
        <ele>238.5</ele>
        <time>2025-01-04T13:01:00.985Z</time>
      </trkpt>
      <trkpt lat="48.3734" lon="5.20057">
        <ele>238.29</ele>
        <time>2025-01-04T13:01:07.333Z</time>
      </trkpt>
      <trkpt lat="48.37319" lon="5.20033">
        <ele>238.14</ele>
        <time>2025-01-04T13:01:13.686Z</time>
      </trkpt>
      <trkpt lat="48.37302" lon="5.2002">
        <ele>238.02</ele>
        <time>2025-01-04T13:01:20.042Z</time>
      </trkpt>
      <trkpt lat="48.37276" lon="5.20008">
        <ele>237.9</ele>
        <time>2025-01-04T13:01:26.402Z</time>
      </trkpt>
      <trkpt lat="48.3725" lon="5.19995">
        <ele>237.85</ele>
        <time>2025-01-04T13:01:32.766Z</time>
      </trkpt>
      <trkpt lat="48.37224" lon="5.19983">
        <ele>237.93</ele>
        <time>2025-01-04T13:01:39.135Z</time>
      </trkpt>
      <trkpt lat="48.37199" lon="5.1997">
        <ele>237.97</ele>
        <time>2025-01-04T13:01:45.508Z</time>
      </trkpt>
      <trkpt lat="48.37173" lon="5.19958">
        <ele>238.07</ele>
        <time>2025-01-04T13:01:51.885Z</time>
      </trkpt>
      <trkpt lat="48.37152" lon="5.19939">
        <ele>238.08</ele>
        <time>2025-01-04T13:01:58.266Z</time>
      </trkpt>
      <trkpt lat="48.3713" lon="5.19913">
        <ele>238.01</ele>
        <time>2025-01-04T13:02:04.652Z</time>
      </trkpt>
      <trkpt lat="48.37114" lon="5.199">
        <ele>238.09</ele>
        <time>2025-01-04T13:02:11.041Z</time>
      </trkpt>
      <trkpt lat="48.37098" lon="5.19887">
        <ele>238.12</ele>
        <time>2025-01-04T13:02:17.433Z</time>
      </trkpt>
      <trkpt lat="48.37069" lon="5.19869">
        <ele>238.17</ele>
        <time>2025-01-04T13:02:23.830Z</time>
      </trkpt>
      <trkpt lat="48.37041" lon="5.1985">
        <ele>238.14</ele>
        <time>2025-01-04T13:02:30.232Z</time>
      </trkpt>
      <trkpt lat="48.37012" lon="5.19831">
        <ele>238.07</ele>
        <time>2025-01-04T13:02:36.639Z</time>
      </trkpt>
      <trkpt lat="48.36997" lon="5.19816">
        <ele>237.98</ele>
        <time>2025-01-04T13:02:43.048Z</time>
      </trkpt>
      <trkpt lat="48.36986" lon="5.19799">
        <ele>237.88</ele>
        <time>2025-01-04T13:02:49.460Z</time>
      </trkpt>
      <trkpt lat="48.36976" lon="5.19763">
        <ele>237.68</ele>
        <time>2025-01-04T13:02:55.876Z</time>
      </trkpt>
      <trkpt lat="48.36968" lon="5.19727">
        <ele>237.48</ele>
        <time>2025-01-04T13:03:02.296Z</time>
      </trkpt>
      <trkpt lat="48.3696" lon="5.19691">
        <ele>237.38</ele>
        <time>2025-01-04T13:03:08.720Z</time>
      </trkpt>
      <trkpt lat="48.36952" lon="5.19655">
        <ele>237.21</ele>
        <time>2025-01-04T13:03:15.148Z</time>
      </trkpt>
      <trkpt lat="48.36954" lon="5.1963">
        <ele>237.02</ele>
        <time>2025-01-04T13:03:21.579Z</time>
      </trkpt>
      <trkpt lat="48.36966" lon="5.19598">
        <ele>236.82</ele>
        <time>2025-01-04T13:03:28.014Z</time>
      </trkpt>
      <trkpt lat="48.36977" lon="5.19567">
        <ele>236.61</ele>
        <time>2025-01-04T13:03:34.453Z</time>
      </trkpt>
      <trkpt lat="48.36988" lon="5.19535">
        <ele>236.36</ele>
        <time>2025-01-04T13:03:40.896Z</time>
      </trkpt>
      <trkpt lat="48.36991" lon="5.1951">
        <ele>236.08</ele>
        <time>2025-01-04T13:03:47.341Z</time>
      </trkpt>
      <trkpt lat="48.36986" lon="5.19475">
        <ele>235.77</ele>
        <time>2025-01-04T13:03:53.790Z</time>
      </trkpt>
      <trkpt lat="48.36978" lon="5.19443">
        <ele>235.5</ele>
        <time>2025-01-04T13:04:00.243Z</time>
      </trkpt>
      <trkpt lat="48.36968" lon="5.19418">
        <ele>235.31</ele>
        <time>2025-01-04T13:04:06.699Z</time>
      </trkpt>
      <trkpt lat="48.36958" lon="5.19394">
        <ele>235.15</ele>
        <time>2025-01-04T13:04:13.158Z</time>
      </trkpt>
      <trkpt lat="48.36943" lon="5.19363">
        <ele>235</ele>
        <time>2025-01-04T13:04:19.621Z</time>
      </trkpt>
      <trkpt lat="48.36928" lon="5.19332">
        <ele>234.77</ele>
        <time>2025-01-04T13:04:26.088Z</time>
      </trkpt>
      <trkpt lat="48.36913" lon="5.19302">
        <ele>234.46</ele>
        <time>2025-01-04T13:04:32.559Z</time>
      </trkpt>
      <trkpt lat="48.36898" lon="5.19271">
        <ele>234.08</ele>
        <time>2025-01-04T13:04:39.034Z</time>
      </trkpt>
      <trkpt lat="48.36885" lon="5.19231">
        <ele>233.6</ele>
        <time>2025-01-04T13:04:45.514Z</time>
      </trkpt>
      <trkpt lat="48.36879" lon="5.19192">
        <ele>233.25</ele>
        <time>2025-01-04T13:04:51.998Z</time>
      </trkpt>
      <trkpt lat="48.3688" lon="5.19167">
        <ele>232.96</ele>
        <time>2025-01-04T13:04:58.485Z</time>
      </trkpt>
      <trkpt lat="48.36881" lon="5.19143">
        <ele>232.65</ele>
        <time>2025-01-04T13:05:04.974Z</time>
      </trkpt>
      <trkpt lat="48.36885" lon="5.191">
        <ele>232.33</ele>
        <time>2025-01-04T13:05:11.468Z</time>
      </trkpt>
      <trkpt lat="48.3689" lon="5.19057">
        <ele>232.05</ele>
        <time>2025-01-04T13:05:17.967Z</time>
      </trkpt>
      <trkpt lat="48.36894" lon="5.19014">
        <ele>231.74</ele>
        <time>2025-01-04T13:05:24.470Z</time>
      </trkpt>
      <trkpt lat="48.36898" lon="5.18971">
        <ele>231.26</ele>
        <time>2025-01-04T13:05:30.978Z</time>
      </trkpt>
      <trkpt lat="48.36903" lon="5.18928">
        <ele>230.81</ele>
        <time>2025-01-04T13:05:37.491Z</time>
      </trkpt>
      <trkpt lat="48.36905" lon="5.18897">
        <ele>230.28</ele>
        <time>2025-01-04T13:05:44.007Z</time>
      </trkpt>
      <trkpt lat="48.36907" lon="5.18866">
        <ele>229.73</ele>
        <time>2025-01-04T13:05:50.526Z</time>
      </trkpt>
      <trkpt lat="48.36906" lon="5.18835">
        <ele>229.12</ele>
        <time>2025-01-04T13:05:57.049Z</time>
      </trkpt>
      <trkpt lat="48.36905" lon="5.18804">
        <ele>228.45</ele>
        <time>2025-01-04T13:06:03.575Z</time>
      </trkpt>
      <trkpt lat="48.36903" lon="5.18759">
        <ele>227.69</ele>
        <time>2025-01-04T13:06:10.106Z</time>
      </trkpt>
      <trkpt lat="48.369" lon="5.18716">
        <ele>227.02</ele>
        <time>2025-01-04T13:06:16.641Z</time>
      </trkpt>
      <trkpt lat="48.36897" lon="5.18684">
        <ele>226.33</ele>
        <time>2025-01-04T13:06:23.180Z</time>
      </trkpt>
      <trkpt lat="48.36894" lon="5.18653">
        <ele>225.58</ele>
        <time>2025-01-04T13:06:29.722Z</time>
      </trkpt>
      <trkpt lat="48.36887" lon="5.18616">
        <ele>224.67</ele>
        <time>2025-01-04T13:06:36.268Z</time>
      </trkpt>
      <trkpt lat="48.36879" lon="5.18579">
        <ele>223.74</ele>
        <time>2025-01-04T13:06:42.818Z</time>
      </trkpt>
      <trkpt lat="48.36872" lon="5.18541">
        <ele>222.81</ele>
        <time>2025-01-04T13:06:49.372Z</time>
      </trkpt>
      <trkpt lat="48.36865" lon="5.18504">
        <ele>222</ele>
        <time>2025-01-04T13:06:55.931Z</time>
      </trkpt>
      <trkpt lat="48.36858" lon="5.18467">
        <ele>221.13</ele>
        <time>2025-01-04T13:07:02.494Z</time>
      </trkpt>
      <trkpt lat="48.36859" lon="5.18431">
        <ele>220.14</ele>
        <time>2025-01-04T13:07:09.061Z</time>
      </trkpt>
      <trkpt lat="48.3686" lon="5.18396">
        <ele>219.06</ele>
        <time>2025-01-04T13:07:15.631Z</time>
      </trkpt>
      <trkpt lat="48.36866" lon="5.18353">
        <ele>218.05</ele>
        <time>2025-01-04T13:07:22.206Z</time>
      </trkpt>
      <trkpt lat="48.36878" lon="5.18314">
        <ele>217.02</ele>
        <time>2025-01-04T13:07:28.786Z</time>
      </trkpt>
      <trkpt lat="48.36889" lon="5.18274">
        <ele>216.03</ele>
        <time>2025-01-04T13:07:35.370Z</time>
      </trkpt>
      <trkpt lat="48.369" lon="5.18235">
        <ele>214.94</ele>
        <time>2025-01-04T13:07:41.959Z</time>
      </trkpt>
      <trkpt lat="48.36907" lon="5.18205">
        <ele>213.82</ele>
        <time>2025-01-04T13:07:48.551Z</time>
      </trkpt>
      <trkpt lat="48.36913" lon="5.18175">
        <ele>212.68</ele>
        <time>2025-01-04T13:07:55.146Z</time>
      </trkpt>
      <trkpt lat="48.36913" lon="5.18175">
        <ele>211.67</ele>
        <time>2025-01-04T13:08:01.741Z</time>
      </trkpt>
      <trkpt lat="48.36916" lon="5.18158">
        <ele>210.61</ele>
        <time>2025-01-04T13:08:08.338Z</time>
      </trkpt>
      <trkpt lat="48.36918" lon="5.1812">
        <ele>209.61</ele>
        <time>2025-01-04T13:08:14.939Z</time>
      </trkpt>
      <trkpt lat="48.3692" lon="5.18083">
        <ele>208.7</ele>
        <time>2025-01-04T13:08:21.544Z</time>
      </trkpt>
      <trkpt lat="48.36918" lon="5.18072">
        <ele>207.75</ele>
        <time>2025-01-04T13:08:28.151Z</time>
      </trkpt>
      <trkpt lat="48.36902" lon="5.1804">
        <ele>206.75</ele>
        <time>2025-01-04T13:08:34.762Z</time>
      </trkpt>
      <trkpt lat="48.36887" lon="5.18008">
        <ele>205.88</ele>
        <time>2025-01-04T13:08:41.377Z</time>
      </trkpt>
      <trkpt lat="48.36871" lon="5.17976">
        <ele>205.13</ele>
        <time>2025-01-04T13:08:47.996Z</time>
      </trkpt>
      <trkpt lat="48.36856" lon="5.17945">
        <ele>204.43</ele>
        <time>2025-01-04T13:08:54.619Z</time>
      </trkpt>
      <trkpt lat="48.3684" lon="5.17913">
        <ele>205.05</ele>
        <time>2025-01-04T13:09:01.247Z</time>
      </trkpt>
      <trkpt lat="48.36826" lon="5.17891">
        <ele>203.32</ele>
        <time>2025-01-04T13:09:07.878Z</time>
      </trkpt>
      <trkpt lat="48.36813" lon="5.17868">
        <ele>204.2</ele>
        <time>2025-01-04T13:09:14.512Z</time>
      </trkpt>
      <trkpt lat="48.368" lon="5.17849">
        <ele>203.98</ele>
        <time>2025-01-04T13:09:21.149Z</time>
      </trkpt>
      <trkpt lat="48.3678" lon="5.17819">
        <ele>202.81</ele>
        <time>2025-01-04T13:09:27.790Z</time>
      </trkpt>
      <trkpt lat="48.3676" lon="5.1779">
        <ele>202.85</ele>
        <time>2025-01-04T13:09:34.436Z</time>
      </trkpt>
      <trkpt lat="48.36739" lon="5.17761">
        <ele>202.92</ele>
        <time>2025-01-04T13:09:41.086Z</time>
      </trkpt>
      <trkpt lat="48.36719" lon="5.17731">
        <ele>203.21</ele>
        <time>2025-01-04T13:09:47.741Z</time>
      </trkpt>
      <trkpt lat="48.36699" lon="5.17702">
        <ele>203.68</ele>
        <time>2025-01-04T13:09:54.400Z</time>
      </trkpt>
      <trkpt lat="48.36679" lon="5.17673">
        <ele>205.15</ele>
        <time>2025-01-04T13:10:01.064Z</time>
      </trkpt>
      <trkpt lat="48.36671" lon="5.17638">
        <ele>205.75</ele>
        <time>2025-01-04T13:10:07.732Z</time>
      </trkpt>
      <trkpt lat="48.36675" lon="5.17596">
        <ele>206.41</ele>
        <time>2025-01-04T13:10:14.404Z</time>
      </trkpt>
      <trkpt lat="48.3668" lon="5.17558">
        <ele>206.41</ele>
        <time>2025-01-04T13:10:21.081Z</time>
      </trkpt>
      <trkpt lat="48.36685" lon="5.1752">
        <ele>207.23</ele>
        <time>2025-01-04T13:10:27.762Z</time>
      </trkpt>
      <trkpt lat="48.36689" lon="5.17482">
        <ele>208.05</ele>
        <time>2025-01-04T13:10:34.447Z</time>
      </trkpt>
      <trkpt lat="48.36694" lon="5.17444">
        <ele>209.02</ele>
        <time>2025-01-04T13:10:41.136Z</time>
      </trkpt>
      <trkpt lat="48.36699" lon="5.17407">
        <ele>210.53</ele>
        <time>2025-01-04T13:10:47.829Z</time>
      </trkpt>
      <trkpt lat="48.367" lon="5.1737">
        <ele>211.03</ele>
        <time>2025-01-04T13:10:54.526Z</time>
      </trkpt>
      <trkpt lat="48.36702" lon="5.17332">
        <ele>212.05</ele>
        <time>2025-01-04T13:11:01.227Z</time>
      </trkpt>
      <trkpt lat="48.36704" lon="5.17295">
        <ele>213.12</ele>
        <time>2025-01-04T13:11:07.932Z</time>
      </trkpt>
      <trkpt lat="48.36705" lon="5.17259">
        <ele>214.52</ele>
        <time>2025-01-04T13:11:14.641Z</time>
      </trkpt>
      <trkpt lat="48.36712" lon="5.17229">
        <ele>215.26</ele>
        <time>2025-01-04T13:11:21.353Z</time>
      </trkpt>
      <trkpt lat="48.36718" lon="5.17199">
        <ele>216.45</ele>
        <time>2025-01-04T13:11:28.068Z</time>
      </trkpt>
      <trkpt lat="48.36729" lon="5.17158">
        <ele>217.39</ele>
        <time>2025-01-04T13:11:34.788Z</time>
      </trkpt>
      <trkpt lat="48.36741" lon="5.17118">
        <ele>218.61</ele>
        <time>2025-01-04T13:11:41.513Z</time>
      </trkpt>
      <trkpt lat="48.36752" lon="5.17078">
        <ele>219.65</ele>
        <time>2025-01-04T13:11:48.242Z</time>
      </trkpt>
      <trkpt lat="48.36763" lon="5.17038">
        <ele>220.62</ele>
        <time>2025-01-04T13:11:54.976Z</time>
      </trkpt>
      <trkpt lat="48.36769" lon="5.17008">
        <ele>221.68</ele>
        <time>2025-01-04T13:12:01.713Z</time>
      </trkpt>
      <trkpt lat="48.36774" lon="5.16978">
        <ele>222.52</ele>
        <time>2025-01-04T13:12:08.454Z</time>
      </trkpt>
      <trkpt lat="48.36773" lon="5.1695">
        <ele>223.76</ele>
        <time>2025-01-04T13:12:15.198Z</time>
      </trkpt>
      <trkpt lat="48.36772" lon="5.16922">
        <ele>224.42</ele>
        <time>2025-01-04T13:12:21.945Z</time>
      </trkpt>
      <trkpt lat="48.36763" lon="5.16882">
        <ele>225.74</ele>
        <time>2025-01-04T13:12:28.696Z</time>
      </trkpt>
      <trkpt lat="48.36755" lon="5.16843">
        <ele>226.6</ele>
        <time>2025-01-04T13:12:35.452Z</time>
      </trkpt>
      <trkpt lat="48.36746" lon="5.16804">
        <ele>226.98</ele>
        <time>2025-01-04T13:12:42.212Z</time>
      </trkpt>
      <trkpt lat="48.3674" lon="5.16757">
        <ele>228.2</ele>
        <time>2025-01-04T13:12:48.977Z</time>
      </trkpt>
      <trkpt lat="48.36733" lon="5.16711">
        <ele>228.44</ele>
        <time>2025-01-04T13:12:55.747Z</time>
      </trkpt>
      <trkpt lat="48.36729" lon="5.16677">
        <ele>229.48</ele>
        <time>2025-01-04T13:13:02.521Z</time>
      </trkpt>
      <trkpt lat="48.36724" lon="5.16642">
        <ele>229.98</ele>
        <time>2025-01-04T13:13:09.299Z</time>
      </trkpt>
      <trkpt lat="48.3672" lon="5.16607">
        <ele>230.41</ele>
        <time>2025-01-04T13:13:16.080Z</time>
      </trkpt>
      <trkpt lat="48.36716" lon="5.16572">
        <ele>230.6</ele>
        <time>2025-01-04T13:13:22.865Z</time>
      </trkpt>
      <trkpt lat="48.36712" lon="5.16547">
        <ele>231.05</ele>
        <time>2025-01-04T13:13:29.653Z</time>
      </trkpt>
      <trkpt lat="48.36707" lon="5.16523">
        <ele>231.31</ele>
        <time>2025-01-04T13:13:36.444Z</time>
      </trkpt>
      <trkpt lat="48.36698" lon="5.16491">
        <ele>231.53</ele>
        <time>2025-01-04T13:13:43.238Z</time>
      </trkpt>
      <trkpt lat="48.36688" lon="5.1646">
        <ele>231.91</ele>
        <time>2025-01-04T13:13:50.036Z</time>
      </trkpt>
      <trkpt lat="48.36677" lon="5.1643">
        <ele>231.79</ele>
        <time>2025-01-04T13:13:56.838Z</time>
      </trkpt>
      <trkpt lat="48.36665" lon="5.16399">
        <ele>231.82</ele>
        <time>2025-01-04T13:14:03.643Z</time>
      </trkpt>
      <trkpt lat="48.36654" lon="5.16368">
        <ele>232.41</ele>
        <time>2025-01-04T13:14:10.452Z</time>
      </trkpt>
      <trkpt lat="48.36639" lon="5.1633">
        <ele>232.49</ele>
        <time>2025-01-04T13:14:17.266Z</time>
      </trkpt>
      <trkpt lat="48.36627" lon="5.16307">
        <ele>231.83</ele>
        <time>2025-01-04T13:14:24.083Z</time>
      </trkpt>
      <trkpt lat="48.36615" lon="5.16284">
        <ele>232.79</ele>
        <time>2025-01-04T13:14:30.903Z</time>
      </trkpt>
      <trkpt lat="48.366" lon="5.16266">
        <ele>231.9</ele>
        <time>2025-01-04T13:14:37.726Z</time>
      </trkpt>
      <trkpt lat="48.36585" lon="5.16248">
        <ele>233.02</ele>
        <time>2025-01-04T13:14:44.552Z</time>
      </trkpt>
      <trkpt lat="48.36566" lon="5.16231">
        <ele>231.7</ele>
        <time>2025-01-04T13:14:51.382Z</time>
      </trkpt>
      <trkpt lat="48.36548" lon="5.16214">
        <ele>231.52</ele>
        <time>2025-01-04T13:14:58.215Z</time>
      </trkpt>
      <trkpt lat="48.36529" lon="5.16196">
        <ele>233.06</ele>
        <time>2025-01-04T13:15:05.052Z</time>
      </trkpt>
      <trkpt lat="48.36505" lon="5.16172">
        <ele>231.12</ele>
        <time>2025-01-04T13:15:11.894Z</time>
      </trkpt>
      <trkpt lat="48.3648" lon="5.16147">
        <ele>233.01</ele>
        <time>2025-01-04T13:15:18.740Z</time>
      </trkpt>
      <trkpt lat="48.36458" lon="5.16118">
        <ele>230.62</ele>
        <time>2025-01-04T13:15:25.591Z</time>
      </trkpt>
      <trkpt lat="48.36437" lon="5.16088">
        <ele>230.25</ele>
        <time>2025-01-04T13:15:32.447Z</time>
      </trkpt>
      <trkpt lat="48.36415" lon="5.16059">
        <ele>229.82</ele>
        <time>2025-01-04T13:15:39.307Z</time>
      </trkpt>
      <trkpt lat="48.36394" lon="5.16029">
        <ele>232.44</ele>
        <time>2025-01-04T13:15:46.172Z</time>
      </trkpt>
      <trkpt lat="48.36381" lon="5.16014">
        <ele>232.23</ele>
        <time>2025-01-04T13:15:53.040Z</time>
      </trkpt>
      <trkpt lat="48.36368" lon="5.15997">
        <ele>231.99</ele>
        <time>2025-01-04T13:15:59.910Z</time>
      </trkpt>
      <trkpt lat="48.36351" lon="5.15974">
        <ele>227.85</ele>
        <time>2025-01-04T13:16:06.784Z</time>
      </trkpt>
      <trkpt lat="48.36334" lon="5.15952">
        <ele>229.64</ele>
        <time>2025-01-04T13:16:13.662Z</time>
      </trkpt>
      <trkpt lat="48.36347" lon="5.15937">
        <ele>226.43</ele>
        <time>2025-01-04T13:16:20.542Z</time>
      </trkpt>
      <trkpt lat="48.3636" lon="5.15922">
        <ele>228.6</ele>
        <time>2025-01-04T13:16:27.425Z</time>
      </trkpt>
      <trkpt lat="48.36382" lon="5.15895">
        <ele>224.66</ele>
        <time>2025-01-04T13:16:34.312Z</time>
      </trkpt>
      <trkpt lat="48.36405" lon="5.15868">
        <ele>223.85</ele>
        <time>2025-01-04T13:16:41.204Z</time>
      </trkpt>
      <trkpt lat="48.36427" lon="5.15842">
        <ele>222.99</ele>
        <time>2025-01-04T13:16:48.101Z</time>
      </trkpt>
      <trkpt lat="48.36449" lon="5.15815">
        <ele>222.12</ele>
        <time>2025-01-04T13:16:55.002Z</time>
      </trkpt>
      <trkpt lat="48.36472" lon="5.15788">
        <ele>221.19</ele>
        <time>2025-01-04T13:17:01.908Z</time>
      </trkpt>
      <trkpt lat="48.36494" lon="5.15762">
        <ele>220.34</ele>
        <time>2025-01-04T13:17:08.818Z</time>
      </trkpt>
      <trkpt lat="48.36516" lon="5.15735">
        <ele>223.07</ele>
        <time>2025-01-04T13:17:15.733Z</time>
      </trkpt>
      <trkpt lat="48.36537" lon="5.1571">
        <ele>218.67</ele>
        <time>2025-01-04T13:17:22.652Z</time>
      </trkpt>
      <trkpt lat="48.36557" lon="5.15686">
        <ele>221.17</ele>
        <time>2025-01-04T13:17:29.575Z</time>
      </trkpt>
      <trkpt lat="48.36573" lon="5.15666">
        <ele>216.88</ele>
        <time>2025-01-04T13:17:36.502Z</time>
      </trkpt>
      <trkpt lat="48.36589" lon="5.15647">
        <ele>218.88</ele>
        <time>2025-01-04T13:17:43.432Z</time>
      </trkpt>
      <trkpt lat="48.36591" lon="5.15645">
        <ele>217.67</ele>
        <time>2025-01-04T13:17:50.362Z</time>
      </trkpt>
      <trkpt lat="48.36591" lon="5.15645">
        <ele>216.38</ele>
        <time>2025-01-04T13:17:57.292Z</time>
      </trkpt>
      <trkpt lat="48.36604" lon="5.15625">
        <ele>212.45</ele>
        <time>2025-01-04T13:18:04.225Z</time>
      </trkpt>
      <trkpt lat="48.36617" lon="5.15604">
        <ele>213.46</ele>
        <time>2025-01-04T13:18:11.161Z</time>
      </trkpt>
      <trkpt lat="48.36626" lon="5.1557">
        <ele>212.05</ele>
        <time>2025-01-04T13:18:18.101Z</time>
      </trkpt>
      <trkpt lat="48.3663" lon="5.15533">
        <ele>210.71</ele>
        <time>2025-01-04T13:18:25.045Z</time>
      </trkpt>
      <trkpt lat="48.36624" lon="5.15497">
        <ele>209.5</ele>
        <time>2025-01-04T13:18:31.993Z</time>
      </trkpt>
      <trkpt lat="48.36611" lon="5.15458">
        <ele>206.93</ele>
        <time>2025-01-04T13:18:38.946Z</time>
      </trkpt>
      <trkpt lat="48.36598" lon="5.1542">
        <ele>207.35</ele>
        <time>2025-01-04T13:18:45.903Z</time>
      </trkpt>
      <trkpt lat="48.36587" lon="5.15389">
        <ele>205.13</ele>
        <time>2025-01-04T13:18:52.864Z</time>
      </trkpt>
      <trkpt lat="48.36576" lon="5.15358">
        <ele>204.24</ele>
        <time>2025-01-04T13:18:59.829Z</time>
      </trkpt>
      <trkpt lat="48.36566" lon="5.15327">
        <ele>204.19</ele>
        <time>2025-01-04T13:19:06.797Z</time>
      </trkpt>
      <trkpt lat="48.36555" lon="5.15295">
        <ele>203.39</ele>
        <time>2025-01-04T13:19:13.769Z</time>
      </trkpt>
      <trkpt lat="48.36549" lon="5.15274">
        <ele>202.77</ele>
        <time>2025-01-04T13:19:20.744Z</time>
      </trkpt>
      <trkpt lat="48.36544" lon="5.15246">
        <ele>202.18</ele>
        <time>2025-01-04T13:19:27.722Z</time>
      </trkpt>
      <trkpt lat="48.36546" lon="5.15227">
        <ele>201.58</ele>
        <time>2025-01-04T13:19:34.702Z</time>
      </trkpt>
      <trkpt lat="48.36534" lon="5.15224">
        <ele>201.27</ele>
        <time>2025-01-04T13:19:41.684Z</time>
      </trkpt>
      <trkpt lat="48.36516" lon="5.15235">
        <ele>200.9</ele>
        <time>2025-01-04T13:19:48.669Z</time>
      </trkpt>
      <trkpt lat="48.36508" lon="5.15245">
        <ele>201</ele>
        <time>2025-01-04T13:19:55.656Z</time>
      </trkpt>
    </trkseg>
  </trk>
</gpx>